GFSSW_sfc_dewp_000.txt.gz
Dewpoint
57 57 55 55 54 54 54 54 53 54 54 55 55 55 55 55 55 51 37 40 41 55 52 31 31 30 28 23 16 14 13 19 16 16 14 13 9 12 13 25 24 33 34 45 49
56 55 55 55 56 54 55 53 53 55 54 55 55 54 55 55 51 40 48 57 59 59 34 29 27 26 23 18 15 12 14 9 6 7 7 5 7 6 10 20 21 27 39 50 50
56 56 55 55 54 54 54 53 53 54 54 54 54 54 54 55 44 31 57 57 59 59 35 32 25 20 17 15 12 11 10 7 4 7 3 4 5 3 10 13 16 23 28 47 50
55 55 55 55 54 54 54 53 54 54 54 53 54 54 55 53 27 26 59 59 60 42 37 27 20 18 15 11 10 9 7 6 5 3 1 -0 5 2 7 13 17 23 29 45 45
54 55 56 54 54 54 54 53 53 53 53 53 54 54 53 42 27 28 51 54 40 38 29 22 20 18 12 10 8 10 7 7 5 6 10 13 9 12 9 13 18 23 33 41 45
56 56 55 55 54 54 54 53 53 52 52 52 53 54 49 34 24 25 25 24 23 25 17 17 16 14 9 7 8 10 9 8 10 15 14 13 12 18 16 14 14 22 31 38 43
56 56 56 54 54 54 54 53 52 52 53 53 53 51 44 31 22 22 23 23 23 24 22 21 21 15 15 15 16 13 13 15 17 19 18 16 17 15 18 18 16 17 24 30 38
56 56 56 56 54 53 53 52 52 53 53 52 52 51 37 26 26 21 20 19 20 24 23 22 23 24 23 19 13 12 16 15 17 18 21 19 17 16 19 18 18 19 20 24 33
55 56 55 55 55 53 53 53 53 53 53 52 52 51 31 36 23 22 21 20 21 25 24 21 25 18 18 15 15 17 12 16 19 18 19 18 19 18 21 22 21 22 23 23 26
54 55 55 55 55 55 54 54 54 53 53 50 46 41 23 20 22 20 22 25 24 25 23 24 22 18 17 16 15 15 11 9 9 18 14 12 15 20 21 21 24 22 23 25 25
54 55 55 55 55 54 53 51 43 40 40 28 22 23 16 15 22 21 22 23 26 25 24 20 19 22 22 21 16 13 10 9 16 19 17 16 18 20 23 23 27 27 28 30 38
54 54 54 54 54 54 54 47 42 38 28 26 25 23 24 24 19 18 23 24 23 21 19 13 21 21 20 18 17 15 14 14 17 19 17 19 16 21 23 26 27 28 32 37 39
54 53 55 53 54 54 52 47 48 49 28 25 25 23 25 25 24 23 27 20 19 18 13 25 22 21 20 21 20 19 18 25 22 21 19 18 19 21 24 26 28 30 32 34 36
54 54 54 53 52 50 45 46 52 54 27 18 22 24 24 25 25 25 27 25 18 16 20 23 23 23 22 24 25 21 27 24 21 20 16 18 15 21 23 26 28 31 33 33 33
54 54 54 53 55 42 48 51 54 54 34 22 22 28 23 27 26 26 28 26 19 21 24 25 25 26 25 26 26 27 28 25 24 22 21 18 19 24 23 24 28 31 33 35 37
54 55 54 52 58 50 53 56 55 47 32 21 23 24 24 25 25 27 26 30 31 24 26 26 26 28 28 27 26 29 28 27 27 26 30 20 21 28 24 26 29 32 34 36 37
55 55 53 55 50 57 61 51 42 37 25 21 23 25 24 25 26 27 27 28 27 25 26 26 27 29 28 28 30 26 27 31 33 33 30 26 20 29 28 29 30 32 34 37 40
55 55 57 56 56 62 56 41 35 22 21 20 23 25 25 26 27 27 27 26 28 31 22 23 28 27 28 28 26 27 26 34 27 30 26 21 15 25 30 30 31 32 33 35 38
54 61 59 62 63 61 46 50 36 21 22 21 23 23 25 26 27 28 28 26 27 30 27 27 27 28 28 28 27 29 29 25 30 36 31 18 26 28 29 29 29 30 31 33 36
51 48 47 60 63 57 49 41 29 26 21 22 21 25 24 23 25 27 27 30 28 29 27 25 28 25 24 29 31 28 26 29 33 30 23 18 19 27 28 28 28 28 29 32 36
57 39 56 59 60 42 46 38 28 27 30 22 24 23 26 25 25 27 28 30 31 30 30 28 30 26 27 28 27 28 28 26 23 30 27 25 20 25 27 27 28 31 31 35 36
55 39 57 61 37 39 41 31 35 31 33 33 31 29 28 29 28 30 30 34 33 32 30 30 31 38 23 27 28 27 27 25 35 29 36 35 26 28 30 32 32 32 34 36 38
43 46 55 56 43 54 37 33 31 30 29 30 32 33 33 33 32 32 36 37 37 37 36 34 36 34 27 31 30 25 27 25 33 35 30 34 29 29 36 33 31 31 35 37 38
46 45 41 44 46 40 36 34 34 35 34 33 33 34 34 34 34 34 36 38 38 37 42 41 29 32 30 23 22 24 21 22 23 34 31 31 26 27 31 32 30 32 36 36 37
47 43 37 50 46 38 36 33 33 33 34 34 32 32 34 36 34 33 35 36 35 39 36 35 36 32 29 24 22 21 21 21 20 25 27 28 24 25 30 31 35 37 37 37 38
45 43 43 42 41 37 39 33 31 30 33 31 32 33 33 38 32 33 30 29 32 35 34 37 40 38 36 25 24 25 23 22 21 21 22 24 25 29 35 36 36 37 37 38 37
48 49 45 43 40 41 42 35 32 37 38 32 33 35 40 36 38 38 38 37 34 36 40 41 41 37 34 33 34 35 35 25 23 24 26 30 29 34 35 35 35 37 38 37 35

GFSSW_sfc_dewp_003.txt.gz
Dewpoint
55 57 57 57 56 54 54 53 53 53 54 54 55 55 54 54 55 54 46 44 45 56 51 32 34 35 33 28 27 19 12 12 13 24 15 14 10 8 19 23 29 37 44 49 48
55 55 55 55 54 54 54 54 55 53 55 55 55 55 54 54 53 46 50 54 58 57 34 30 29 29 27 24 24 12 13 10 9 10 9 9 7 7 16 21 26 45 47 47 47
55 55 55 54 55 54 54 54 53 53 55 55 55 54 54 54 51 37 55 58 61 58 36 33 32 28 24 23 17 12 9 5 4 4 6 6 5 9 18 19 21 44 46 47 48
54 54 54 54 55 54 53 53 53 54 54 54 54 53 54 53 36 29 57 59 61 50 41 36 32 20 18 16 12 8 7 5 5 6 3 3 2 5 7 14 20 33 48 48 48
53 53 54 55 55 54 53 53 53 53 53 52 53 53 53 49 38 29 61 58 50 40 38 36 30 21 18 16 11 8 8 7 6 7 13 11 7 10 7 14 18 25 46 48 47
53 54 55 55 55 53 53 53 53 52 52 52 52 53 51 38 31 28 28 43 35 37 36 32 23 20 17 10 10 13 9 6 6 13 16 16 14 16 16 13 14 29 43 43 45
54 54 55 56 55 53 53 53 52 52 52 52 52 52 49 44 29 25 26 23 23 26 25 26 23 21 19 18 18 14 10 11 14 18 17 18 16 16 17 12 12 18 28 41 45
56 56 56 56 53 53 53 53 52 52 52 52 52 51 43 36 26 21 22 21 22 23 24 25 24 24 25 17 14 13 17 14 17 20 20 16 15 17 18 18 16 18 20 21 40
55 55 55 55 54 53 52 52 52 52 52 52 51 52 39 36 27 24 23 22 25 27 25 19 25 26 17 15 15 18 13 18 17 20 22 19 18 18 19 19 19 20 18 19 25
55 55 55 55 54 54 53 53 54 52 52 51 49 43 43 25 26 23 23 25 30 29 28 27 25 21 20 19 17 17 16 18 19 17 14 12 18 21 22 22 23 23 32 35 43
55 55 54 54 54 54 52 51 46 42 49 37 35 37 19 19 22 22 25 25 28 29 26 27 25 23 23 22 19 17 15 19 19 19 21 18 20 23 27 26 29 38 41 41 42
55 54 54 54 54 54 52 52 46 45 34 38 27 27 29 23 23 22 26 29 29 25 25 21 23 23 23 25 23 18 20 24 20 20 18 17 19 24 28 30 31 37 37 39 41
54 55 54 54 54 52 52 51 51 51 32 32 29 27 30 29 28 25 27 28 23 22 27 25 25 24 23 27 25 24 25 24 24 22 20 20 21 24 27 30 31 32 34 37 39
54 54 54 54 50 55 52 50 53 55 28 23 26 28 28 29 29 25 28 28 27 26 27 24 27 27 25 26 26 27 30 27 24 23 18 18 19 24 28 30 32 33 35 36 39
53 54 53 54 52 51 50 53 53 51 24 26 27 31 27 30 27 29 31 31 27 23 28 28 28 29 28 27 27 30 33 29 28 25 23 21 23 24 28 30 31 33 34 37 39
54 54 53 51 53 55 58 58 47 38 28 28 26 29 25 28 29 27 29 34 34 27 27 27 30 29 28 29 29 28 31 31 30 28 25 26 27 32 33 30 33 35 36 37 38
55 54 53 55 54 59 60 49 37 30 29 23 26 28 27 29 27 29 31 30 30 27 28 27 29 30 30 30 32 30 30 28 26 26 25 31 28 34 32 31 34 36 37 38 39
55 55 57 61 62 61 56 43 29 30 25 24 26 28 27 29 29 32 30 28 29 32 30 27 28 28 30 29 28 30 29 27 24 23 25 20 25 28 30 32 33 33 36 38 38
54 59 60 60 62 59 49 37 36 29 23 24 26 27 27 30 31 30 29 27 28 29 29 32 28 30 27 28 30 32 26 26 29 29 25 25 27 29 30 30 30 30 31 36 37
55 55 54 60 61 55 46 41 36 28 26 25 25 28 26 25 28 29 30 32 32 32 30 28 28 27 27 31 32 28 27 28 29 21 19 21 28 31 33 34 30 29 32 34 36
55 43 55 59 56 45 40 41 32 32 35 32 30 28 30 27 28 30 31 33 33 32 31 33 34 28 30 29 29 30 30 29 27 28 23 22 23 31 32 32 32 33 35 36 37
52 41 57 57 38 42 40 42 34 34 36 35 36 32 33 31 33 34 35 35 36 38 31 32 32 27 27 30 30 29 30 31 26 27 28 26 23 33 33 32 32 34 36 37 36
47 50 55 56 35 38 43 37 34 32 34 35 35 36 35 36 32 37 38 41 41 38 37 36 31 27 29 32 31 28 28 34 36 28 23 22 26 33 36 34 33 35 36 36 38
51 40 47 48 48 44 39 37 36 38 37 36 35 37 36 35 37 38 38 41 40 37 42 41 33 27 26 25 26 24 25 27 33 27 28 27 28 28 36 35 36 37 37 37 38
50 44 39 36 40 42 40 37 36 36 38 37 36 36 35 33 35 37 38 38 40 39 39 37 32 34 31 28 27 25 24 24 23 26 25 26 28 34 35 36 37 38 38 38 37
50 46 43 40 37 40 39 35 36 35 35 35 34 36 38 34 36 35 36 36 37 37 38 42 34 30 28 32 31 28 28 27 25 25 24 26 31 36 36 36 37 38 37 36 35
51 50 49 45 40 40 39 38 38 39 38 38 38 39 37 40 41 40 39 39 40 37 39 36 31 30 28 34 32 25 28 31 28 29 28 26 33 36 36 36 38 36 36 35 35

GFSSW_sfc_dewp_006.txt.gz
Dewpoint
54 54 55 55 57 57 55 53 53 53 53 53 54 54 54 54 54 53 43 42 48 56 50 33 35 36 35 31 27 21 16 13 13 19 19 15 14 13 25 34 39 41 47 45 45
54 55 55 55 54 54 53 53 53 55 53 54 55 54 53 54 52 48 51 57 58 58 31 29 28 31 29 27 26 19 13 13 13 18 13 10 7 10 24 41 45 47 48 45 42
56 55 55 55 54 54 53 53 53 54 53 54 53 53 53 53 50 42 56 56 59 56 33 32 32 30 27 25 21 17 10 5 7 12 8 6 7 12 21 33 45 46 45 43 42
54 54 54 54 54 54 53 53 53 53 52 52 52 53 53 53 34 31 56 59 61 48 39 36 33 32 28 24 19 9 9 5 6 6 6 5 6 9 18 19 46 47 45 44 44
53 53 53 54 54 55 53 53 53 52 52 51 52 52 52 49 39 34 58 60 56 43 39 34 33 27 19 17 11 8 7 5 7 14 10 6 4 5 14 22 46 46 46 46 45
53 53 53 54 55 55 53 53 52 52 51 51 51 53 49 37 36 31 41 47 38 36 36 36 31 25 21 18 10 11 7 5 5 14 15 10 14 14 13 23 46 47 47 47 47
53 53 53 54 56 55 53 52 52 52 50 51 51 51 50 43 38 35 27 29 34 36 33 27 32 24 25 16 15 11 6 9 9 16 15 17 16 14 16 20 44 47 47 47 47
53 54 55 55 54 52 52 52 52 51 50 51 51 51 42 40 37 24 22 21 24 26 27 29 28 28 19 18 15 12 15 10 16 19 20 14 12 16 14 12 22 38 44 44 45
55 55 55 55 54 53 52 52 51 51 51 51 50 51 33 43 25 21 24 23 26 26 27 19 26 21 19 14 13 17 10 17 17 19 19 18 17 18 18 14 13 18 30 39 43
55 55 54 54 54 53 52 51 53 52 52 51 50 44 42 36 25 22 23 26 30 29 27 23 27 21 22 17 10 13 16 17 16 18 21 17 18 22 23 31 38 41 42 45 44
55 54 54 54 54 54 52 49 43 40 48 30 34 38 31 28 23 22 24 24 29 26 25 27 23 20 20 21 19 19 19 18 18 18 16 21 25 27 35 40 39 41 44 44 43
54 54 54 54 54 54 50 50 46 43 35 41 42 37 30 23 25 22 28 27 30 24 27 24 23 23 23 27 26 25 23 22 21 21 16 22 24 30 36 37 38 41 43 43 43
54 54 53 54 54 51 48 47 50 51 36 29 30 27 29 30 26 24 28 30 26 24 26 24 23 26 27 27 26 28 25 24 23 23 19 24 23 30 31 33 34 36 41 43 43
53 53 53 53 49 51 47 46 49 47 25 22 26 26 27 30 28 25 27 28 27 26 25 23 28 28 28 26 28 28 30 27 24 21 12 20 20 25 31 33 36 39 41 42 43
53 53 53 53 49 51 49 55 54 47 18 23 28 30 27 29 28 27 29 32 29 22 28 27 29 29 27 28 29 29 31 28 27 24 23 22 23 25 31 30 33 36 39 41 42
53 53 53 51 51 52 57 56 43 36 22 27 27 26 25 28 29 26 28 33 33 28 27 27 30 28 28 30 30 30 32 32 30 28 23 26 27 28 30 31 34 35 38 39 41
53 54 52 55 53 57 57 41 34 26 32 22 25 28 26 28 30 29 30 29 29 26 27 28 29 29 30 30 30 28 31 27 25 24 23 30 30 32 34 33 36 37 37 38 39
54 53 53 54 61 58 49 38 28 31 26 26 26 29 26 29 30 31 30 27 29 31 28 27 27 27 28 29 27 29 30 26 22 21 23 27 27 27 33 37 37 37 38 38 38
54 54 58 57 60 53 45 34 34 33 25 25 27 27 28 28 29 28 28 27 29 30 28 29 28 30 28 28 31 31 23 28 27 27 23 26 27 29 31 31 31 32 36 37 37
52 51 49 57 56 49 43 38 38 32 31 26 25 28 26 25 28 30 31 32 33 31 32 31 26 28 27 32 31 23 27 28 27 19 18 22 27 28 31 31 31 34 35 37 38
52 38 44 58 47 41 37 39 36 33 36 28 30 26 28 27 28 31 32 33 35 34 31 35 29 27 32 29 28 29 28 29 28 26 21 20 22 30 33 33 34 35 36 37 38
49 39 53 43 27 40 38 40 35 32 35 35 36 36 30 33 36 36 35 36 39 39 29 34 30 25 27 29 30 29 30 30 24 26 26 24 23 30 32 34 36 36 36 37 38
45 47 53 41 25 30 41 37 34 33 33 34 35 37 37 34 34 38 37 41 37 36 35 33 28 25 28 32 30 27 29 35 31 26 23 20 21 33 35 34 36 36 37 38 38
48 38 43 47 43 39 38 36 36 37 36 36 34 36 35 35 39 37 38 40 37 35 41 39 34 26 26 26 27 22 25 32 30 25 25 25 24 33 35 36 37 37 38 37 36
49 39 37 33 36 41 40 37 36 34 36 35 33 36 34 33 36 37 38 38 37 38 38 36 30 31 28 30 28 26 26 26 25 28 25 26 28 35 35 36 37 38 37 36 35
46 43 42 33 36 39 39 37 35 36 35 35 34 38 37 34 35 35 36 36 35 36 39 39 29 29 27 34 34 27 27 28 27 25 25 32 33 36 36 38 37 36 35 35 35
50 49 43 41 35 37 37 36 37 37 37 38 39 38 37 40 40 39 40 41 39 37 36 34 29 26 25 32 30 22 27 30 28 32 28 25 34 36 36 37 36 35 34 34 34

GFSSW_sfc_dewp_009.txt.gz
Dewpoint
54 54 54 54 54 54 55 55 53 53 53 53 53 53 54 53 53 52 47 41 48 55 50 34 34 35 36 32 28 21 18 14 14 24 30 33 17 21 35 46 43 45 46 56 59
55 55 55 55 54 54 54 53 53 54 54 52 53 53 53 53 51 49 52 56 58 59 31 30 29 33 31 29 26 22 17 15 14 22 23 14 27 31 39 44 46 44 45 54 56
55 55 55 55 54 54 54 54 53 54 53 52 52 52 52 52 49 40 56 56 59 56 32 31 30 29 29 26 22 18 12 9 8 18 14 12 13 20 41 41 46 44 45 50 55
54 54 54 54 54 54 54 53 54 53 53 52 52 52 52 52 29 34 57 61 61 42 35 32 31 30 29 26 24 16 11 9 7 12 7 7 9 23 23 40 47 45 44 46 48
53 53 53 53 53 53 54 53 53 52 52 51 51 51 51 48 39 36 61 61 47 40 34 32 32 29 21 19 22 11 7 7 12 8 6 5 6 11 14 33 47 44 42 43 44
53 52 53 53 53 54 54 52 52 52 51 51 51 51 48 32 33 34 47 45 43 38 36 34 29 31 26 18 9 11 10 5 11 13 10 6 13 14 15 46 46 43 41 41 41
53 52 52 53 53 54 53 52 52 51 50 50 51 50 49 34 37 39 37 39 39 35 31 36 34 30 22 21 15 10 6 8 8 14 13 16 15 12 19 46 45 44 44 45 44
53 52 53 53 53 53 52 52 51 51 50 50 51 50 38 39 40 36 23 22 27 36 34 25 31 28 22 17 17 13 13 9 12 18 18 11 7 16 21 45 45 46 46 46 45
52 53 55 55 54 52 51 51 51 50 50 50 49 50 32 40 28 25 22 21 27 27 28 21 26 21 19 13 12 15 10 15 15 18 18 15 16 18 15 36 32 40 44 43 45
54 55 54 54 54 52 51 51 51 51 51 51 50 41 38 28 27 23 23 25 29 32 26 26 26 21 21 10 3 10 14 22 13 16 19 17 21 29 36 38 41 43 43 43 45
55 55 54 54 54 53 51 49 42 41 48 28 31 38 36 36 22 21 23 26 28 27 24 27 22 18 19 21 19 19 18 15 17 18 25 27 30 37 39 42 43 42 42 43 44
54 54 54 54 54 54 49 48 44 45 41 41 42 39 38 30 23 22 28 25 25 23 26 23 22 23 27 28 25 23 21 22 22 23 27 31 31 35 37 40 43 42 41 41 42
53 53 54 54 54 51 46 43 49 47 39 29 37 34 27 26 23 23 28 28 25 24 24 22 23 25 26 27 27 28 25 23 21 25 28 29 29 29 32 37 40 42 43 41 42
53 53 53 53 48 48 45 46 50 43 25 21 25 22 28 29 25 25 27 26 27 25 24 25 31 28 27 25 27 26 29 26 23 24 23 25 25 28 32 36 39 41 42 43 42
53 53 53 52 47 51 48 56 52 43 16 22 26 28 25 28 26 23 30 31 25 25 27 28 29 28 26 27 29 29 30 26 26 22 22 23 24 27 32 34 38 39 41 42 42
53 53 52 51 50 49 56 50 40 34 18 27 27 26 23 27 27 26 31 33 31 28 28 28 30 28 28 30 29 29 30 31 32 27 23 26 26 27 30 32 36 38 40 41 42
53 53 51 53 51 57 53 39 30 27 30 23 25 27 26 27 29 29 29 29 28 25 27 28 28 29 31 30 31 30 29 25 23 23 23 29 29 30 31 33 36 37 38 40 41
53 53 52 51 58 55 44 33 27 30 28 26 27 28 26 29 30 30 29 26 29 30 28 26 25 27 27 28 27 29 29 26 20 21 22 27 26 28 33 36 37 38 38 39 43
53 51 55 57 58 50 42 31 32 32 25 26 28 27 28 29 28 29 29 26 29 30 28 27 27 29 27 28 31 29 24 28 27 26 23 26 27 29 33 36 35 36 38 38 38
52 49 48 56 50 47 41 37 39 37 30 27 26 28 25 26 28 30 30 32 32 32 32 30 23 28 26 31 30 26 29 26 26 18 18 23 26 27 29 32 32 34 37 38 38
47 35 39 53 41 37 33 37 41 31 35 27 26 27 27 26 29 31 32 34 37 35 32 34 25 25 30 28 27 28 27 28 28 25 20 19 25 29 31 32 34 36 37 37 38
44 30 49 39 29 39 35 40 39 31 34 35 35 32 29 34 35 34 34 36 38 38 29 34 29 25 26 29 31 28 29 27 21 24 25 22 22 31 34 35 36 36 37 38 38
42 48 53 37 27 29 36 40 35 32 32 34 34 36 36 36 33 37 37 39 35 35 33 32 27 25 28 30 29 27 31 32 28 26 26 18 19 33 34 35 36 37 38 38 37
43 39 42 44 36 29 33 35 34 36 36 35 34 36 35 36 38 36 37 39 36 34 41 38 32 25 24 25 26 21 25 30 27 23 23 23 23 33 34 35 36 37 37 36 36
45 36 38 34 37 43 38 37 34 32 35 34 33 35 34 33 35 36 38 36 35 39 39 34 27 30 29 30 28 26 24 29 28 27 25 25 26 31 35 36 37 37 36 35 34
47 39 40 31 34 39 39 37 34 35 34 34 33 38 36 33 33 35 34 33 32 38 39 34 29 28 27 32 32 25 25 25 25 25 28 30 32 36 36 38 37 36 35 34 33
48 49 40 38 36 36 36 37 36 36 38 38 38 36 34 38 39 40 40 39 38 37 34 31 29 21 17 29 27 17 24 28 27 30 29 29 32 36 37 37 36 35 35 34 33

GFSSW_sfc_dewp_012.txt.gz
Dewpoint
55 55 55 55 55 55 55 53 54 53 52 52 52 53 53 53 52 52 47 42 47 55 48 33 31 34 35 32 28 21 17 14 27 33 33 35 24 31 42 46 45 45 52 59 65
55 55 55 56 56 55 55 53 54 52 52 52 52 52 52 52 50 49 52 57 57 56 30 30 30 34 31 30 27 22 19 16 18 30 36 38 27 35 44 45 45 47 58 63 64
55 55 54 55 55 55 55 55 54 53 52 52 52 52 52 52 47 38 55 57 59 53 31 30 30 30 29 27 24 20 18 13 12 30 32 19 31 29 43 42 45 50 57 60 62
54 54 54 53 54 55 54 54 53 52 52 52 51 51 52 50 27 33 60 59 60 45 32 30 30 30 28 25 25 17 16 11 8 22 16 20 16 37 34 38 46 54 57 57 59
53 53 53 53 53 53 54 54 52 52 52 51 51 51 50 47 40 46 62 61 51 36 32 31 29 27 25 26 20 17 12 10 10 10 9 8 13 32 21 40 45 52 54 54 55
53 53 53 52 53 53 53 53 52 51 51 50 50 51 47 35 32 46 52 46 41 36 34 31 30 30 28 19 17 18 8 8 13 7 5 6 11 13 21 46 44 48 50 51 52
53 52 52 53 53 52 54 52 51 51 50 50 50 50 49 36 34 40 43 41 41 37 34 35 32 28 27 24 17 10 4 8 9 14 12 16 12 12 33 45 43 43 46 44 43
54 52 52 53 52 52 52 52 51 51 50 50 50 50 42 38 41 39 32 24 38 37 33 33 35 31 27 23 18 12 12 9 10 16 18 7 4 16 42 45 44 45 45 45 46
53 52 52 53 53 52 52 51 51 50 50 50 50 49 33 38 33 27 25 23 26 34 34 28 31 23 17 15 12 14 9 12 14 18 17 12 17 29 30 44 41 42 42 45 46
53 53 54 54 54 52 51 51 50 51 50 50 50 41 34 25 32 22 23 26 29 30 30 27 25 20 20 9 8 8 11 21 12 22 25 21 35 38 40 40 42 42 44 46 46
54 55 54 54 54 52 50 49 43 42 48 28 30 31 34 32 30 21 22 26 28 27 24 26 21 18 19 18 12 15 14 14 16 21 32 34 36 37 42 42 42 42 43 43 44
54 54 54 54 54 52 50 47 41 43 41 43 41 39 39 36 26 21 28 25 25 23 26 23 21 23 27 27 24 22 20 20 23 28 33 34 31 34 36 40 42 42 43 43 43
54 54 54 54 54 52 49 43 48 46 39 32 39 36 32 31 23 22 27 28 24 22 23 22 23 27 28 27 26 27 22 22 22 31 32 31 31 32 36 41 42 42 42 42 43
53 53 53 53 50 48 44 43 51 43 24 23 24 23 27 27 24 25 27 26 27 23 26 28 30 27 25 25 27 24 28 25 27 26 25 28 28 30 35 38 40 41 41 42 41
53 53 53 51 46 51 48 56 52 39 16 21 24 27 25 27 22 24 33 28 25 26 27 28 28 27 25 26 28 28 29 26 24 23 22 25 27 27 35 37 39 40 41 42 41
53 53 52 51 49 48 53 45 38 33 18 24 26 23 24 27 27 28 31 32 30 29 29 28 30 28 27 30 28 30 30 30 30 27 21 24 25 26 32 35 38 39 41 42 41
53 53 52 51 50 56 50 36 29 26 29 23 23 25 25 27 29 29 29 29 26 25 27 27 28 28 30 28 30 31 27 24 23 22 22 28 27 27 32 35 38 39 40 41 42
53 53 52 51 54 53 39 30 25 29 27 25 26 26 26 29 29 29 27 26 28 28 27 26 23 26 27 28 26 28 28 25 19 21 23 27 26 28 32 34 38 39 39 40 41
52 51 52 56 53 48 35 26 28 30 27 26 27 25 27 28 28 29 28 26 29 29 27 26 25 28 27 28 30 28 24 28 27 25 23 26 27 31 36 36 37 37 38 40 40
51 51 49 55 51 44 36 32 37 38 30 28 24 27 25 27 28 28 29 32 31 33 32 30 22 28 26 31 30 27 29 24 25 17 17 23 26 27 32 34 36 36 37 38 39
43 37 40 51 40 35 29 33 40 40 34 27 27 27 27 26 29 30 30 34 36 35 34 30 25 24 29 27 27 28 27 28 27 24 18 18 23 29 32 35 33 35 37 38 38
39 31 46 39 30 36 32 39 41 31 35 35 32 30 28 34 33 33 32 33 36 37 29 33 29 25 25 29 32 28 28 25 20 19 24 21 20 29 32 33 36 37 37 37 37
41 48 52 38 26 28 33 38 38 31 33 33 33 35 37 35 32 35 36 37 33 34 31 30 27 25 25 26 27 27 32 29 27 27 25 19 20 33 35 35 36 37 37 37 37
44 41 43 40 36 29 30 32 33 36 35 34 35 36 36 36 37 35 36 37 35 36 42 36 30 24 22 23 26 23 28 28 25 22 23 23 20 32 33 35 36 37 37 36 35
41 39 41 35 37 33 32 35 33 33 34 34 33 34 34 33 34 35 36 34 35 40 39 31 26 28 30 30 28 25 23 29 25 25 22 23 23 25 33 35 36 37 36 35 34
45 37 35 35 41 39 37 35 33 34 34 32 32 37 34 32 32 34 34 31 27 39 36 32 26 26 28 31 30 26 24 25 27 26 28 28 27 32 36 37 37 36 36 35 34
48 46 37 36 36 37 37 37 36 36 38 38 36 35 33 37 39 39 38 37 37 36 32 27 27 20 13 27 23 16 22 24 25 26 26 26 27 36 36 37 37 36 35 35 34

GFSSW_sfc_dewp_015.txt.gz
Dewpoint
54 54 55 55 55 55 55 54 53 53 53 53 52 52 52 52 52 51 46 41 47 57 50 33 30 33 34 32 27 22 19 27 32 34 39 41 34 37 45 46 46 47 56 60 65
54 55 54 54 54 56 55 54 55 54 54 52 52 52 52 52 49 47 50 56 57 58 30 28 27 34 31 31 28 23 21 19 27 37 38 38 35 39 45 45 45 57 62 63 64
54 55 55 54 55 55 55 55 55 54 53 52 52 51 51 51 47 37 56 57 58 53 30 31 32 32 30 28 26 23 22 20 16 36 37 35 31 38 44 44 44 54 59 61 62
54 54 54 53 53 54 53 54 55 54 52 52 51 51 51 49 27 31 62 59 59 40 32 31 30 29 29 26 25 18 20 12 10 33 35 32 28 41 44 41 46 57 61 61 60
54 53 53 53 53 53 52 54 53 52 52 51 51 50 50 46 41 47 61 60 53 36 32 31 29 29 28 28 24 21 19 12 10 23 24 21 27 38 35 45 52 59 61 61 62
54 53 53 52 53 52 53 52 53 52 52 51 50 50 47 35 34 52 54 50 42 34 33 31 28 28 27 23 23 22 9 9 12 11 9 17 13 24 30 46 54 57 58 59 58
53 53 53 52 52 52 52 52 52 52 51 50 49 49 49 39 34 50 44 43 40 35 34 34 32 30 30 23 18 11 9 10 14 11 10 16 13 17 38 45 51 55 54 54 53
53 53 52 52 52 52 52 52 52 51 50 49 50 49 44 41 43 40 38 34 40 37 34 36 34 31 29 22 19 12 16 10 11 17 17 10 9 31 37 44 45 48 47 48 47
53 53 53 52 52 52 52 52 52 50 49 50 49 49 39 39 32 31 28 27 36 37 37 34 35 32 19 17 15 18 11 13 14 23 17 17 21 37 39 44 43 43 45 45 48
52 52 52 52 53 52 50 51 50 50 49 49 50 44 36 26 34 25 26 30 36 34 31 30 26 23 19 14 10 13 12 13 15 21 30 32 35 40 42 43 44 44 46 47 46
53 52 54 54 54 52 50 48 44 44 49 35 34 32 30 34 30 23 26 30 32 31 28 28 23 19 21 17 12 14 14 13 19 29 35 36 37 38 42 42 43 44 45 46 46
53 54 54 54 54 51 50 47 40 44 43 44 42 40 39 37 29 22 31 29 34 25 26 26 24 24 27 27 23 22 22 24 28 32 35 35 36 39 40 41 42 44 45 46 47
54 54 54 54 53 50 48 48 47 48 43 36 42 38 33 34 27 21 31 31 24 24 25 26 24 28 28 27 28 27 24 23 27 33 34 33 33 38 40 42 43 44 44 46 48
53 53 53 53 50 50 47 48 49 49 29 26 26 26 28 28 29 26 30 29 28 25 30 30 30 27 26 26 27 26 27 29 31 28 25 28 19 34 39 41 42 43 44 45 45
53 53 53 52 49 47 48 57 50 43 24 25 25 27 28 25 25 27 34 30 27 27 28 29 30 27 28 27 30 28 30 28 25 24 24 27 25 29 39 39 41 42 43 43 42
53 53 53 51 50 50 53 49 44 35 24 25 27 25 27 28 29 30 32 34 32 31 31 29 29 29 28 31 30 33 31 31 30 27 23 24 24 26 35 38 40 41 42 42 41
53 53 52 51 49 58 53 41 33 30 31 24 25 26 28 30 30 30 30 31 28 29 29 28 28 28 31 29 31 30 29 27 27 28 24 28 27 27 32 37 40 41 41 42 42
52 52 52 52 53 52 43 34 26 29 29 26 27 28 27 30 30 28 28 28 30 29 28 24 21 25 28 28 28 29 29 30 22 25 24 27 27 27 32 34 39 40 41 42 42
52 51 51 54 53 51 38 31 27 30 28 26 27 28 30 29 29 30 29 27 29 30 28 29 26 27 28 29 30 28 25 30 28 26 25 25 28 30 34 34 38 39 40 41 42
50 49 50 56 54 45 37 30 32 36 33 29 25 30 28 28 29 29 29 33 31 34 33 32 26 28 28 30 31 28 29 26 27 22 18 20 25 25 33 33 37 38 39 41 41
49 46 46 51 44 39 33 30 39 41 36 28 28 29 29 29 30 30 29 34 36 34 34 29 30 28 29 28 28 29 28 29 27 26 19 18 19 31 33 35 36 38 39 41 41
43 36 48 44 35 36 34 37 41 38 36 36 32 32 31 34 33 32 32 33 36 38 32 32 32 30 25 29 32 29 28 27 26 21 25 26 21 28 34 35 37 37 39 40 40
39 48 53 43 31 34 34 38 40 34 35 35 36 37 38 36 33 35 36 38 36 35 34 33 31 29 26 26 28 28 31 28 28 30 27 32 21 31 35 35 35 37 38 39 39
46 43 46 40 36 32 32 34 35 37 37 36 36 38 38 37 38 36 36 37 39 38 42 37 30 29 26 23 27 26 30 27 27 28 25 28 24 25 33 35 36 37 38 38 37
43 41 45 38 35 32 32 34 34 34 37 36 36 36 36 35 35 36 36 34 37 41 39 33 30 29 30 30 28 25 26 28 24 26 27 25 24 25 30 35 36 38 37 36 35
40 39 37 38 39 34 34 36 34 35 37 35 35 38 38 35 34 35 35 32 31 39 35 32 30 28 30 30 29 27 26 26 28 28 26 27 27 29 33 36 37 37 36 35 35
48 44 39 35 39 35 36 35 35 38 40 39 37 37 36 39 39 38 38 38 37 37 33 30 31 25 21 26 23 24 25 25 26 28 29 28 28 35 35 36 37 37 37 36 36

GFSSW_sfc_dewp_018.txt.gz
Dewpoint
55 56 56 56 56 56 56 55 55 55 54 54 53 53 52 52 52 48 42 39 44 58 53 37 34 30 30 24 27 24 14 18 29 33 38 36 35 41 42 44 48 49 52 58 63
54 54 55 56 56 55 55 55 55 55 54 53 52 52 52 52 48 43 47 55 56 58 30 26 25 27 22 23 26 22 17 17 31 35 37 37 34 34 43 45 46 53 58 61 63
54 55 55 55 55 55 54 54 54 54 54 53 52 51 53 51 44 30 57 57 58 54 26 24 23 27 21 24 25 23 17 18 32 36 31 31 33 33 38 43 45 52 59 61 61
55 55 54 54 54 54 55 54 54 54 54 52 52 51 52 49 26 29 62 59 59 42 28 27 28 25 19 21 23 21 21 16 29 36 30 28 31 34 39 39 45 53 59 61 61
54 54 54 54 54 54 53 53 54 54 53 51 51 51 50 43 31 48 60 58 44 32 28 26 25 22 17 21 23 22 19 17 15 28 32 31 29 35 38 41 50 55 57 59 58
54 54 53 54 53 53 53 53 53 53 52 51 51 51 47 33 31 47 47 42 34 32 31 29 24 25 24 25 23 21 16 11 12 27 28 27 27 34 34 47 52 55 55 56 57
55 54 54 54 53 53 54 53 53 53 51 50 50 48 47 34 32 45 42 36 34 32 32 31 28 24 26 25 21 16 12 12 12 22 23 25 21 23 38 46 49 50 52 54 54
55 54 54 53 53 52 53 53 53 51 51 50 50 49 41 37 37 41 38 36 38 34 32 33 34 30 28 22 14 11 13 10 15 18 14 19 17 28 40 44 46 49 52 53 51
54 54 52 52 52 52 52 52 51 50 49 50 50 49 34 41 30 28 33 27 35 37 35 32 33 30 26 23 12 13 5 8 15 22 16 13 14 31 41 43 45 48 48 49 48
54 53 53 53 52 53 51 51 50 50 50 49 49 47 39 24 31 28 29 31 30 35 33 32 28 24 19 15 8 10 11 7 10 23 12 16 27 31 41 42 43 44 46 47 48
53 52 53 54 54 52 50 49 47 46 48 35 29 32 24 30 31 22 22 29 29 30 26 28 21 16 17 15 12 10 11 11 17 30 28 26 27 31 38 42 44 44 45 46 47
53 53 54 54 54 52 50 45 41 48 39 41 39 37 34 33 27 21 27 26 27 22 24 25 20 23 26 20 17 16 14 20 25 31 30 29 31 35 36 40 43 44 45 46 48
53 54 54 54 52 50 48 45 48 46 43 37 40 33 31 33 23 17 24 25 22 21 23 21 25 27 25 23 21 22 20 25 21 29 30 29 28 34 38 39 41 44 45 46 48
54 53 53 52 48 49 46 44 46 50 32 24 26 29 29 29 21 26 30 26 26 23 26 27 28 25 25 25 26 22 25 26 28 24 18 28 14 32 36 38 41 43 45 47 49
53 53 53 51 50 45 49 54 54 49 22 23 22 26 27 23 21 28 33 28 23 25 29 27 26 25 24 26 28 26 29 28 26 24 25 25 19 29 37 36 40 44 46 49 51
53 53 53 51 52 51 52 55 51 38 21 21 23 24 25 25 26 29 30 31 31 29 28 28 29 28 28 30 29 31 30 28 27 26 23 21 22 17 32 34 39 43 45 47 46
53 53 53 51 45 58 60 50 35 30 27 20 21 23 22 23 27 28 28 28 25 26 27 26 27 28 30 29 32 30 26 23 24 25 23 27 23 20 27 35 39 42 42 44 43
52 53 53 52 53 56 51 36 26 22 22 23 22 25 24 25 28 29 29 26 30 27 24 20 25 24 29 29 25 28 26 24 16 21 18 27 20 21 31 33 39 41 40 42 41
52 52 50 53 55 54 42 39 27 27 26 23 23 22 25 27 24 28 29 26 29 30 21 24 22 27 29 30 30 28 26 30 28 30 28 18 24 28 33 33 37 39 39 40 40
50 49 48 55 57 50 42 32 26 33 31 25 19 23 23 25 23 25 29 31 30 33 34 30 26 27 29 30 31 29 29 27 28 23 17 15 18 16 31 33 36 38 39 39 39
49 43 54 60 55 46 39 32 31 40 37 27 22 24 23 27 25 23 24 32 33 32 33 30 28 29 30 28 26 28 27 26 26 28 16 13 10 28 29 33 36 38 39 40 41
48 39 56 54 43 39 34 31 40 37 38 32 31 29 28 30 29 27 26 30 36 34 30 32 32 32 28 30 32 29 27 24 22 21 29 30 15 28 34 34 35 37 38 40 42
42 47 52 47 38 44 35 32 38 33 32 34 31 32 35 34 32 34 34 35 35 34 34 34 32 30 27 29 30 29 29 26 29 32 26 32 16 28 33 34 35 37 38 40 42
43 46 48 41 38 35 32 32 30 37 34 35 36 38 37 35 37 36 36 35 37 36 41 37 32 30 28 23 27 28 29 27 25 26 21 25 13 22 26 30 32 36 38 40 41
46 42 43 44 37 35 34 31 29 33 35 36 35 35 34 36 35 36 36 34 37 40 39 35 31 30 27 28 27 25 26 27 23 24 25 17 18 14 21 25 29 36 38 39 39
43 43 43 39 36 33 33 31 27 34 35 33 35 36 37 37 33 36 35 33 32 38 36 34 33 31 30 30 28 26 25 25 25 24 25 22 23 23 26 30 33 36 37 37 38
50 45 40 40 35 34 32 31 30 39 40 37 37 38 38 38 40 39 39 37 35 37 37 35 35 29 23 27 27 32 28 24 24 27 27 26 25 27 30 32 32 36 37 37 37

GFSSW_sfc_dewp_021.txt.gz
Dewpoint
55 55 55 57 57 56 56 56 55 55 55 55 54 53 53 53 52 48 43 38 43 57 53 33 30 31 24 19 17 19 15 10 19 35 38 38 37 39 38 39 44 48 49 55 61
56 55 54 56 55 55 56 55 55 55 55 55 54 53 53 52 48 42 46 57 55 59 34 27 27 24 19 18 17 14 12 12 30 39 42 33 33 33 37 35 41 49 54 59 61
56 55 54 55 55 54 55 55 54 54 55 54 53 53 53 51 44 31 59 58 57 56 29 23 21 20 19 17 18 16 17 18 24 37 37 37 34 32 38 38 41 47 52 57 59
56 55 55 54 54 54 55 54 54 54 54 53 52 52 52 49 32 38 60 59 57 41 29 21 19 20 19 16 17 17 17 17 25 32 28 27 30 32 44 49 40 48 55 58 56
57 55 54 54 54 55 54 54 54 54 53 52 51 51 50 44 36 49 60 58 41 38 28 20 22 21 16 15 16 19 18 20 28 29 24 27 28 38 40 37 43 51 55 55 55
56 56 55 54 53 54 54 53 54 53 52 51 50 51 48 37 29 41 37 36 32 32 24 21 20 18 17 18 20 21 19 16 21 27 34 26 25 36 35 39 46 51 51 48 49
56 55 54 54 54 53 53 54 53 53 51 50 49 47 45 37 30 40 34 29 29 27 25 26 26 24 24 24 24 19 15 13 17 26 28 25 19 24 37 39 43 44 45 46 46
56 55 53 54 53 53 52 53 52 51 50 50 50 48 41 35 33 36 38 34 34 32 30 32 31 29 27 26 19 16 17 14 15 24 26 26 17 27 36 37 39 40 43 45 47
56 55 53 53 53 52 53 52 50 50 49 50 50 48 36 40 28 27 33 29 34 34 32 31 33 30 28 26 16 17 11 15 15 20 23 23 18 25 35 35 37 41 44 46 46
55 54 53 53 53 53 52 50 51 50 49 48 46 46 43 25 27 25 28 30 32 34 33 31 30 28 25 21 12 12 10 8 13 19 21 12 18 22 32 33 38 40 43 45 45
55 54 53 53 54 53 50 48 45 46 46 38 34 31 24 27 28 25 24 28 32 32 28 30 24 22 19 21 15 13 12 6 11 17 13 12 18 23 30 33 36 37 40 43 46
55 53 53 54 54 52 51 42 42 48 42 39 34 31 31 29 24 20 21 26 28 24 25 25 22 21 17 16 13 11 10 14 15 19 22 15 17 23 28 31 34 36 38 41 44
54 53 54 54 53 51 48 43 46 47 44 34 32 30 26 30 21 19 21 24 24 25 24 24 24 26 20 16 14 15 13 19 17 21 22 19 20 28 31 33 37 39 39 41 43
54 54 53 52 49 48 45 43 45 47 37 26 29 29 29 28 22 22 21 24 22 22 23 33 28 23 17 18 18 18 23 19 21 22 16 20 13 23 31 33 36 39 41 43 44
54 54 53 51 53 44 49 52 49 54 29 23 22 28 25 22 19 24 27 24 22 23 23 23 24 21 19 23 25 29 26 25 22 21 22 20 15 32 32 30 33 37 40 42 46
54 53 53 51 51 51 52 57 55 44 25 21 22 22 24 21 18 22 21 25 27 22 24 35 28 26 26 27 26 27 27 26 24 19 21 15 17 22 28 28 33 39 42 46 49
53 53 53 51 46 54 58 54 41 32 22 17 19 21 19 18 18 21 21 19 18 21 22 25 23 27 28 26 28 24 24 22 21 23 22 20 19 18 16 30 31 39 43 47 47
53 53 53 51 51 57 57 45 33 22 20 17 17 18 18 18 18 18 18 16 19 23 21 20 23 24 27 27 22 25 22 23 15 18 18 23 15 14 28 26 31 39 43 46 44
52 53 51 53 55 56 49 42 32 18 20 19 18 18 20 19 19 19 19 16 20 22 21 20 21 25 26 27 24 23 24 26 25 28 25 14 11 22 30 30 33 38 41 43 41
49 50 47 54 56 55 45 36 29 26 24 20 18 20 21 21 19 18 22 24 26 30 31 23 22 24 28 28 29 28 26 24 22 19 17 10 12 11 27 28 33 37 40 41 40
49 44 47 55 54 48 39 35 28 30 30 24 19 19 21 21 20 19 20 27 29 30 31 23 23 28 29 27 21 27 24 24 24 28 22 15 13 21 18 27 31 35 39 40 40
48 40 55 58 40 43 39 33 30 31 37 29 29 22 22 23 24 21 19 21 30 31 26 27 25 29 25 29 29 28 26 26 28 22 26 30 17 22 26 28 32 34 37 39 40
46 46 58 53 41 48 38 32 29 32 32 32 26 26 25 24 24 24 24 37 36 34 28 33 26 27 25 28 29 25 24 25 24 31 23 29 19 23 26 26 28 31 35 38 40
43 43 50 50 43 41 37 31 30 34 31 30 26 30 31 30 31 31 32 35 38 34 40 37 29 27 26 25 25 28 24 24 26 28 26 24 16 17 21 22 23 29 32 36 38
43 40 43 44 42 42 36 32 28 30 34 34 33 30 29 30 32 32 34 35 37 40 36 36 31 29 26 27 25 23 21 23 22 23 26 21 13 11 14 17 21 24 30 32 37
41 38 40 42 42 38 36 32 26 29 33 33 31 29 29 31 32 29 34 35 34 38 37 35 33 33 32 28 27 24 22 19 19 20 18 17 17 18 21 20 24 25 30 32 35
49 45 42 44 42 37 37 31 28 34 40 34 32 33 34 37 40 40 39 37 35 38 38 37 39 32 23 26 27 31 30 24 19 20 22 24 22 20 24 25 26 26 30 33 35

GFSSW_sfc_dewp_024.txt.gz
Dewpoint
58 57 57 55 55 55 55 56 55 55 56 55 55 54 54 54 53 47 42 41 44 58 52 34 31 26 27 23 19 13 11 13 13 16 41 47 48 45 41 44 49 53 51 60 62
56 56 55 56 55 54 54 56 55 55 55 55 54 54 54 54 48 42 46 58 56 60 34 30 26 24 25 19 17 13 15 13 25 39 45 45 45 42 36 37 45 49 57 59 61
56 56 55 55 55 55 54 55 55 55 55 54 54 54 54 52 45 34 59 57 57 54 30 27 25 23 19 18 16 15 14 15 29 43 44 42 38 35 42 42 45 51 53 56 58
57 56 56 55 55 55 55 54 54 54 54 54 53 52 53 49 34 37 61 58 58 38 32 31 21 19 18 17 15 14 13 16 28 44 44 46 39 39 43 45 49 51 52 54 56
57 57 56 54 54 54 55 54 54 54 53 53 52 52 50 45 38 47 61 57 38 35 33 25 19 18 18 16 15 14 18 17 29 31 41 41 40 41 39 46 47 50 53 52 53
57 56 56 55 54 53 54 54 54 54 53 52 51 51 49 37 30 40 43 42 28 31 29 19 19 19 18 16 14 17 20 17 27 31 27 33 37 41 43 43 46 50 49 50 48
57 56 56 55 54 52 53 53 54 54 52 51 50 48 44 35 33 36 31 27 29 31 24 22 23 22 22 23 23 23 18 17 19 28 26 34 32 34 39 42 43 43 43 44 45
57 56 55 54 53 53 52 52 53 52 51 50 50 48 41 36 34 33 34 32 31 28 27 30 31 29 27 29 21 19 20 18 17 25 30 28 24 25 36 38 39 41 42 42 42
56 56 55 53 52 52 52 53 53 51 51 50 50 49 38 41 31 28 31 32 30 32 33 29 31 31 29 26 21 25 18 17 15 23 28 27 27 24 30 37 37 38 40 42 44
56 55 54 53 52 53 53 52 52 50 50 47 45 42 43 30 23 25 27 28 32 33 31 31 29 27 27 22 19 20 16 16 14 13 23 21 22 23 26 34 37 38 40 44 44
56 55 54 53 53 53 51 49 46 47 46 36 34 32 25 25 26 26 25 28 31 32 30 30 27 23 27 26 20 18 18 13 11 16 17 17 17 18 25 30 36 39 41 43 45
55 55 54 53 54 54 51 46 43 47 43 41 27 32 31 29 24 22 23 27 31 29 34 25 25 25 25 23 20 16 16 12 11 14 16 11 12 18 23 29 33 36 40 43 44
55 54 53 54 54 51 48 43 44 46 43 33 32 27 29 27 23 20 20 23 28 25 28 29 31 34 24 19 17 16 18 20 13 11 8 25 11 18 20 26 30 34 36 39 42
54 54 54 53 49 49 46 45 46 50 39 28 28 28 27 27 22 21 19 31 31 25 37 34 31 30 21 20 16 21 27 22 23 19 15 24 22 34 34 25 27 32 36 38 40
54 53 53 52 53 45 50 47 52 54 32 25 25 26 25 23 18 20 21 27 25 26 32 35 23 22 21 27 27 28 27 27 21 18 29 28 25 29 34 32 31 36 40 41 43
54 54 53 52 51 51 53 57 55 44 30 22 22 22 20 20 17 18 22 22 31 29 23 24 26 29 31 27 26 29 27 26 20 21 30 23 29 25 29 32 39 34 38 41 44
53 54 52 50 47 52 55 55 40 32 22 19 19 19 20 18 17 17 21 20 18 22 22 25 20 23 30 20 23 20 20 23 28 30 29 18 18 28 30 39 45 46 38 42 47
53 53 53 50 51 56 57 50 33 25 24 14 16 18 18 15 16 17 20 17 17 17 18 20 27 21 22 22 34 33 19 28 28 29 24 22 18 17 29 31 36 39 42 46 48
52 53 51 53 55 56 53 43 33 27 21 20 15 17 17 15 15 17 18 16 15 16 29 32 27 31 25 23 22 21 22 23 28 33 29 17 11 15 26 27 27 40 42 46 46
49 49 48 54 56 54 50 40 33 28 23 18 15 16 17 16 17 17 16 18 18 26 35 41 36 35 26 25 25 23 21 26 25 24 21 14 12 17 27 25 29 36 41 44 45
48 44 48 55 55 49 43 40 36 29 25 23 17 16 18 20 16 17 15 16 27 27 28 25 31 26 28 25 16 26 24 21 19 31 31 27 17 22 21 24 30 35 41 43 44
47 39 53 57 41 38 41 37 35 32 27 29 26 20 20 23 21 18 17 20 24 25 25 25 26 34 22 24 26 25 27 23 37 28 35 36 24 23 26 24 31 32 35 42 43
42 45 56 53 35 41 41 37 33 31 29 31 28 26 22 23 22 22 22 37 36 31 30 31 29 30 22 25 27 25 23 21 27 38 33 34 27 23 23 22 26 31 34 39 41
41 42 52 53 38 39 40 35 32 33 27 29 28 26 24 23 24 24 26 36 37 34 41 41 28 25 29 23 27 29 25 21 23 36 34 29 19 18 21 23 23 29 32 34 40
45 41 46 45 43 40 41 35 31 29 28 30 28 23 28 29 26 29 29 36 37 39 35 34 30 27 24 23 25 27 23 21 20 24 27 27 20 18 18 22 23 26 30 30 30
42 40 45 41 42 41 41 38 31 27 30 31 31 26 30 30 29 29 29 36 34 38 35 35 36 37 36 29 27 26 24 23 19 18 19 18 19 19 21 25 26 26 24 30 30
46 49 44 42 41 41 41 38 34 33 33 30 31 31 31 34 37 40 41 39 35 39 38 39 43 38 33 27 27 28 31 24 21 20 21 23 25 23 21 21 28 30 29 31 32

GFSSW_sfc_dewp_027.txt.gz
Dewpoint
58 58 57 57 56 54 54 54 54 56 55 55 56 55 54 55 54 48 46 46 46 55 55 38 33 30 28 25 26 22 14 9 9 33 41 46 44 50 51 46 47 54 58 62 61
58 57 57 57 56 55 54 54 53 55 55 55 55 55 55 54 49 46 49 55 57 59 37 33 30 28 23 24 23 18 13 13 34 42 42 45 44 46 48 44 51 54 60 61 58
58 57 57 57 56 56 54 54 53 55 55 55 55 55 54 52 47 41 60 56 59 57 33 30 29 25 23 24 20 16 14 14 38 43 45 43 42 43 43 43 49 50 55 58 59
58 57 57 56 56 55 53 53 54 54 55 55 54 54 53 50 33 38 60 60 59 41 35 30 31 24 20 17 18 16 16 15 41 43 41 46 48 39 41 46 50 50 52 57 59
57 57 57 56 55 55 53 52 53 54 55 54 53 52 50 47 45 52 59 58 41 35 31 31 31 22 18 18 18 17 16 19 39 43 46 46 43 41 38 45 52 55 55 56 57
56 56 56 56 56 55 54 52 53 54 54 54 53 52 49 41 43 53 46 42 32 32 34 34 25 21 20 21 23 18 17 22 32 42 43 43 43 41 42 43 47 52 54 55 56
57 56 56 56 55 54 54 52 52 54 54 53 52 48 46 40 37 39 42 36 28 31 30 31 27 30 29 28 29 24 19 19 25 32 37 37 38 37 42 44 44 48 50 50 48
57 56 55 55 54 53 53 52 53 54 54 53 52 48 45 44 41 37 32 29 29 31 31 29 34 33 32 29 28 21 21 19 19 30 33 27 25 40 42 43 43 43 43 44 44
56 56 55 54 53 53 53 53 53 54 53 52 49 48 45 46 36 33 33 34 33 33 35 30 32 33 31 28 26 23 18 20 19 25 27 26 25 40 43 43 42 42 41 41 42
56 55 55 54 53 52 53 53 53 52 51 48 46 43 43 37 32 30 29 31 34 38 36 35 30 29 28 27 19 18 19 18 18 23 27 25 23 26 36 38 40 40 41 43 42
56 55 55 54 53 52 51 50 47 47 46 42 38 37 31 32 27 28 29 31 34 36 35 34 28 27 28 28 26 24 21 18 15 17 26 25 22 24 26 38 40 44 46 43 43
55 55 54 53 53 52 50 48 45 45 43 45 40 37 31 34 29 26 27 29 33 32 35 32 27 29 30 27 28 25 23 20 16 18 19 19 18 22 25 30 42 40 42 44 45
55 55 54 52 53 52 49 47 45 46 44 41 41 38 29 31 29 27 25 27 30 31 32 32 32 33 27 29 29 27 27 23 20 14 11 21 21 27 26 28 37 42 42 43 44
55 54 53 53 49 50 49 49 48 47 41 35 36 33 29 30 29 27 24 32 33 32 37 35 34 30 29 29 24 20 27 27 23 23 13 24 20 32 32 28 30 34 38 43 44
54 54 53 52 51 50 50 53 47 51 32 32 30 31 29 29 29 22 31 34 28 34 34 33 34 30 30 30 27 27 29 28 30 26 27 27 23 27 32 24 31 36 38 39 46
54 53 53 52 51 50 50 50 55 42 31 30 29 26 26 27 26 21 23 29 33 33 33 32 30 33 30 30 27 29 29 31 31 28 25 24 26 28 32 29 36 39 37 39 43
54 53 53 51 47 52 50 52 41 32 30 24 23 26 25 23 22 20 23 23 26 26 27 23 24 31 33 29 31 30 27 25 25 26 27 30 27 29 33 33 36 35 34 40 47
54 53 53 50 52 53 55 48 36 31 29 26 24 24 21 22 21 21 22 21 22 23 25 25 26 32 33 28 28 26 28 29 25 28 27 30 26 25 30 33 35 37 39 42 47
53 52 51 50 51 52 52 41 35 34 26 28 19 21 20 20 18 20 23 22 21 20 25 30 30 36 35 32 29 26 24 31 33 34 31 26 16 27 32 36 40 40 41 46 48
51 50 48 51 54 51 47 39 40 35 30 27 23 21 20 20 19 19 20 21 22 32 38 38 31 37 37 34 29 26 28 26 29 21 20 18 19 28 29 30 37 40 45 46 46
51 46 47 51 53 49 38 40 40 38 33 31 25 22 21 23 19 22 21 19 24 35 38 38 36 36 36 33 26 27 25 25 25 29 24 23 22 23 24 30 33 41 45 46 45
50 41 49 53 43 42 39 40 40 36 38 34 34 32 25 27 25 20 21 33 30 32 29 38 35 32 31 29 28 26 28 32 26 21 29 27 24 24 22 27 30 31 42 45 44
46 45 51 47 33 37 36 40 41 38 37 34 34 35 33 30 31 25 37 40 39 36 32 36 28 25 23 26 30 27 26 26 33 32 25 22 24 23 22 21 25 28 32 43 44
46 41 49 49 35 34 33 36 39 40 38 35 33 34 32 28 28 30 37 40 40 39 40 39 31 27 23 25 28 29 32 30 27 27 27 27 27 24 23 23 24 26 28 38 42
46 39 45 41 42 35 36 36 38 37 37 35 33 32 31 26 31 29 38 39 41 40 37 35 28 30 32 33 30 28 30 28 24 28 26 27 27 26 24 23 24 28 30 28 31
44 38 47 44 42 41 36 37 37 35 34 32 33 32 30 30 33 30 36 37 36 39 35 35 33 33 31 31 28 26 27 26 25 25 23 24 24 23 25 25 25 26 25 28 30
45 47 43 43 42 39 35 37 38 37 37 32 36 35 33 38 39 41 40 40 39 38 36 35 33 30 27 28 24 19 21 25 27 27 25 21 24 28 28 29 28 29 30 30 31

GFSSW_sfc_dewp_030.txt.gz
Dewpoint
58 58 58 58 57 56 56 54 53 53 54 55 55 56 55 55 54 48 45 42 46 56 53 38 35 32 29 27 27 20 18 15 13 22 41 47 45 49 51 47 56 59 59 60 61
58 58 57 58 57 56 56 53 54 53 54 55 55 55 55 54 49 47 49 56 56 60 39 33 31 32 24 24 25 21 16 16 17 40 42 44 45 46 43 51 54 57 59 59 59
59 58 57 57 57 56 56 54 54 53 55 55 55 55 54 53 47 44 58 57 59 57 34 33 31 29 25 24 24 21 17 17 25 42 42 42 42 45 45 45 51 52 56 57 57
58 57 57 57 57 56 55 54 53 53 54 54 54 54 54 50 33 34 60 60 60 43 35 32 31 30 23 22 19 16 17 17 34 45 43 42 43 37 42 47 52 55 57 56 56
56 56 57 57 56 56 55 54 53 53 54 54 54 53 49 46 45 52 60 59 44 35 32 30 33 32 20 18 18 18 18 24 41 42 43 44 44 39 47 49 53 57 57 56 56
56 56 56 56 56 56 55 54 53 53 54 54 53 52 48 37 45 52 45 39 35 32 33 32 33 29 21 23 23 25 20 36 42 43 43 40 42 40 45 51 52 54 56 56 54
57 56 56 56 56 55 54 54 53 53 54 54 53 49 46 33 41 48 41 35 31 31 30 32 31 31 32 27 30 29 19 29 41 42 42 39 36 34 42 49 51 52 56 55 53
57 56 55 55 54 54 53 53 53 53 54 53 52 48 43 45 44 41 38 31 31 31 33 32 32 33 32 31 29 23 21 18 35 39 39 31 28 37 42 46 47 49 53 56 54
57 56 55 54 54 53 53 53 53 54 54 53 48 48 44 47 41 41 35 31 30 31 31 31 32 32 30 28 25 22 17 21 24 30 32 27 28 37 42 43 44 45 49 52 56
57 56 55 54 53 52 52 52 53 52 51 49 47 41 41 36 39 34 33 33 33 35 34 33 30 28 28 26 19 22 22 20 19 21 27 24 26 38 42 42 43 42 43 43 50
57 56 55 54 53 52 51 49 46 46 46 37 33 35 32 35 34 29 30 30 34 34 33 35 27 27 27 28 27 26 24 23 22 18 27 25 24 38 41 42 42 43 42 42 46
57 56 55 54 52 52 49 45 45 42 41 44 43 41 39 38 31 29 30 29 34 31 36 30 28 29 29 30 29 28 26 25 23 21 25 24 22 31 33 39 41 42 42 42 43
56 56 54 53 53 51 48 47 47 45 42 43 45 43 42 34 30 29 27 30 32 31 32 29 30 33 30 28 28 27 27 26 25 19 14 20 24 26 27 38 41 42 43 43 43
56 55 53 52 48 49 48 50 50 46 39 38 39 40 30 28 30 29 26 29 31 32 34 31 33 31 30 28 29 24 27 27 25 23 13 22 21 28 29 29 40 39 41 43 44
55 54 52 51 49 49 49 49 48 49 19 32 38 36 30 29 28 25 29 32 28 33 32 28 31 28 30 28 30 28 28 27 29 26 25 24 19 22 31 22 34 35 38 41 45
54 54 52 51 51 49 49 50 53 40 28 34 31 29 28 29 28 25 29 32 31 34 34 29 33 31 30 31 30 29 29 30 32 30 24 27 23 23 29 27 25 33 36 39 44
54 54 52 51 46 52 53 51 38 34 33 29 27 28 27 27 27 24 23 26 25 25 29 29 28 28 32 28 31 29 25 23 22 25 23 30 25 24 30 32 32 33 33 40 46
54 53 52 50 51 52 54 48 34 33 35 30 27 27 25 25 25 23 22 20 24 26 25 24 25 32 34 29 28 27 25 25 20 23 23 30 27 27 29 31 34 35 38 45 48
53 52 52 51 51 51 51 40 33 38 29 27 25 24 24 22 22 22 22 21 21 22 21 28 27 35 36 33 31 27 24 29 30 32 29 27 24 26 33 34 37 38 38 45 50
51 51 50 51 51 48 46 36 38 40 35 31 23 24 21 20 20 19 21 24 24 24 34 33 27 33 35 33 32 28 27 24 29 22 22 19 20 26 29 31 34 39 38 46 49
49 45 49 52 51 45 38 36 38 39 40 35 31 26 23 22 21 21 19 20 27 37 36 37 28 31 34 32 28 27 25 25 26 26 21 22 21 22 27 31 37 38 40 47 47
47 41 50 52 40 40 39 38 38 38 40 40 36 34 25 25 23 21 22 21 31 37 30 37 34 30 29 30 34 29 28 30 25 19 27 25 22 27 25 30 37 39 42 47 46
43 44 50 48 34 34 37 38 38 36 38 38 35 34 32 30 26 31 33 39 40 34 32 34 29 25 24 24 28 27 26 28 32 29 25 22 23 25 24 22 29 35 42 46 46
44 39 45 46 39 31 35 37 37 38 38 40 39 38 34 32 34 32 36 39 41 38 41 36 29 24 22 20 25 27 31 31 29 26 26 26 25 26 25 23 22 26 33 44 45
45 39 40 38 39 32 33 34 34 32 39 39 36 37 34 28 32 31 38 38 39 39 36 32 27 28 27 31 32 28 29 29 26 27 25 25 26 25 25 24 24 26 28 38 43
42 40 42 41 38 36 33 32 31 30 34 32 36 36 34 28 29 31 37 36 33 37 33 35 29 32 29 30 27 25 25 26 26 26 28 25 25 27 26 28 29 28 29 29 31
45 46 43 40 39 38 33 32 29 31 37 35 36 34 34 32 37 35 38 39 38 35 35 34 31 28 26 26 22 22 23 23 25 27 25 22 26 27 29 30 28 31 32 32 34

GFSSW_sfc_dewp_033.txt.gz
Dewpoint
58 58 58 58 57 57 56 56 55 53 53 54 54 55 55 55 53 49 43 42 47 55 52 36 34 32 28 27 28 20 20 16 15 19 37 45 45 49 52 54 56 58 57 59 62
58 58 58 58 57 57 56 56 54 54 53 54 55 55 55 55 49 47 50 54 56 56 38 29 30 29 22 23 24 22 18 17 18 30 41 45 44 46 50 53 54 55 59 60 61
58 58 58 57 57 57 56 55 55 54 53 53 54 54 55 53 46 41 59 57 58 58 34 32 30 29 26 24 23 21 19 19 18 41 42 43 44 46 49 49 53 53 55 58 59
58 58 57 57 57 57 56 55 55 53 52 53 53 54 54 50 31 33 61 60 58 52 35 28 28 29 25 23 22 19 18 17 24 44 43 42 42 39 44 48 55 55 56 57 57
57 57 57 57 57 56 55 55 54 53 53 53 54 54 49 39 36 48 60 60 53 38 30 29 32 31 24 18 19 18 19 19 29 43 42 44 40 45 48 53 56 56 56 55 56
57 56 56 56 56 56 55 55 54 53 53 53 54 53 46 23 42 50 46 44 37 32 31 30 32 31 28 24 24 27 26 40 42 42 43 41 44 45 47 56 56 55 53 52 52
58 57 56 56 56 55 55 54 53 53 53 53 53 49 46 23 42 45 41 36 32 30 31 33 33 32 31 26 31 29 27 39 41 42 41 40 36 43 48 55 55 54 54 53 52
58 57 56 55 55 55 54 53 53 53 53 53 52 47 42 41 46 44 40 37 33 30 31 31 32 32 33 29 29 22 21 25 38 41 39 32 31 38 49 51 53 55 55 55 54
58 57 56 55 54 54 53 53 53 53 53 53 47 46 40 45 42 43 39 35 32 30 31 29 32 31 30 28 22 22 16 21 33 36 36 31 29 38 47 50 51 54 55 53 52
56 57 56 55 54 53 52 53 53 52 51 49 47 34 35 33 38 35 37 35 33 35 34 31 31 28 28 24 20 21 21 23 20 20 33 35 29 39 43 48 49 49 53 54 51
56 57 56 55 54 52 50 48 44 45 46 35 27 28 31 35 35 34 32 32 36 33 31 34 28 26 26 28 28 27 26 25 24 24 26 28 26 37 41 43 44 45 47 54 54
55 56 56 55 53 52 49 44 41 43 38 43 42 39 40 39 36 31 31 28 32 29 35 29 28 28 30 28 29 28 26 25 26 23 22 24 23 35 41 41 43 43 44 45 54
55 56 56 53 52 51 47 45 46 45 35 39 44 43 42 41 37 30 28 30 30 30 30 28 27 33 30 27 27 27 27 26 26 23 21 23 22 24 28 40 41 44 43 44 47
53 55 54 52 48 48 48 49 49 46 36 36 42 42 41 33 29 31 28 30 32 29 32 30 32 31 30 28 27 25 28 28 25 23 11 20 17 26 27 34 40 42 43 42 44
52 54 53 52 47 49 49 49 48 48 16 24 40 39 30 27 28 28 29 31 28 32 30 27 32 29 28 26 29 27 32 27 28 26 23 24 19 21 30 27 36 40 42 43 42
52 53 53 51 50 48 49 51 52 32 18 31 35 32 27 28 28 24 28 30 31 32 33 28 32 29 27 30 30 31 29 29 31 28 22 26 22 22 27 26 30 39 40 41 44
52 54 53 51 45 51 52 51 38 27 27 30 29 30 26 27 27 26 24 27 27 26 26 28 28 29 33 27 29 27 24 20 19 23 21 28 25 25 25 29 30 33 37 38 41
51 53 53 51 51 50 54 47 33 33 34 36 29 29 24 26 26 25 22 21 24 26 27 24 22 29 34 28 27 29 24 23 18 21 20 29 27 25 29 31 32 32 34 38 44
51 52 52 53 51 49 50 39 31 34 35 24 26 26 26 26 24 23 22 20 21 25 22 26 25 33 35 33 29 28 24 28 28 30 26 26 26 24 29 32 37 37 40 44 47
46 48 48 52 51 46 45 37 37 39 39 38 24 26 24 23 22 22 22 23 22 25 27 28 23 31 33 34 32 29 29 22 27 21 21 21 20 24 27 27 32 38 37 45 49
46 43 47 51 51 43 37 36 37 37 39 39 33 26 25 23 22 21 21 21 25 32 29 35 25 26 35 30 26 27 25 25 26 25 20 20 22 23 27 29 29 33 37 42 49
43 37 50 51 42 38 34 36 38 35 40 40 40 36 28 26 24 22 21 19 26 36 29 34 30 27 27 31 32 29 28 27 25 20 26 25 22 25 23 27 31 35 37 43 49
39 42 51 48 36 35 36 36 36 34 36 37 38 38 34 27 22 26 26 36 37 32 33 35 29 25 24 26 27 28 28 31 30 28 24 22 22 25 25 22 24 34 37 43 47
41 37 44 46 40 35 34 35 37 38 36 39 39 40 37 30 32 31 33 38 39 36 41 35 29 26 24 24 26 26 29 29 29 26 25 25 24 25 25 26 25 24 31 42 47
41 36 40 38 38 38 34 34 35 34 37 36 36 38 37 32 30 31 37 37 38 38 36 32 26 25 25 24 30 27 27 30 27 27 25 26 27 27 25 23 24 25 28 36 44
38 40 41 39 38 37 35 32 34 35 36 35 31 35 33 34 30 29 35 35 33 35 33 34 27 30 29 29 27 25 25 25 26 26 28 26 25 28 27 29 29 29 30 32 35
42 43 43 37 37 36 33 33 32 35 36 34 35 36 36 36 36 32 37 37 34 34 33 31 30 28 24 26 23 23 24 24 24 26 26 22 24 28 29 29 30 33 33 34 36

GFSSW_sfc_dewp_036.txt.gz
Dewpoint
59 59 58 58 58 57 57 56 56 54 54 53 53 54 54 55 53 48 42 41 46 54 55 36 34 34 28 28 27 22 21 16 15 18 22 45 45 49 55 54 55 57 58 60 62
59 59 58 58 57 57 57 56 56 54 53 53 53 53 55 55 50 46 49 53 56 55 35 28 31 26 21 23 25 22 19 18 19 17 37 45 43 47 52 52 53 56 60 61 61
59 59 59 58 57 57 57 56 55 54 54 53 53 53 55 53 43 38 58 57 57 55 35 32 30 28 26 23 23 21 19 20 19 22 42 44 43 47 52 49 52 54 57 59 60
59 58 58 58 57 57 56 55 55 54 53 53 53 54 54 49 29 32 61 60 58 50 35 29 28 28 25 22 23 21 20 19 19 43 42 41 43 43 46 49 55 55 57 58 57
58 58 57 57 57 57 56 55 55 54 53 53 53 54 48 30 28 51 60 59 51 39 30 29 31 30 25 21 20 20 18 22 28 43 43 43 43 46 51 55 55 56 55 56 57
58 58 57 57 57 56 56 55 54 54 53 53 54 53 44 14 38 48 50 41 39 34 29 29 31 31 29 27 26 26 29 37 42 42 43 46 46 46 51 55 55 55 55 56 56
56 58 57 57 56 56 55 55 54 53 53 53 53 49 44 22 42 41 41 38 35 32 32 33 33 30 31 27 30 30 33 36 41 41 41 41 36 45 53 55 54 54 53 52 55
56 57 57 56 56 55 55 54 53 53 53 54 52 46 40 38 44 46 41 39 36 32 30 30 32 31 32 30 27 21 22 24 37 40 40 35 32 46 54 53 52 53 53 54 52
55 56 57 56 55 54 54 53 53 53 53 53 48 45 32 41 37 40 41 37 32 31 31 29 32 30 29 26 22 23 16 22 35 39 37 32 34 44 52 53 52 53 54 55 54
54 55 56 56 55 53 52 53 52 51 51 50 47 34 26 31 37 37 41 36 35 35 33 32 30 27 27 23 19 22 22 26 22 24 36 35 30 43 49 51 52 53 54 55 53
54 54 55 56 55 53 50 47 40 43 46 37 27 19 25 35 39 33 34 33 35 33 31 34 27 25 26 26 26 26 26 25 24 25 26 32 33 40 46 48 50 51 52 54 52
54 54 55 56 55 52 49 42 41 43 39 41 41 36 37 41 40 35 32 28 32 29 34 29 27 28 29 30 28 28 25 24 25 23 24 25 29 39 43 46 48 49 49 51 53
52 53 54 55 53 51 47 44 47 48 38 34 42 41 41 42 38 36 29 29 29 29 30 27 26 32 28 27 25 25 25 25 25 26 23 23 23 36 37 42 44 47 47 49 51
51 52 53 53 50 48 45 49 50 48 32 32 40 41 41 41 32 35 29 30 31 27 31 29 31 30 29 27 26 25 27 28 27 23 14 21 14 25 32 39 40 42 44 44 47
50 51 53 53 48 48 49 48 48 46 17 24 40 41 39 28 28 28 29 29 28 31 30 28 29 29 27 26 28 26 30 29 27 25 23 23 18 19 29 30 38 39 42 43 44
50 51 52 52 50 48 49 51 50 34 17 23 36 34 28 27 27 27 28 31 31 32 33 28 32 29 26 28 29 31 28 25 29 27 22 24 22 22 28 27 32 37 41 43 43
50 51 53 52 48 50 51 50 41 28 24 26 32 30 26 26 26 24 27 28 26 25 25 27 28 29 32 27 30 27 23 20 18 23 22 27 25 25 25 27 30 31 37 41 43
50 50 52 52 50 49 53 46 33 31 30 35 30 29 23 25 24 26 23 24 26 26 26 24 22 28 31 26 25 26 23 22 16 20 18 27 24 22 28 32 34 33 32 40 42
49 46 49 51 52 49 48 37 31 32 34 28 27 26 25 24 25 23 23 22 25 26 22 25 23 31 34 32 28 27 24 26 27 28 25 24 25 21 29 35 36 35 37 36 40
46 45 42 51 52 47 42 36 37 35 39 38 25 27 25 24 22 23 22 23 21 27 28 28 20 29 31 34 32 27 29 23 25 19 19 21 19 20 24 26 35 36 37 39 44
45 40 41 52 52 45 34 35 36 38 39 38 35 30 27 25 24 23 23 23 23 25 26 30 21 22 34 29 25 26 25 25 25 25 20 18 20 24 24 28 29 30 36 38 45
43 33 47 51 42 41 37 35 37 37 39 38 39 38 31 26 24 23 22 23 25 32 26 31 27 22 24 31 30 27 26 27 24 20 26 24 22 25 23 23 26 29 33 38 44
39 37 50 46 35 35 36 34 36 35 36 37 37 38 36 28 22 25 25 28 34 30 31 33 27 23 23 24 27 27 28 30 29 27 24 21 22 24 26 25 24 26 30 37 46
40 32 43 44 38 34 33 34 32 38 35 36 38 39 36 32 30 25 26 36 38 33 40 34 29 24 22 22 25 24 27 30 28 26 25 24 23 24 25 26 26 26 26 30 43
41 32 38 34 36 36 34 33 33 32 35 37 36 38 34 32 29 31 35 37 36 40 35 30 24 26 25 24 26 26 26 28 26 26 25 26 25 26 27 25 24 26 27 33 44
37 36 40 37 35 36 37 32 33 33 36 32 35 35 37 35 30 28 35 34 32 34 33 32 26 28 28 28 27 28 26 27 28 28 27 26 25 28 27 29 30 28 33 37 40
40 41 41 34 35 34 33 33 32 35 35 36 33 31 35 34 34 34 35 37 36 34 33 30 29 27 24 25 23 23 24 25 25 26 27 25 27 27 28 30 31 33 35 35 36

GFSSW_sfc_dewp_042.txt.gz
Dewpoint
60 60 60 59 59 58 57 57 57 56 55 55 55 55 54 55 54 47 39 40 41 52 54 36 33 30 28 26 27 24 18 13 15 16 18 38 36 48 51 48 52 55 56 59 61
58 60 61 60 58 58 57 57 56 56 56 55 55 55 55 55 47 39 47 54 55 56 30 27 23 23 20 24 25 23 18 15 17 18 19 27 36 44 48 47 49 55 59 60 60
56 56 57 60 59 58 57 56 56 56 56 55 55 56 55 53 41 35 57 55 57 53 30 30 23 21 20 22 23 23 20 21 20 20 21 30 41 45 44 42 47 51 57 59 58
54 54 56 58 59 58 57 56 56 56 56 55 54 55 55 48 19 32 61 59 58 44 31 30 29 26 24 22 23 22 23 23 22 30 33 38 43 45 45 51 53 56 58 58 57
54 54 55 56 58 59 57 56 56 56 55 54 54 55 48 30 15 46 61 59 45 39 28 27 29 27 22 24 25 24 24 26 32 33 41 42 41 44 51 54 55 57 57 57 57
54 54 56 56 57 58 57 56 56 55 55 54 54 54 41 24 36 47 44 42 36 33 26 29 29 30 28 27 26 27 27 37 38 39 39 40 43 44 52 53 52 53 54 56 55
53 54 54 55 56 57 57 57 56 55 55 54 54 48 41 29 35 44 40 34 34 29 25 27 31 30 30 27 29 27 28 35 37 40 40 41 36 44 51 50 50 50 53 55 54
52 53 54 54 55 55 56 56 55 55 55 54 54 48 35 33 35 40 40 37 35 33 30 30 30 31 31 31 26 24 25 21 29 39 39 39 30 46 49 48 48 49 48 53 55
52 52 53 53 53 54 55 55 55 54 53 53 49 47 29 40 33 30 38 33 37 34 33 28 31 32 31 23 20 24 17 20 23 37 37 36 29 42 49 46 44 46 46 49 54
51 52 52 53 53 54 54 54 54 52 51 50 46 42 35 19 31 39 35 34 33 34 33 32 32 29 24 19 14 16 18 21 23 30 36 34 31 39 46 45 42 44 45 46 51
50 51 51 53 54 54 53 50 45 44 48 40 37 33 16 30 40 36 39 38 34 32 30 34 29 21 19 19 22 23 19 19 21 24 27 26 28 32 43 46 44 43 45 47 47
50 50 51 51 52 54 53 48 45 45 39 40 39 37 37 34 33 35 35 33 33 28 31 31 27 27 28 28 26 26 22 21 24 25 25 21 22 28 39 45 45 43 44 46 47
50 49 50 50 54 53 52 50 48 48 42 38 37 35 34 36 31 28 32 30 28 27 29 27 26 30 28 27 27 26 24 24 23 26 24 24 21 28 36 43 45 46 44 45 46
50 49 50 50 50 50 48 49 50 50 36 27 31 33 37 35 31 30 32 27 28 26 27 28 28 28 28 25 27 23 25 25 26 25 18 24 15 22 28 37 42 43 46 44 46
50 49 50 50 50 48 48 52 52 50 20 24 34 38 38 29 26 29 31 30 26 27 29 26 28 29 26 24 27 24 28 27 27 24 24 21 16 19 26 24 31 39 43 45 43
50 49 49 48 48 50 51 53 51 38 18 19 35 36 35 33 25 27 29 30 28 27 30 25 30 28 26 28 27 30 28 28 29 26 22 20 19 18 18 18 22 29 37 43 45
50 49 48 44 44 50 54 50 36 27 22 16 30 34 30 26 25 26 26 28 23 25 27 27 27 27 29 28 30 28 27 24 21 23 22 26 22 20 21 25 28 29 30 38 43
49 49 48 46 45 53 51 45 26 11 19 26 30 32 28 22 24 25 24 23 24 22 21 21 21 24 28 28 24 26 26 25 17 20 19 25 19 19 25 28 30 33 35 36 36
49 49 47 47 48 51 47 36 19 19 25 24 26 29 27 22 21 25 24 21 24 25 21 22 19 26 29 29 27 28 26 26 26 31 24 18 19 21 24 25 27 30 35 36 36
47 44 43 48 49 47 41 32 21 21 28 31 22 30 27 21 23 23 25 24 23 25 23 26 24 28 32 32 32 29 28 26 26 21 18 18 18 14 19 19 24 23 28 34 38
46 39 42 48 49 41 34 31 25 28 32 34 30 24 29 25 22 23 22 23 25 26 25 24 25 29 32 29 25 29 27 27 25 26 21 19 17 21 20 22 26 27 29 33 36
42 34 45 46 36 37 34 32 30 28 34 35 36 37 32 29 25 24 22 23 25 26 27 27 27 27 23 28 29 24 25 27 26 22 28 29 21 21 24 27 27 27 29 33 38
37 39 46 43 30 32 33 32 29 30 29 35 35 37 37 33 27 26 25 27 28 28 26 31 27 25 23 26 28 25 26 25 28 30 27 31 23 25 27 28 29 30 29 30 35
38 33 40 41 32 30 30 30 28 30 28 34 34 37 37 35 33 28 26 31 32 29 39 35 27 25 22 20 20 25 25 26 28 29 27 28 23 23 24 25 25 28 31 30 31
39 34 37 32 33 29 30 27 27 29 31 33 35 36 35 33 32 30 28 32 34 38 31 32 26 26 21 18 17 18 18 25 25 27 26 25 21 23 21 25 24 31 30 34 37
35 36 38 30 32 31 32 30 25 27 29 28 32 35 35 32 31 30 34 34 29 37 32 32 25 29 26 23 23 20 20 20 24 23 25 25 23 23 26 29 30 30 34 38 41
42 38 34 31 31 30 31 29 29 30 30 26 29 29 34 34 37 38 37 37 34 36 36 34 31 29 23 26 25 29 29 24 25 28 28 25 25 25 26 29 31 34 37 39 41

GFSSW_sfc_dewp_045.txt.gz
Dewpoint
58 59 60 60 60 59 58 58 57 57 56 56 56 56 56 56 54 45 40 42 41 55 51 32 30 28 26 23 21 19 16 12 12 15 18 25 30 39 45 44 48 52 56 59 61
56 56 57 59 60 59 58 57 57 56 56 56 56 56 56 56 48 36 49 55 54 57 33 25 21 22 19 21 20 19 17 15 16 18 19 24 31 39 44 39 44 55 58 59 61
53 53 54 56 58 59 59 58 57 57 57 56 56 56 55 54 41 26 56 57 56 53 30 21 23 18 18 19 21 20 18 19 18 23 24 25 31 40 40 42 50 50 58 59 60
53 53 53 53 57 58 58 57 57 57 57 56 55 55 55 48 20 39 58 57 58 40 30 26 21 21 21 18 21 20 21 20 21 23 27 34 34 39 40 49 53 56 58 58 58
54 54 53 53 55 57 57 57 57 57 56 56 55 55 50 36 26 48 61 58 41 37 29 28 26 26 20 17 21 22 22 25 29 29 36 39 38 42 48 52 56 58 57 57 57
52 53 54 54 54 56 56 57 57 57 56 56 55 54 44 34 26 40 43 40 33 31 29 27 27 27 26 21 21 24 23 30 31 33 36 36 38 42 48 49 52 53 55 56 56
52 53 53 54 54 54 55 56 57 56 56 55 54 49 41 34 29 38 37 32 29 29 27 28 29 28 28 24 24 23 22 29 29 32 33 38 39 37 47 46 45 49 54 54 55
51 52 52 53 53 53 54 55 56 56 56 54 54 47 37 31 28 34 36 30 30 30 29 30 31 30 29 27 24 19 22 26 26 31 34 40 39 40 44 44 44 43 50 52 53
51 51 51 52 52 53 54 54 55 56 53 53 50 46 33 40 27 27 37 29 29 29 31 28 31 29 28 23 19 20 19 25 26 27 35 31 36 40 42 41 43 41 46 51 49
51 51 51 51 52 53 54 54 55 53 51 49 45 42 37 24 20 19 36 32 31 32 32 33 30 26 23 17 14 14 15 18 25 40 27 27 30 37 41 38 41 40 44 48 46
51 51 50 51 52 51 53 47 45 46 45 31 34 28 18 23 35 30 29 33 32 31 29 31 27 24 21 19 15 18 17 19 24 21 21 23 22 32 39 41 38 41 41 45 48
51 50 50 50 51 52 54 42 41 46 39 36 35 34 36 31 31 26 33 30 32 28 28 28 28 24 22 21 19 20 18 16 18 21 22 21 23 22 35 38 38 37 41 41 43
52 50 50 50 51 51 48 43 46 49 38 28 30 32 31 31 29 25 31 29 28 28 26 26 25 26 23 21 22 22 22 23 19 24 22 21 19 19 27 36 38 38 38 42 42
51 51 49 50 47 42 44 44 48 50 32 21 32 32 30 31 30 26 29 27 27 25 25 25 26 25 23 22 22 21 21 21 22 21 19 25 20 30 25 31 37 38 38 39 41
50 50 49 50 46 45 47 49 51 51 17 20 26 33 31 29 23 26 25 27 25 24 25 24 25 26 24 22 23 22 25 24 24 24 23 19 13 24 20 23 30 36 38 38 40
49 50 49 46 45 47 51 53 52 34 18 18 30 32 33 31 23 23 24 27 24 23 24 24 24 24 23 23 24 25 26 26 26 25 24 19 17 24 18 16 17 29 35 38 38
48 50 49 44 42 44 52 52 32 21 15 14 24 30 31 28 25 23 24 24 21 22 24 23 24 24 25 25 27 26 26 24 23 23 23 25 18 19 32 19 21 23 26 35 39
48 49 48 45 44 48 50 45 21 8 13 23 23 29 27 25 26 25 25 22 22 22 21 22 21 24 26 25 24 26 26 26 27 22 20 24 16 17 22 23 24 26 29 30 35
48 45 45 49 47 48 44 34 22 12 8 15 20 27 28 23 23 24 24 20 20 21 21 22 20 20 22 24 25 25 25 26 27 26 24 19 18 17 18 18 21 24 29 33 34
44 41 41 48 48 47 39 34 22 13 9 17 16 24 26 23 21 23 23 21 20 21 23 23 22 21 24 26 26 26 26 26 26 23 23 16 17 16 19 18 19 20 24 29 35
45 40 39 48 48 42 31 31 29 17 14 15 21 18 25 26 20 22 22 20 20 20 22 23 24 24 29 28 25 25 27 26 24 26 26 22 18 23 19 20 20 23 23 26 28
42 35 44 47 36 37 32 31 30 21 22 18 25 25 22 29 24 20 22 21 22 22 24 25 26 27 26 27 26 25 25 26 27 24 27 28 23 23 22 22 24 25 25 27 30
39 38 47 44 31 34 31 30 28 25 22 20 27 31 30 28 29 26 25 28 31 24 26 26 24 26 24 26 26 25 25 24 27 27 27 33 26 22 23 23 24 25 26 27 31
39 33 40 42 34 29 27 27 24 30 26 20 25 29 31 32 31 29 27 28 34 28 38 35 26 25 25 25 24 24 22 22 24 30 27 25 22 22 23 23 22 24 27 28 29
40 36 38 32 34 33 28 23 21 23 28 27 24 27 25 28 28 29 29 31 32 36 32 31 25 25 22 22 20 20 21 21 20 22 24 24 20 21 22 23 21 29 28 26 30
35 33 36 33 35 31 29 25 20 21 22 24 26 28 28 26 27 28 29 30 29 31 31 30 28 26 24 22 20 18 16 16 16 19 19 19 19 22 20 20 21 24 27 29 34
42 35 35 31 33 31 30 26 21 22 24 22 24 25 30 28 36 38 37 37 35 36 34 29 32 28 27 23 23 26 22 18 17 18 21 22 24 23 22 21 24 27 28 34 39

GFSSW_sfc_dewp_048.txt.gz
Dewpoint
56 56 57 58 59 60 60 59 58 57 57 57 57 57 56 56 54 42 42 44 47 56 51 35 33 30 26 25 22 18 16 16 17 20 20 22 24 31 47 41 50 51 56 60 61
54 54 54 55 57 58 59 59 58 58 57 57 57 57 56 55 48 38 50 57 55 56 30 29 24 24 22 21 19 16 17 20 17 17 19 21 24 43 48 45 46 47 51 59 59
53 53 53 52 54 56 57 58 58 58 58 57 57 57 56 54 42 35 58 57 55 53 32 29 21 18 17 18 17 17 17 19 18 21 21 21 26 30 37 46 46 48 56 58 58
52 52 52 52 52 55 56 57 58 58 58 57 57 57 55 50 26 42 59 57 57 39 30 25 21 20 18 18 19 17 17 20 19 24 23 23 34 37 46 54 52 55 58 58 57
50 52 52 52 53 54 55 56 57 58 58 57 57 57 51 37 33 48 61 57 39 34 31 25 24 22 23 20 16 18 18 20 26 27 25 30 38 43 49 55 56 56 56 57 56
51 48 51 53 53 54 54 54 55 56 57 57 57 56 46 35 30 40 45 44 31 31 28 26 25 26 25 24 19 19 22 20 28 27 31 41 45 46 49 50 53 54 55 55 55
51 51 51 51 53 53 53 53 54 55 57 57 56 51 44 38 30 28 36 37 29 27 26 27 26 27 26 26 23 20 17 19 27 29 30 38 37 42 42 45 49 52 53 55 54
51 50 49 51 52 53 53 53 54 55 57 57 55 49 42 36 33 32 33 33 27 26 28 28 29 29 28 28 24 20 19 17 24 32 39 37 37 39 42 42 42 51 52 53 51
53 51 50 48 50 52 52 52 53 55 56 54 50 48 37 39 33 29 30 31 26 27 30 28 28 28 27 24 21 20 15 20 22 30 32 42 42 45 45 41 39 47 48 51 53
53 52 50 50 50 51 51 50 51 54 53 50 46 39 38 29 26 24 27 34 26 28 28 28 26 25 24 20 18 16 15 16 25 30 28 30 41 47 50 38 39 42 47 48 48
52 52 51 50 50 51 48 47 42 49 49 39 32 29 23 31 29 19 22 34 29 27 26 27 25 24 24 24 18 14 15 21 25 27 31 21 24 42 44 41 39 40 45 45 48
51 51 52 50 50 51 47 45 33 44 37 31 32 35 33 33 29 27 21 30 29 27 27 26 27 27 25 23 19 16 15 17 16 24 21 16 20 38 45 43 37 39 43 44 46
50 51 51 50 50 47 43 44 41 44 38 26 21 23 26 28 31 28 26 26 26 26 26 25 25 27 24 22 19 18 17 19 24 23 23 21 17 26 35 34 35 38 41 44 45
49 51 50 49 46 44 38 42 43 48 33 12 13 24 20 26 24 29 26 27 24 24 25 25 24 24 25 19 17 17 19 19 21 20 16 23 19 22 24 35 33 35 39 41 42
50 51 50 49 44 44 47 49 46 50 13 10 16 31 29 26 24 24 27 28 25 23 25 25 24 23 25 21 20 20 26 24 23 21 21 22 23 20 23 27 31 35 38 41 43
50 50 49 46 46 44 46 49 50 34 16 13 30 29 28 28 25 24 26 26 26 23 25 22 23 23 25 24 23 22 23 26 25 24 24 21 19 26 27 32 27 34 37 39 41
50 49 48 40 43 44 52 48 34 22 7 4 22 29 28 29 27 27 25 24 24 23 25 21 21 22 24 22 23 23 24 25 24 25 26 21 20 25 28 30 27 31 35 38 40
49 49 47 41 44 46 49 43 23 12 15 19 16 24 27 28 29 28 24 22 25 21 21 20 21 21 24 23 24 25 24 28 27 29 29 29 20 19 26 24 24 23 28 36 39
49 47 44 45 48 49 43 33 23 16 10 12 16 21 25 27 26 27 24 23 23 23 22 21 21 20 24 24 24 25 24 27 32 32 31 29 27 25 22 19 20 23 27 33 33
47 44 42 46 48 47 38 30 23 18 17 13 10 15 21 25 24 25 26 25 25 25 25 25 25 22 21 23 24 24 25 26 26 27 26 18 16 17 21 19 19 20 28 33 37
46 40 41 45 50 42 32 31 27 23 21 18 14 12 16 19 25 23 23 24 26 25 24 24 26 25 23 22 21 23 24 30 28 26 28 27 23 35 27 24 23 27 26 35 37
43 35 44 47 37 38 32 32 32 23 22 24 22 21 19 22 23 30 22 25 24 25 23 26 31 27 22 23 25 25 25 28 29 27 32 38 27 28 30 26 27 27 28 32 36
39 39 45 44 30 32 33 27 28 26 21 21 23 24 22 24 26 29 30 27 31 26 27 27 26 26 23 28 26 24 25 25 28 30 30 32 28 25 25 24 25 31 28 30 33
39 32 40 41 33 32 30 28 25 28 24 20 23 22 22 26 33 29 31 27 35 28 40 39 28 25 26 28 26 25 25 28 30 32 31 30 26 25 24 27 24 28 28 27 32
39 35 37 32 34 31 30 25 24 23 25 24 21 23 22 31 30 32 32 34 30 35 34 35 30 28 24 23 23 24 23 22 21 23 26 27 23 23 24 28 31 31 31 28 28
34 34 35 30 34 32 32 29 24 22 21 22 25 24 23 27 28 27 32 32 30 30 32 31 30 30 29 24 23 25 27 21 20 20 19 21 22 22 22 24 27 23 24 28 28
41 38 34 32 33 32 31 30 27 26 24 20 24 26 27 27 33 41 37 41 37 34 33 33 35 30 28 26 24 24 27 22 21 19 20 21 25 24 23 24 24 25 26 28 31

GFSSW_sfc_dewp_051.txt.gz
Dewpoint
55 54 55 55 55 56 57 58 59 58 58 58 58 58 58 57 55 48 45 47 49 58 52 39 35 33 32 30 27 25 16 15 16 20 21 26 34 45 46 47 51 49 51 57 61
53 53 53 53 54 54 56 57 57 58 58 58 58 58 57 57 51 45 48 57 56 57 32 29 30 28 25 24 24 20 17 16 18 22 21 23 23 44 45 43 46 47 53 60 60
52 52 52 53 54 54 55 55 56 57 58 58 58 58 57 56 47 38 57 59 58 55 33 30 31 22 20 19 18 18 15 17 18 22 23 22 42 47 48 47 47 49 54 58 58
52 52 51 51 53 54 54 54 55 56 57 58 58 58 57 52 30 42 58 58 57 40 34 29 27 19 21 17 17 17 18 17 18 27 25 40 44 47 51 53 55 58 58 58 57
48 49 51 51 53 53 53 53 53 54 56 57 58 58 52 43 40 50 59 57 45 36 33 28 27 23 20 20 24 19 19 22 21 29 36 42 43 46 44 53 56 57 57 56 56
51 48 48 50 51 52 53 53 53 53 54 56 57 57 51 42 39 48 51 48 37 33 30 31 28 26 26 26 24 23 21 19 20 30 38 39 43 43 46 52 53 54 55 55 54
52 52 48 48 50 51 52 52 52 53 54 55 56 54 48 44 40 40 42 43 38 32 29 29 28 27 29 28 29 27 24 20 18 28 39 42 39 40 48 46 53 54 53 54 54
52 52 52 48 49 50 51 51 52 52 53 55 56 51 45 42 42 41 40 35 37 31 29 28 31 31 32 29 27 24 23 19 19 31 40 38 37 39 44 44 51 52 53 53 53
52 52 52 51 50 50 50 51 51 51 52 54 51 48 44 43 40 39 32 31 34 29 28 27 31 30 28 26 25 25 20 19 18 37 40 40 42 39 46 46 49 52 52 50 53
52 52 52 52 51 50 50 50 49 51 53 53 50 44 45 30 33 34 33 29 33 28 29 30 28 26 25 24 21 21 20 17 26 28 36 40 40 41 45 47 46 48 52 51 53
51 51 51 52 52 50 49 44 44 47 49 45 42 36 27 35 33 28 28 28 35 29 26 29 25 24 24 25 24 22 18 14 18 27 28 37 39 39 44 47 45 46 50 50 49
51 50 51 51 52 51 48 42 43 42 40 43 45 42 37 40 35 30 22 29 34 29 26 26 24 26 27 27 26 24 20 16 25 28 30 35 38 40 44 46 43 45 47 47 49
51 50 51 51 51 47 43 41 43 40 41 37 36 30 29 29 31 31 22 28 31 28 28 26 27 27 27 27 24 22 19 19 25 26 24 23 36 40 41 45 46 45 46 47 49
51 50 50 50 46 43 41 46 47 45 39 26 19 24 24 24 29 30 32 26 28 27 27 27 28 26 26 25 24 17 20 25 26 24 19 22 19 36 40 43 45 42 44 45 50
50 50 50 49 45 42 44 43 44 49 17 13 17 21 20 22 25 24 30 30 24 25 26 26 26 26 26 26 24 20 27 29 28 25 24 23 22 23 38 40 42 41 44 43 50
50 50 50 46 46 44 44 44 49 36 26 16 29 29 25 20 24 26 24 28 29 26 24 24 26 25 24 27 26 26 29 28 28 26 24 24 23 26 27 29 37 38 40 43 45
50 50 48 42 39 44 46 46 35 28 13 2 28 29 29 26 22 24 25 23 23 25 25 25 23 24 24 25 27 25 24 24 28 24 24 29 26 27 29 31 33 35 38 41 44
50 50 48 44 42 42 47 41 29 15 16 18 18 29 29 28 28 27 26 25 24 24 24 23 22 23 24 24 24 25 24 28 25 26 29 31 26 24 29 30 30 30 36 38 41
50 48 46 44 44 46 42 32 22 18 15 8 11 16 27 28 29 28 27 26 27 23 22 23 22 23 21 25 24 26 25 28 34 35 31 31 29 28 28 24 23 23 25 36 39
47 45 43 44 45 45 37 32 28 21 15 14 16 19 18 23 28 28 28 28 27 24 25 28 25 24 23 22 26 24 27 25 33 28 30 26 27 26 29 23 20 20 25 31 35
45 40 43 45 46 40 30 29 27 30 29 20 18 18 20 19 19 21 27 27 27 24 25 24 25 26 27 24 23 26 24 28 30 32 25 23 25 33 27 30 23 22 26 30 34
44 34 43 44 36 35 30 30 32 25 29 28 26 23 24 25 23 23 25 31 28 27 25 25 30 25 22 25 24 24 25 28 31 28 33 28 27 29 28 27 28 25 25 26 36
39 38 45 41 30 31 31 30 32 30 28 26 23 25 25 24 24 25 33 35 38 29 27 27 27 23 24 25 25 22 24 28 32 35 32 28 30 31 31 28 24 26 27 29 28
38 32 39 41 33 29 29 29 29 31 31 29 27 26 23 24 25 25 31 37 40 30 40 32 28 26 22 25 30 30 27 26 29 29 30 31 30 31 30 28 23 25 29 28 30
38 34 36 33 34 32 29 27 27 28 27 26 26 26 23 22 24 25 33 37 39 40 33 32 26 26 27 25 27 28 28 26 26 30 30 30 28 29 27 27 29 30 29 29 29
33 36 35 31 33 33 31 28 26 26 25 24 25 25 25 21 23 25 37 37 38 39 34 34 30 28 27 27 28 24 23 27 27 27 29 29 28 31 27 29 29 29 29 27 26
42 39 35 32 34 32 31 29 28 29 28 26 26 25 26 25 25 37 44 44 42 41 40 35 32 31 26 27 27 25 28 26 29 29 25 24 24 26 25 26 27 29 27 28 28

GFSSW_sfc_dewp_054.txt.gz
Dewpoint
54 53 53 54 55 55 54 55 56 56 57 58 58 58 58 58 56 49 43 42 50 57 55 38 34 32 31 31 29 24 21 18 17 17 21 34 38 45 48 50 51 50 52 55 60
51 51 51 52 54 54 54 54 54 55 56 57 58 58 58 57 53 46 49 58 59 59 32 28 32 34 29 26 24 22 19 19 19 19 30 45 43 45 46 46 47 48 54 60 59
50 51 50 49 53 53 54 54 54 53 54 56 57 58 58 56 46 38 56 59 60 56 31 30 32 30 23 22 21 19 18 18 17 19 31 43 46 49 43 42 51 54 54 58 57
49 49 50 50 51 52 53 53 53 52 53 54 56 56 57 53 23 42 58 58 58 40 33 31 29 23 20 21 20 17 17 19 17 26 37 41 45 48 49 52 57 57 58 57 56
52 51 49 49 50 51 51 52 53 53 52 52 55 56 53 45 42 45 58 56 46 36 31 27 27 26 21 20 24 23 22 23 23 40 41 43 43 45 50 55 57 57 57 56 56
52 52 52 51 49 51 51 51 51 52 53 52 53 56 50 43 37 40 50 47 36 32 32 31 29 27 26 26 27 28 27 25 21 39 39 39 43 42 45 54 54 55 55 55 54
52 52 52 52 52 51 51 51 51 51 52 51 52 54 48 44 42 42 46 44 39 33 30 31 32 29 28 27 32 27 24 23 22 35 38 40 38 40 49 53 53 53 54 54 53
52 52 52 52 51 52 51 51 51 51 51 52 52 52 44 46 45 44 44 42 40 37 32 31 29 30 30 31 27 25 26 20 22 37 39 38 33 38 49 52 53 53 53 53 52
52 51 53 52 51 51 51 51 50 50 51 53 50 49 43 48 44 43 40 35 35 38 32 28 29 27 29 25 24 26 21 22 22 29 39 37 35 41 44 45 52 52 52 52 52
52 51 52 52 51 51 51 50 49 51 50 53 52 44 42 28 35 35 38 34 32 35 31 27 28 25 25 24 20 21 22 22 18 33 38 39 37 38 46 49 51 51 51 51 51
51 51 51 51 51 51 49 44 38 44 48 46 44 40 32 31 38 32 34 31 31 30 24 30 26 24 24 25 25 24 23 22 21 26 35 36 35 37 43 45 50 51 50 51 52
51 51 51 51 51 51 48 41 41 39 36 39 44 44 42 41 38 35 31 26 31 30 26 26 25 26 27 27 27 26 25 24 21 27 26 35 35 38 41 44 45 49 51 51 51
51 51 51 50 50 48 44 40 41 44 39 37 37 40 40 42 39 32 30 28 32 32 28 24 26 26 26 25 25 26 26 22 19 25 26 33 32 40 42 44 45 48 51 51 50
51 50 50 49 46 43 42 44 43 44 36 32 31 30 32 32 32 32 32 23 31 29 30 27 25 25 27 26 26 25 25 21 24 23 19 22 18 34 40 40 44 46 47 48 50
51 50 50 49 44 42 42 43 45 45 -0 7 22 30 29 22 26 27 26 29 27 28 28 27 28 27 26 26 27 26 28 24 27 25 24 23 21 23 38 38 41 44 46 47 49
51 51 50 47 46 45 43 44 47 36 22 24 26 22 23 23 24 26 29 31 30 26 26 25 26 26 26 27 27 27 28 28 29 26 23 25 23 24 37 37 40 41 44 46 49
50 50 49 44 38 42 42 45 35 25 18 9 28 28 20 20 18 25 24 26 25 24 24 23 24 25 26 24 27 26 24 22 23 24 23 27 28 27 33 37 41 40 43 44 49
50 50 49 46 43 42 44 40 27 22 15 18 18 29 27 23 20 22 25 22 25 26 25 24 24 25 26 24 23 25 25 25 21 25 27 31 26 23 29 31 39 41 40 43 45
50 48 46 46 44 44 39 31 26 23 18 17 13 12 29 29 29 23 25 24 25 24 23 25 24 25 24 24 25 26 25 28 31 34 29 29 30 28 28 27 29 37 38 40 44
47 45 43 45 45 43 35 30 30 29 26 25 17 21 19 22 25 28 28 29 27 28 26 27 25 26 24 26 24 25 28 26 31 26 24 29 29 25 27 23 22 26 34 38 41
46 40 43 45 46 39 29 29 30 31 30 29 24 20 23 24 23 22 27 30 29 29 29 25 26 26 29 26 23 26 25 29 30 31 25 23 24 31 29 29 24 20 27 34 39
44 35 43 44 35 34 28 28 32 28 30 28 29 25 24 26 26 24 25 27 33 30 27 27 26 23 23 26 26 25 26 28 28 27 30 27 25 29 28 27 27 26 26 33 37
40 38 45 41 29 29 28 28 31 30 29 27 26 27 24 25 23 28 29 32 38 37 31 28 26 24 22 24 27 24 25 26 31 33 30 27 28 32 30 29 29 27 26 27 36
37 32 39 40 34 29 27 26 26 31 29 30 30 30 27 25 26 25 26 30 39 40 43 40 29 24 22 24 27 27 25 25 29 29 29 30 29 30 31 29 29 26 26 28 30
37 34 36 32 33 32 29 27 26 25 30 31 29 27 28 25 21 21 27 35 37 42 41 38 27 28 25 26 25 23 26 28 25 28 27 28 30 30 31 30 30 28 29 28 28
33 35 36 32 34 33 31 28 27 28 28 28 27 25 27 26 24 22 25 33 36 40 40 40 34 28 28 26 27 25 23 27 27 29 29 29 31 31 31 30 29 30 29 27 28
43 40 35 34 32 33 30 28 28 29 29 28 27 26 25 26 28 31 33 36 40 39 39 39 38 34 26 26 25 25 27 27 25 29 29 28 31 31 30 30 29 29 29 29 28

GFSSW_sfc_dewp_060.txt.gz
Dewpoint
51 50 49 50 50 51 52 52 52 51 52 52 52 53 53 54 54 52 42 41 49 56 52 36 31 30 30 28 28 25 22 21 21 18 17 30 35 43 47 48 50 50 52 56 58
52 51 50 50 50 49 50 52 52 51 52 51 52 53 53 53 51 49 49 57 57 59 35 31 33 32 30 30 28 23 21 20 22 20 18 21 39 40 44 45 47 48 55 58 57
51 51 51 51 52 52 52 52 52 52 51 52 52 53 53 53 44 26 58 58 59 56 30 27 33 29 26 25 23 21 18 19 18 21 20 24 44 46 44 41 45 47 50 56 56
50 50 50 50 50 51 53 53 52 52 52 51 51 52 53 52 9 38 59 60 61 47 28 26 27 26 20 19 20 19 20 19 18 23 32 39 43 44 42 42 52 54 54 56 55
52 51 50 50 50 51 52 51 52 52 52 51 51 51 49 44 41 42 58 59 48 32 27 25 25 23 18 18 21 18 21 24 25 28 36 42 41 43 50 54 55 56 55 55 54
52 52 52 50 49 50 51 50 51 52 52 52 51 50 47 37 34 43 45 46 35 30 29 25 23 26 23 23 24 26 25 26 25 32 38 39 40 42 43 54 55 55 53 53 54
51 52 52 51 50 51 51 51 50 51 51 52 51 47 43 37 41 41 42 39 38 31 29 30 27 28 29 27 28 28 24 24 23 32 36 39 36 39 44 54 54 53 52 53 53
50 52 52 52 52 52 51 50 50 50 51 51 51 47 40 43 45 45 44 41 40 37 35 33 31 28 28 29 27 25 24 20 21 35 36 37 30 33 50 52 51 51 52 51 51
52 52 51 51 51 51 51 50 49 50 52 52 47 44 39 46 43 45 43 36 34 38 36 32 30 28 27 25 23 23 18 19 20 30 36 36 32 38 50 52 50 50 51 51 50
52 52 51 51 51 51 51 50 47 49 48 47 47 38 33 20 34 39 45 39 32 36 35 33 29 25 25 23 20 21 21 23 20 25 33 35 35 37 50 51 50 49 49 50 49
51 52 51 51 51 51 49 42 38 39 41 40 41 36 36 39 41 38 39 36 32 32 29 30 27 25 24 25 21 21 22 21 21 23 26 25 31 31 40 48 46 48 50 49 48
51 51 51 51 51 51 47 40 39 41 38 39 39 40 41 43 41 35 36 31 30 27 29 26 25 26 26 26 25 24 23 22 24 26 26 26 28 32 41 44 47 48 48 49 49
51 51 51 51 50 44 43 42 43 41 39 36 37 35 30 36 35 32 33 30 28 27 27 26 26 26 26 26 25 25 24 24 24 26 25 30 27 29 36 41 47 50 50 50 49
51 51 50 50 45 43 40 41 40 42 33 29 37 35 32 38 35 32 30 28 29 25 28 27 28 26 25 24 24 22 26 25 25 23 21 26 23 21 28 37 43 45 50 50 49
50 51 50 50 42 41 38 43 39 46 10 9 30 32 37 26 21 32 29 28 28 27 30 27 28 26 26 25 25 22 28 27 27 24 23 23 20 21 37 32 35 41 45 49 50
49 50 50 48 46 45 45 42 43 34 20 19 26 29 33 32 25 30 29 29 27 29 29 26 29 28 25 27 27 29 27 28 29 26 23 23 22 23 25 30 32 36 42 47 50
48 49 48 47 40 42 42 41 32 26 23 14 19 28 28 26 26 26 26 27 22 21 23 24 26 26 27 25 29 27 25 22 21 24 23 25 24 24 27 29 33 33 38 45 49
48 48 47 48 45 43 41 35 24 27 26 24 21 20 22 23 21 23 23 22 25 24 21 19 18 23 25 24 24 26 26 24 20 21 21 29 27 26 29 30 31 34 37 45 48
47 45 46 47 45 44 37 25 26 27 27 28 24 20 24 25 24 21 22 18 21 26 21 21 20 25 26 26 24 25 25 27 27 30 28 27 27 28 27 27 28 36 39 43 47
41 41 42 47 45 43 34 24 29 32 30 29 23 24 22 22 24 23 22 28 22 27 29 27 24 27 26 25 27 26 28 26 28 25 24 24 27 23 25 26 27 31 39 41 45
43 38 42 47 47 38 28 28 25 25 30 28 27 26 24 24 24 22 28 28 31 30 28 26 25 25 27 24 23 24 24 27 29 28 22 21 24 30 28 30 30 27 29 39 42
41 32 45 46 35 34 30 32 28 24 30 29 31 30 25 25 22 25 27 29 27 35 27 29 28 24 22 25 27 24 26 27 25 23 28 26 22 27 29 30 31 30 26 24 38
36 36 45 43 30 30 34 30 27 24 28 29 28 31 29 24 17 25 27 31 28 27 37 36 28 23 24 24 25 23 24 26 30 29 26 25 24 30 30 30 29 28 28 29 30
36 30 37 40 37 31 29 28 27 29 26 30 30 30 28 25 26 25 24 27 28 25 43 42 34 27 24 26 26 25 24 24 27 25 25 27 25 27 30 30 29 30 30 30 29
37 31 35 30 32 31 30 28 27 25 28 29 29 29 28 25 24 23 26 28 29 32 39 38 32 35 35 33 30 26 25 25 24 26 24 24 27 27 28 29 30 31 31 31 29
32 34 38 35 33 33 32 28 26 26 27 27 27 29 28 27 25 23 24 24 25 31 32 38 31 34 30 34 32 30 25 25 25 26 27 27 27 29 30 30 31 31 32 31 30
40 40 39 36 34 32 31 29 27 28 28 27 28 27 27 27 28 28 29 29 29 29 32 35 33 31 29 33 31 26 28 27 26 27 27 25 28 30 31 32 32 32 32 32 31

GFSSW_sfc_dewp_063.txt.gz
Dewpoint
52 52 52 52 53 53 52 52 52 51 51 51 51 51 52 54 53 50 44 37 49 57 51 40 31 31 29 28 27 26 24 21 21 21 19 21 31 42 47 45 49 50 50 54 58
51 51 51 51 52 53 53 53 53 53 52 52 52 52 53 53 50 46 50 55 56 58 32 29 28 29 27 29 28 25 24 22 23 22 20 21 25 29 42 45 46 48 51 57 58
50 50 50 50 50 52 52 53 52 51 52 52 52 53 52 52 41 25 58 59 58 57 33 31 34 32 28 27 26 25 22 23 20 22 21 20 35 41 42 40 44 45 49 54 56
50 51 51 50 50 50 52 52 51 49 50 51 52 52 52 51 -0 35 60 59 60 50 29 30 32 28 26 24 24 21 22 20 19 21 26 25 39 43 44 43 51 52 53 55 54
51 51 51 50 51 51 52 52 51 50 50 50 52 51 48 40 31 40 54 59 55 38 28 25 27 26 23 19 20 20 20 21 22 25 28 40 38 40 44 50 56 56 56 55 54
51 51 51 50 50 50 51 51 51 51 50 49 51 50 45 31 29 42 41 45 39 31 29 26 23 26 23 21 22 25 22 23 27 25 33 37 37 41 41 53 55 54 53 53 54
51 51 52 51 50 50 51 51 51 50 51 49 50 47 42 31 36 38 41 40 38 32 30 29 27 26 27 27 28 27 25 25 24 24 31 39 34 38 43 54 53 52 52 52 52
50 51 52 52 52 51 51 51 51 50 50 51 50 46 38 39 44 44 43 38 38 35 36 32 31 27 26 29 26 25 25 22 20 33 36 36 25 31 46 51 52 52 52 51 51
50 52 52 52 52 51 51 51 50 49 51 52 47 43 34 42 42 43 42 33 34 34 36 33 31 28 28 23 24 25 20 20 18 28 35 35 28 34 50 51 50 52 52 51 50
50 51 52 51 51 51 51 50 48 50 48 47 45 33 33 18 33 40 44 39 30 34 34 34 29 26 26 21 15 22 22 22 20 27 31 31 32 31 45 50 48 50 52 51 50
50 50 51 51 51 51 49 42 38 37 39 39 39 31 31 42 43 39 41 39 33 33 32 33 29 25 22 26 23 22 21 20 20 21 23 26 27 27 34 48 49 50 51 51 50
49 50 51 51 51 51 45 38 40 39 36 37 38 38 40 40 38 35 37 34 31 23 30 28 29 29 26 26 23 23 22 22 23 25 24 25 26 27 35 40 45 47 49 50 51
49 50 50 51 51 44 43 42 41 40 36 34 35 35 34 35 33 29 33 33 28 27 27 26 25 29 26 25 24 24 24 24 21 24 25 27 25 25 31 39 44 46 46 49 51
49 49 50 50 43 43 38 42 43 42 33 29 33 35 31 34 32 31 27 29 29 25 28 23 27 26 26 24 24 23 25 24 23 21 21 26 21 25 25 30 39 42 48 49 50
48 49 49 49 44 41 40 45 43 45 17 18 30 32 34 25 22 32 30 27 24 27 29 26 28 26 24 23 25 20 27 26 24 24 25 24 22 23 28 27 28 35 44 48 50
47 48 49 46 47 45 45 43 43 32 17 23 26 30 31 30 28 31 28 28 27 29 30 25 30 27 23 27 26 27 26 28 29 27 24 24 23 22 24 26 28 32 38 45 50
47 48 47 47 42 43 43 40 29 22 25 18 21 23 24 25 29 28 26 24 21 25 28 27 25 27 28 26 27 26 26 22 23 25 23 26 23 23 27 27 30 32 33 42 48
47 47 45 47 47 45 42 34 23 20 27 27 25 24 21 24 24 25 25 20 23 22 22 22 21 25 27 27 26 26 24 25 20 22 21 27 24 22 30 31 32 32 33 38 47
46 44 44 46 48 47 38 25 20 22 28 28 26 21 24 24 24 24 24 21 19 26 21 22 20 23 26 27 27 27 25 28 27 31 27 26 28 28 28 27 28 29 38 41 47
42 41 40 47 48 43 33 26 22 31 29 29 25 26 22 23 24 24 25 25 24 27 29 27 24 26 24 26 26 27 28 24 28 22 22 24 26 22 26 26 28 31 31 40 45
40 36 41 47 46 38 28 28 25 24 24 27 27 26 25 23 22 27 26 22 25 31 29 28 25 25 28 24 23 24 25 28 27 28 23 21 23 33 30 31 31 34 33 32 42
39 31 44 47 34 35 31 31 29 24 28 28 29 29 27 24 22 22 25 27 28 25 29 29 30 25 24 25 26 25 26 28 26 25 29 28 23 29 32 32 33 33 33 32 29
36 35 44 44 28 29 34 31 28 25 26 28 27 30 29 26 21 25 25 28 29 25 25 38 29 24 23 25 26 24 25 28 31 30 26 27 24 29 31 31 32 33 33 32 33
36 30 36 39 37 31 31 30 27 29 27 26 29 29 27 26 26 23 22 25 31 29 40 41 35 28 22 27 31 26 25 25 27 28 26 27 25 27 29 31 31 33 34 33 34
36 31 35 28 29 33 31 29 26 25 27 28 26 27 26 23 24 22 22 24 24 35 35 39 32 35 34 32 32 31 29 27 23 25 25 25 25 26 30 30 31 33 34 33 33
32 34 36 32 34 31 33 28 26 26 27 26 27 28 29 26 25 22 25 24 24 28 29 31 33 34 30 32 30 29 29 27 25 26 26 26 26 29 30 31 31 32 32 31 33
39 39 36 29 31 32 32 29 27 28 29 27 28 28 27 27 29 29 30 30 29 28 28 29 34 31 25 32 29 28 28 27 28 28 28 27 29 30 29 32 33 34 34 34 35

GFSSW_sfc_dewp_066.txt.gz
Dewpoint
51 51 51 51 52 52 52 52 52 51 52 52 52 53 53 54 52 38 34 36 44 58 54 43 37 30 28 25 27 26 18 13 12 15 19 21 25 25 35 33 43 46 47 50 54
50 50 50 50 51 52 52 51 52 51 50 51 52 53 54 53 45 30 43 53 55 59 37 37 30 27 22 21 24 22 16 13 16 17 19 21 22 25 32 30 37 44 50 52 54
49 50 50 51 51 52 52 52 52 51 51 50 52 53 53 51 29 13 59 60 58 56 36 34 28 23 17 20 21 19 16 14 19 19 20 21 23 30 30 25 31 38 45 51 54
50 50 50 50 50 51 52 52 51 50 50 50 50 52 53 44 -2 33 56 59 59 47 33 30 27 21 19 19 18 18 19 16 17 19 20 23 26 30 33 35 45 43 48 52 53
50 50 50 50 50 50 51 51 51 50 50 49 49 50 45 26 10 15 52 55 49 40 30 28 27 23 20 17 19 21 14 17 20 19 22 25 27 27 32 36 47 50 52 53 53
51 51 50 50 50 51 51 52 52 52 51 50 49 50 42 25 15 30 38 38 39 38 30 27 25 25 21 19 19 17 18 16 16 20 23 27 23 35 28 36 48 50 50 52 53
50 51 51 51 51 51 52 52 52 51 51 50 50 45 41 27 24 25 24 28 39 34 33 34 29 24 20 21 21 20 20 19 21 22 21 27 23 27 28 45 46 48 50 51 51
50 51 52 52 52 52 52 52 51 52 51 51 50 46 37 27 32 34 31 26 25 37 33 30 33 29 26 23 25 21 21 17 16 17 23 30 18 17 36 43 45 46 50 51 51
50 51 52 52 52 52 52 51 51 50 51 51 47 44 29 37 34 31 37 30 21 34 34 33 33 30 28 22 19 23 16 18 16 19 23 31 21 32 41 41 40 47 49 50 50
49 50 51 51 51 51 51 50 47 49 47 45 43 37 31 25 22 36 43 40 28 23 30 34 31 28 26 21 16 17 19 16 17 20 24 23 26 24 30 39 42 43 47 49 50
48 49 50 51 51 51 46 37 32 34 34 30 32 35 35 31 36 32 43 41 34 21 28 34 28 25 24 24 20 16 17 15 13 17 18 17 19 23 25 34 41 42 45 49 50
47 48 50 50 51 50 44 38 39 38 35 34 33 32 31 34 33 35 41 36 34 20 23 32 30 26 25 23 21 18 17 16 15 21 21 14 19 23 23 28 33 40 43 46 50
47 48 48 50 50 46 41 39 41 40 33 30 32 31 31 31 30 30 32 31 28 29 19 26 24 28 27 23 21 19 17 18 16 21 21 23 22 22 21 30 35 39 40 44 48
48 49 49 49 44 41 38 42 42 43 31 23 30 32 33 30 28 30 34 32 23 24 26 22 19 24 26 25 21 19 19 19 20 20 10 24 16 19 21 22 27 32 41 43 47
47 48 48 48 41 39 39 43 43 43 12 18 25 33 29 25 20 25 34 31 24 21 26 23 19 19 22 21 22 21 20 23 22 20 17 15 20 16 21 21 20 23 33 43 46
46 47 48 41 45 41 43 44 42 31 8 20 25 28 28 27 22 31 26 28 29 31 32 29 26 22 19 21 24 23 22 23 23 20 20 19 21 17 17 21 21 24 29 38 45
45 46 45 42 37 44 45 39 29 16 14 19 21 24 23 21 26 26 28 24 21 22 25 27 23 25 24 20 24 23 22 21 20 22 18 21 22 22 20 22 25 27 28 35 44
45 46 43 40 43 46 43 34 21 10 15 22 26 23 16 23 24 26 27 23 23 21 17 18 21 23 27 23 23 23 22 21 18 20 20 24 21 20 22 24 28 28 30 33 42
45 40 41 40 45 47 38 27 13 14 21 27 23 19 20 23 23 23 24 22 21 21 18 20 21 24 26 26 24 25 24 24 24 29 24 23 23 25 23 23 24 26 30 35 39
41 40 36 41 47 45 35 25 20 21 29 28 19 22 21 22 23 28 26 26 25 20 22 22 21 23 24 26 26 26 25 24 25 22 21 21 22 20 22 22 22 28 30 35 41
41 35 36 43 46 39 30 25 25 22 23 26 26 25 24 22 21 30 34 31 28 23 22 25 25 25 23 26 22 25 25 26 24 23 23 21 22 27 25 25 26 28 30 33 39
37 30 43 47 34 34 30 26 32 23 23 23 27 27 27 25 22 24 30 27 29 30 25 27 28 24 23 24 23 22 24 25 24 24 26 28 23 27 29 28 30 29 29 32 31
33 31 43 44 29 29 31 28 29 26 23 22 24 28 27 25 21 20 32 31 27 28 30 34 25 20 20 23 25 24 24 24 25 25 25 29 23 26 29 28 28 30 28 30 32
36 31 34 39 35 30 27 25 27 28 25 24 25 28 26 25 24 22 21 28 32 32 39 38 32 23 16 18 26 24 23 23 26 26 24 23 22 23 24 25 26 27 29 32 33
37 32 28 30 30 30 29 26 28 25 27 25 24 24 24 23 23 22 23 21 27 32 29 33 35 34 32 32 31 30 29 26 22 23 24 23 23 23 24 26 27 29 30 30 30
33 33 35 29 35 31 28 28 25 23 25 23 25 24 27 25 24 22 24 24 23 28 27 30 33 31 26 28 29 28 28 28 27 26 25 25 25 27 28 29 29 30 30 28 31
39 38 37 27 27 27 30 27 29 30 27 25 27 28 29 29 30 29 30 30 29 28 27 27 30 28 23 26 23 25 29 28 27 27 27 27 28 30 30 31 32 32 32 32 32

GFSSW_sfc_dewp_069.txt.gz
Dewpoint
51 51 51 51 51 51 52 52 52 51 51 51 51 52 52 54 53 35 22 32 41 57 55 38 38 33 28 24 25 22 17 14 12 13 13 17 19 21 22 25 24 36 41 45 52
49 50 50 50 51 52 53 52 52 51 51 51 51 52 53 53 45 28 50 59 56 56 39 33 35 30 23 22 21 20 16 14 14 13 12 16 17 19 22 22 23 30 41 47 50
49 49 50 50 50 51 52 52 52 50 50 51 51 51 52 50 28 27 55 60 61 55 38 30 32 27 23 20 18 20 16 15 14 14 15 16 17 19 22 22 25 32 35 45 50
49 50 50 50 50 50 52 52 52 51 50 50 50 50 51 45 11 26 54 58 57 45 41 32 31 26 23 18 16 15 17 16 14 13 16 17 18 19 22 26 29 36 40 44 51
50 50 50 50 50 51 52 52 53 52 51 51 51 50 44 33 27 16 51 52 46 40 37 29 29 27 22 17 15 17 16 15 14 12 15 18 18 21 21 22 26 39 47 47 50
51 51 50 50 51 51 52 52 52 52 52 51 51 50 40 34 32 17 19 15 25 39 36 30 27 26 22 19 18 17 16 17 14 14 16 16 19 21 22 23 28 39 45 48 50
49 51 51 51 51 51 51 52 52 52 52 51 51 45 36 32 31 26 17 17 11 21 33 32 28 25 26 23 21 19 16 16 17 14 13 15 16 19 20 21 29 37 44 46 48
48 50 52 52 51 52 52 52 51 52 52 51 51 44 32 30 30 28 27 23 21 15 18 30 33 31 27 23 19 19 18 16 17 16 17 17 19 17 21 28 32 38 41 46 48
48 49 51 51 51 51 51 51 51 52 51 51 48 42 29 37 28 25 27 25 29 28 19 25 29 30 30 25 21 22 17 18 18 17 16 19 20 19 30 29 32 36 40 45 46
47 48 50 51 51 50 50 50 48 49 48 43 40 38 34 22 26 25 38 38 34 30 21 27 28 27 26 24 19 18 17 18 18 18 17 16 22 21 26 31 33 34 40 44 46
46 47 48 50 50 49 47 39 32 38 34 24 25 31 24 23 31 29 32 36 38 35 30 19 22 24 24 25 23 19 17 17 19 17 19 19 16 18 20 25 30 34 36 43 46
46 47 47 49 50 49 46 35 37 39 35 32 30 29 28 26 22 27 38 36 36 34 32 13 19 21 23 24 23 21 18 18 18 16 18 17 13 13 17 21 25 31 35 38 46
46 47 47 49 48 45 39 37 39 41 33 26 28 27 27 28 25 23 34 37 36 35 36 23 16 22 24 24 23 23 22 21 18 17 20 19 16 17 18 21 22 27 29 34 43
46 46 49 48 43 41 35 38 40 43 30 21 23 29 31 30 26 24 27 35 35 33 34 30 22 23 25 25 24 22 21 20 18 18 17 18 12 18 18 20 23 26 31 32 40
46 46 48 46 39 34 36 40 43 42 11 16 24 31 29 26 21 25 27 34 33 33 33 34 28 21 24 25 25 24 23 21 20 20 21 18 13 16 18 16 18 20 26 35 38
45 46 46 39 41 38 39 44 42 34 9 14 21 23 28 26 25 27 24 29 32 35 35 31 32 32 22 20 23 23 23 22 23 22 21 20 18 17 17 18 19 19 22 32 38
45 45 43 37 37 43 44 41 28 17 2 6 18 21 19 17 22 23 26 28 30 32 32 31 30 30 30 18 24 20 22 21 21 21 21 20 18 20 18 19 20 23 24 32 37
44 45 41 36 39 42 41 34 20 1 7 5 16 16 8 11 23 25 26 23 28 29 29 32 27 28 26 22 20 22 22 23 22 23 21 21 19 20 22 21 24 25 27 28 35
44 37 37 39 41 44 40 28 13 8 4 12 18 8 8 17 22 24 26 26 26 26 29 26 24 27 31 25 23 23 21 23 22 28 26 21 23 23 24 21 21 22 27 30 34
35 34 35 41 43 44 35 24 17 14 22 20 12 8 14 16 22 26 26 30 30 29 29 29 24 26 32 28 27 27 24 22 21 24 24 23 23 21 22 21 21 25 28 32 35
35 34 33 40 44 39 30 24 21 17 17 21 17 15 18 19 20 28 32 34 34 31 30 25 23 28 28 31 26 24 23 25 24 24 23 24 25 26 25 26 24 28 28 32 38
33 33 40 42 35 34 30 26 26 21 21 19 20 21 22 22 22 22 35 29 33 31 30 24 25 26 26 28 29 26 26 26 25 24 26 29 28 25 27 27 28 27 27 30 30
33 30 39 44 30 30 28 23 22 21 20 20 18 19 21 21 22 21 31 36 33 30 30 34 26 22 24 29 25 27 28 26 28 29 32 30 25 28 27 26 26 27 27 28 31
37 32 30 40 35 29 26 25 21 25 22 21 23 19 20 24 27 22 23 30 32 31 37 34 32 28 24 25 24 25 24 24 26 28 26 28 27 25 24 24 25 26 28 29 30
36 32 30 30 30 28 28 27 21 19 24 21 21 21 23 23 25 23 22 23 25 33 32 32 35 35 26 31 27 25 24 23 23 25 24 24 22 22 24 25 26 28 29 29 28
34 30 30 28 28 27 26 25 23 20 22 23 21 19 21 20 21 20 21 24 25 26 29 32 32 37 32 27 28 26 25 24 24 25 25 25 25 26 26 28 29 30 30 29 29
38 34 35 28 27 28 28 23 21 23 23 26 25 21 22 25 30 32 31 31 28 28 27 27 32 33 32 31 28 26 28 28 29 28 29 27 30 32 29 31 33 34 34 37 36

GFSSW_sfc_dewp_072.txt.gz
Dewpoint
49 50 50 50 51 51 51 51 52 51 51 51 52 53 52 53 51 39 30 35 38 54 50 33 38 39 35 28 23 22 19 18 16 14 12 14 18 19 19 18 22 24 32 41 53
49 49 49 50 50 51 51 51 52 51 51 51 52 53 53 52 44 36 45 59 59 53 26 25 31 34 30 25 22 20 21 18 16 13 12 14 13 18 20 20 21 23 36 48 49
49 49 50 50 50 51 52 53 52 52 51 52 52 53 52 50 39 31 53 59 59 58 39 19 26 30 29 24 21 20 19 18 15 13 14 13 13 16 17 18 25 29 38 42 49
49 49 49 49 49 50 52 53 52 51 51 51 52 52 52 44 27 23 53 58 57 48 40 29 25 25 27 23 20 16 16 17 16 14 14 13 15 16 18 25 26 24 34 41 45
49 50 50 50 50 51 52 52 52 51 51 51 51 51 45 29 31 30 54 54 43 41 35 32 29 26 25 23 21 17 14 13 14 15 14 14 14 17 18 19 21 22 42 45 46
50 49 50 51 51 51 51 52 52 52 52 51 51 51 43 30 26 27 23 15 11 19 37 32 29 27 25 24 21 19 14 12 14 15 16 13 15 15 20 20 21 22 36 45 46
48 49 49 50 50 50 50 51 51 51 52 51 51 47 40 28 20 23 28 23 15 14 16 34 31 26 25 24 22 19 16 17 15 15 16 15 14 14 15 18 20 20 31 42 46
46 49 50 50 51 51 50 50 50 51 52 51 51 46 36 31 26 26 29 28 30 22 15 15 26 30 31 27 23 20 19 17 16 15 15 16 17 15 17 19 19 25 32 41 45
46 48 50 50 51 50 50 49 48 50 52 52 48 44 34 37 30 25 24 26 26 25 21 18 20 30 30 27 24 21 17 16 15 15 16 17 17 17 20 24 24 28 34 39 44
46 46 49 49 49 49 48 48 47 49 45 43 43 37 35 27 25 28 29 36 32 30 28 21 18 26 27 26 24 21 17 16 17 17 18 17 16 18 24 26 28 28 31 39 44
45 45 47 49 49 48 45 41 31 35 40 30 28 30 26 26 21 21 27 31 35 33 29 21 23 23 25 26 26 23 20 17 16 18 19 20 17 16 20 21 28 29 32 37 44
46 46 47 48 48 48 42 39 34 36 33 33 30 28 26 25 23 22 24 32 32 31 31 30 23 27 24 25 23 23 23 22 19 18 19 18 17 18 17 19 23 28 31 34 43
46 46 46 48 48 42 41 36 36 39 34 29 24 22 23 26 25 24 19 28 31 30 32 34 30 25 24 17 23 24 23 23 19 18 19 17 17 19 18 17 18 24 28 32 43
46 46 48 48 42 39 35 36 38 44 31 24 26 27 30 28 26 23 21 24 35 33 31 38 39 26 30 28 19 22 24 24 21 21 19 19 16 19 19 19 19 22 28 30 35
45 45 46 46 38 33 34 38 40 41 20 21 21 30 27 26 25 23 22 24 30 32 36 34 35 32 30 29 23 24 30 30 23 21 23 18 17 18 17 18 19 23 27 32 34
44 44 46 38 39 38 38 41 43 34 18 15 23 26 26 27 25 26 22 27 32 30 32 31 33 35 35 34 28 28 28 33 28 25 21 20 19 19 19 19 20 21 23 31 35
44 44 43 36 34 39 43 39 31 21 3 0 10 18 18 15 8 23 24 25 25 28 27 31 30 34 35 32 31 28 34 30 26 23 23 21 19 22 22 20 20 21 22 31 37
44 45 41 35 36 42 39 33 24 10 12 5 12 7 10 4 3 22 24 23 24 28 26 29 29 31 36 32 31 27 31 25 23 24 22 21 19 20 22 19 23 23 26 31 35
44 39 38 39 42 42 39 27 17 14 7 2 2 12 11 -1 15 17 26 23 25 26 27 29 28 31 34 35 34 31 26 27 26 28 29 24 20 25 22 21 21 22 25 28 32
37 37 35 41 44 43 34 27 21 17 12 17 13 11 4 6 18 20 26 34 34 31 28 29 31 31 33 33 37 34 32 29 25 24 28 26 25 22 25 23 21 23 30 34 35
39 35 33 42 44 38 28 26 22 21 20 14 16 15 11 10 13 15 24 37 34 31 31 30 34 30 34 36 33 31 27 29 26 24 27 29 27 37 30 25 25 30 32 37 42
39 31 37 43 34 34 30 27 27 19 19 17 18 18 19 20 18 20 20 34 32 31 30 35 33 27 25 26 35 32 30 28 28 26 25 31 28 35 33 28 30 28 28 34 39
36 26 37 45 29 30 27 25 24 21 18 17 18 18 17 16 16 19 23 34 34 35 33 32 31 23 24 25 36 34 33 33 32 34 31 33 26 32 30 28 27 31 30 33 34
37 30 28 40 34 29 25 26 22 23 18 19 18 19 19 15 16 24 28 33 33 31 37 36 31 29 25 29 35 33 31 32 33 33 33 34 31 34 30 26 28 31 32 32 35
37 31 32 29 31 29 28 32 23 20 19 19 18 17 17 21 17 22 20 26 32 34 33 36 34 36 35 33 34 36 32 32 31 32 30 30 30 33 34 33 30 31 30 29 30
35 27 26 32 30 26 25 23 22 25 22 20 20 17 16 16 17 20 19 23 29 31 29 33 31 32 29 30 32 37 32 32 34 32 29 26 28 31 31 31 34 37 38 37 38
35 32 32 29 28 27 30 24 19 21 23 28 27 26 25 23 28 30 31 34 33 30 30 28 31 33 29 35 34 29 32 32 30 29 30 31 35 34 32 31 37 38 39 39 39

GFSSW_sfc_dewp_075.txt.gz
Dewpoint
49 49 50 50 51 51 51 52 53 52 52 52 52 52 53 54 52 42 37 40 46 53 53 35 31 38 38 37 30 28 24 21 19 18 18 18 22 21 20 18 24 27 29 48 56
49 49 50 50 51 52 52 52 53 52 52 52 52 52 54 53 48 40 46 55 56 53 33 27 23 33 36 34 30 25 21 20 20 19 18 16 14 20 23 21 24 30 52 55 54
47 49 49 49 49 51 52 52 53 51 52 52 52 53 53 51 40 34 54 57 57 58 46 34 21 21 32 33 30 25 21 19 20 21 20 17 14 15 18 19 27 31 47 50 50
47 49 50 50 51 50 52 52 52 50 50 50 51 51 52 47 17 26 54 57 58 54 48 38 28 19 24 28 28 25 23 21 19 20 18 16 16 15 20 23 29 23 33 49 49
49 48 49 49 49 50 51 52 51 50 50 50 51 51 47 35 31 35 57 57 53 43 38 36 28 23 24 25 27 25 22 19 18 17 17 16 15 16 18 18 20 24 43 43 48
49 49 48 48 49 49 50 51 50 50 51 50 51 51 45 32 26 24 25 27 20 18 19 32 33 28 28 27 24 25 24 21 20 16 14 14 15 18 19 21 19 20 44 46 46
48 48 47 48 48 48 50 50 50 50 50 49 51 48 42 36 28 31 29 27 27 26 18 16 18 21 30 28 27 26 23 22 19 18 15 14 16 16 17 18 18 20 31 45 46
46 48 48 49 49 50 50 49 49 49 49 50 51 47 40 38 37 35 30 28 28 30 28 20 18 18 29 32 30 27 23 20 20 19 18 17 16 17 17 15 15 17 23 43 47
47 48 47 48 49 49 49 48 48 48 50 51 48 46 39 41 36 34 31 27 27 28 26 21 23 19 31 30 27 26 21 22 19 19 17 16 14 16 18 18 21 23 29 41 46
46 47 48 49 49 48 48 47 45 47 46 44 43 43 42 33 25 23 26 36 36 31 29 27 23 17 29 29 24 25 23 20 18 18 17 15 14 15 22 23 24 26 28 39 45
45 46 48 48 48 48 45 37 34 36 34 35 37 39 36 31 24 19 20 31 35 34 30 29 18 17 19 28 28 27 26 24 21 19 20 19 16 16 19 20 27 27 27 37 44
46 46 47 48 48 48 43 38 35 34 33 35 34 32 31 28 24 24 22 26 32 31 32 30 22 23 24 27 26 27 25 23 23 24 23 23 25 18 19 20 21 28 29 33 44
47 46 46 48 48 43 38 39 39 39 35 31 29 29 30 30 27 26 24 20 30 29 31 30 32 34 32 22 25 24 23 23 22 23 24 21 19 17 20 21 21 27 29 33 45
46 47 47 48 42 37 34 35 40 41 31 26 27 23 27 30 28 27 25 19 35 33 36 37 37 35 36 28 25 25 28 26 23 25 28 30 20 19 19 20 21 19 28 32 44
46 46 46 46 40 35 35 39 40 40 20 26 25 28 29 27 26 23 24 21 31 32 36 30 36 34 36 31 27 27 32 31 33 34 33 30 22 20 21 20 21 20 27 30 44
46 46 46 41 39 37 37 38 41 30 20 22 26 25 25 27 27 26 23 27 31 32 34 32 32 36 36 34 31 35 34 32 35 34 30 31 25 20 20 21 23 21 26 28 44
45 45 42 41 34 36 36 38 30 23 20 12 25 27 27 23 26 27 22 25 28 27 28 28 30 33 36 33 33 33 33 31 30 30 29 27 24 21 24 23 23 24 26 31 45
45 45 42 39 39 37 38 34 22 20 10 11 16 16 13 13 13 21 22 22 27 28 27 25 25 32 34 34 32 31 36 32 27 26 24 24 21 21 24 24 22 21 29 35 44
44 39 38 39 40 39 37 24 20 14 14 14 13 9 14 13 12 21 25 25 25 25 26 27 27 32 33 35 36 35 35 34 33 30 32 32 21 23 23 23 24 24 26 34 43
40 39 36 38 40 39 32 24 21 20 21 21 15 15 13 9 16 21 29 36 34 32 31 31 28 30 32 38 39 36 36 31 34 28 27 28 29 21 24 22 23 23 27 29 38
40 35 34 37 41 35 26 25 24 25 25 20 17 16 17 17 19 16 32 36 34 31 31 31 34 30 36 37 36 36 36 37 36 35 28 30 33 39 35 31 27 31 32 36 38
38 29 34 40 31 33 26 25 28 25 25 24 23 19 19 20 19 19 25 34 34 32 33 37 37 30 28 32 36 34 38 37 34 31 31 29 32 40 36 31 30 31 30 32 38
34 32 34 40 27 27 29 26 26 25 26 23 21 21 21 18 18 20 31 34 35 34 31 33 34 29 25 27 27 33 37 37 37 37 34 31 32 40 33 30 28 30 32 33 38
33 27 29 33 34 30 26 25 25 26 25 22 21 21 20 21 22 19 25 35 36 34 38 36 31 28 27 31 35 35 38 36 36 35 33 33 34 39 39 33 32 33 34 35 37
33 30 32 20 29 31 31 32 28 24 25 23 22 19 20 19 22 23 24 34 34 36 36 36 30 32 32 30 33 33 34 38 35 36 36 36 34 39 40 39 38 38 39 39 39
32 30 32 32 32 33 28 26 26 27 29 27 23 22 25 19 19 20 26 28 29 36 34 35 30 32 29 29 32 33 36 37 39 36 37 37 37 42 42 43 38 38 38 39 40
37 34 33 28 26 29 31 29 25 25 24 27 33 32 30 31 33 32 33 33 33 33 36 33 30 28 27 31 32 32 35 38 38 39 39 37 39 42 43 39 38 38 39 39 42

GFSSW_sfc_dewp_078.txt.gz
Dewpoint
49 49 50 50 50 50 50 51 52 51 51 51 51 51 52 54 53 46 35 41 48 55 54 36 39 39 39 37 34 29 25 24 24 23 23 23 21 19 22 20 28 29 41 47 57
47 48 49 50 50 50 51 51 52 51 51 51 51 51 53 53 48 42 45 52 57 57 33 28 26 28 36 36 36 30 25 25 25 23 21 22 19 17 20 21 22 46 55 56 56
47 47 48 49 49 50 50 52 52 50 50 50 51 51 52 51 40 32 54 55 59 56 40 37 25 21 33 35 33 30 28 26 23 21 22 21 21 22 16 18 24 37 53 54 55
47 47 47 48 49 49 50 51 50 49 49 49 49 50 52 47 -4 28 58 58 58 55 49 40 35 20 21 30 33 30 29 26 25 24 22 20 20 19 18 21 26 39 53 54 52
47 47 47 47 47 48 50 50 50 49 48 48 49 50 48 38 35 34 52 51 53 46 41 39 30 21 20 23 25 28 28 28 27 24 22 21 20 19 18 17 21 29 49 51 50
48 48 47 46 46 46 48 49 49 49 48 48 48 49 46 32 29 27 27 28 46 36 29 30 34 30 25 26 26 27 26 27 26 24 21 19 18 17 18 20 19 31 44 48 49
47 48 48 46 46 47 48 49 49 49 48 47 48 46 41 36 34 28 34 32 29 28 27 24 19 17 23 27 31 29 26 25 25 24 22 20 17 17 16 19 18 18 35 43 47
46 48 49 48 48 49 49 48 48 48 48 47 48 46 39 39 40 38 37 31 30 29 30 30 24 19 20 29 30 28 28 25 25 23 22 19 19 19 19 17 17 17 18 43 45
46 47 48 48 49 48 48 48 48 48 47 48 48 46 38 45 40 38 34 31 31 29 30 28 26 20 21 28 27 28 24 24 23 24 22 19 18 19 18 18 17 16 17 39 45
46 46 48 48 48 48 48 47 46 48 46 46 45 43 42 33 31 22 27 32 34 36 29 25 22 17 26 28 23 24 24 24 22 23 21 21 18 18 19 18 17 18 26 40 45
46 45 46 48 48 48 45 40 36 33 35 36 39 39 39 38 32 25 24 21 35 35 30 29 22 21 16 24 29 28 27 26 26 27 26 26 23 23 24 24 17 19 26 40 45
46 45 45 46 47 47 43 37 35 38 34 35 35 33 34 33 31 30 28 21 33 31 33 32 25 25 22 24 24 26 26 25 26 26 24 23 22 26 26 25 21 22 26 36 46
46 45 45 47 47 42 34 35 38 40 33 32 31 30 31 32 29 23 27 23 29 30 31 30 31 30 26 31 33 26 24 25 24 28 27 24 25 27 28 25 20 23 27 33 46
46 47 47 47 37 38 34 35 37 39 29 27 29 30 30 31 28 28 27 20 25 30 34 34 37 36 35 34 33 31 25 26 28 30 27 30 26 28 29 28 22 22 26 33 46
46 45 47 46 40 36 35 36 36 39 12 18 26 28 29 27 27 26 25 24 33 32 34 30 33 34 34 35 35 33 28 29 32 32 33 28 28 27 28 24 22 22 23 35 46
44 45 46 41 38 39 37 36 39 26 15 21 27 23 28 28 28 23 21 28 31 33 34 31 33 34 34 35 35 32 32 31 33 33 28 26 30 27 26 25 23 24 24 34 46
44 45 43 41 36 37 37 37 26 20 17 18 25 25 27 26 25 22 22 29 26 26 27 28 29 31 35 33 34 34 33 28 27 28 24 26 28 27 29 27 25 24 23 34 46
43 45 41 39 39 38 40 34 20 16 17 19 21 23 23 24 24 24 22 23 27 27 27 24 22 31 35 32 33 34 35 31 23 26 26 28 25 25 28 28 26 25 28 40 46
44 39 37 38 39 39 36 24 18 19 19 23 21 14 20 11 15 24 22 22 25 27 24 26 26 31 33 34 34 37 35 36 35 36 31 31 29 24 24 24 24 24 38 44 46
40 37 34 38 39 38 31 23 21 21 22 22 20 20 17 17 19 19 29 36 33 31 30 30 26 30 35 35 37 36 40 34 35 27 26 28 28 26 33 31 25 24 35 44 45
37 33 33 37 40 34 22 21 21 22 21 24 24 22 19 19 18 19 32 35 33 31 32 34 31 30 37 35 35 37 37 37 35 34 31 29 32 37 39 39 33 30 32 41 45
33 27 34 40 30 30 24 23 26 21 25 23 25 25 22 21 19 18 27 33 35 33 31 37 33 28 29 31 38 39 37 37 31 31 33 32 32 44 44 40 33 31 35 37 44
33 31 34 38 25 24 27 25 24 22 22 24 26 24 23 21 17 22 32 35 35 33 32 33 31 25 25 29 36 33 35 36 39 37 34 31 32 44 43 42 38 37 39 39 41
33 25 29 31 31 29 25 24 24 26 26 23 21 25 24 22 24 21 28 35 35 37 37 36 31 28 24 28 33 34 35 36 38 33 31 33 33 40 42 43 42 39 41 42 43
32 23 29 26 28 29 29 28 26 23 25 26 24 25 23 20 19 19 26 34 35 38 36 35 28 31 31 31 30 29 34 33 34 36 33 31 35 41 45 45 42 40 42 44 46
30 29 31 32 33 30 32 27 29 26 32 28 28 28 30 26 26 26 27 28 30 34 34 35 28 30 28 28 30 31 33 31 32 36 35 35 37 42 47 47 41 39 41 44 46
37 35 33 27 25 26 27 28 32 35 32 30 30 31 30 31 35 34 33 32 32 34 33 33 33 28 23 29 28 28 32 32 32 37 37 35 36 44 46 44 43 39 42 45 45

GFSSW_sfc_dewp_081.txt.gz
Dewpoint
48 48 48 49 50 50 51 51 51 51 50 50 50 50 51 53 52 45 36 35 45 52 53 40 43 42 39 36 34 28 25 23 23 23 21 24 23 23 22 19 21 35 49 48 56
47 47 47 48 49 50 49 50 51 50 50 49 49 49 52 52 48 42 44 51 55 56 40 33 28 35 36 36 36 32 26 23 25 22 23 25 22 22 21 22 22 33 52 57 57
48 47 47 47 47 47 49 50 50 49 49 48 48 48 51 51 41 17 52 54 55 56 40 35 27 26 32 35 34 32 25 25 25 26 26 25 21 22 21 20 22 25 42 56 56
47 47 47 47 46 46 48 49 48 48 48 48 48 48 51 47 -10 32 56 57 57 54 46 44 31 19 18 26 33 31 30 29 28 28 26 24 25 22 21 22 24 23 42 55 55
47 47 46 47 47 46 48 49 48 48 47 48 48 48 46 39 35 32 49 40 49 49 47 40 29 22 17 20 24 28 31 30 29 28 26 25 24 23 23 22 22 21 50 54 54
47 46 46 47 47 46 47 48 49 49 47 47 46 47 41 34 28 29 28 30 33 45 41 35 35 30 24 23 22 25 26 26 27 28 27 26 25 23 23 22 19 19 32 52 53
47 47 47 47 46 46 48 48 48 48 47 47 47 44 40 37 37 34 35 32 29 28 25 24 20 19 23 19 27 30 28 28 27 26 25 25 22 21 21 20 18 17 31 46 50
47 47 48 48 48 48 48 48 48 48 49 48 47 44 38 41 40 39 38 35 34 32 29 30 27 21 17 20 26 28 28 25 26 26 25 22 23 23 22 19 18 18 19 40 47
47 47 48 48 48 48 48 47 48 49 49 47 46 44 37 44 42 41 36 30 30 31 28 28 24 21 21 21 24 28 23 24 25 25 24 20 20 23 21 19 19 18 18 21 41
47 47 47 47 47 47 46 47 47 47 46 46 46 42 40 31 37 32 35 33 31 35 31 25 22 18 25 24 19 24 25 25 24 24 25 24 25 27 26 24 21 19 19 19 38
47 47 46 47 46 47 44 40 36 36 37 34 37 39 37 37 34 28 26 24 30 34 28 28 21 19 17 24 25 27 26 26 27 27 26 25 25 25 27 25 26 26 24 21 35
45 45 45 46 47 47 36 35 34 36 34 37 37 36 36 35 31 30 28 20 32 31 32 32 26 25 23 21 20 22 23 23 26 27 26 26 26 26 26 26 27 26 26 21 43
45 45 45 47 47 39 35 34 35 35 35 33 32 30 32 33 31 26 28 24 29 30 31 30 31 33 27 24 25 27 28 25 25 27 27 26 25 23 25 28 30 30 24 24 44
45 45 46 47 36 38 31 35 35 37 29 25 30 31 29 32 29 26 24 23 22 28 30 32 35 35 32 33 33 30 32 30 25 29 24 32 25 29 29 28 28 29 24 29 43
45 44 46 45 39 36 34 37 37 38 9 13 26 31 31 25 27 25 27 23 23 33 32 30 33 33 33 33 35 31 35 31 31 30 30 28 29 27 28 27 28 29 25 27 40
44 44 45 40 38 37 38 38 38 25 12 17 27 26 27 28 27 23 23 27 33 34 33 30 33 34 32 34 34 35 32 31 30 32 27 27 27 25 25 26 27 28 26 26 39
44 44 43 41 35 38 38 37 24 18 14 15 20 23 25 27 26 22 24 28 28 27 28 28 30 32 35 32 34 34 32 24 22 25 22 26 25 25 26 29 30 29 27 28 41
44 44 42 40 39 38 37 30 17 10 14 19 22 22 22 26 26 23 20 22 28 26 26 24 21 29 35 32 31 33 33 27 21 23 26 24 23 24 29 30 30 31 30 28 39
42 37 37 38 39 38 32 21 15 17 20 21 21 24 25 25 21 23 21 19 26 28 22 25 25 31 34 34 33 34 33 35 34 33 31 29 32 29 40 29 37 37 33 33 41
37 36 34 37 39 36 27 20 22 22 21 19 20 29 25 26 20 21 25 35 32 29 29 29 25 29 36 35 35 35 39 34 32 25 25 27 28 34 40 39 38 34 33 36 46
34 28 32 38 38 33 22 18 21 20 22 23 24 28 30 28 21 18 32 35 34 32 33 33 29 28 35 34 32 35 32 36 36 33 29 28 32 40 41 41 40 39 38 43 46
32 19 34 39 27 27 24 23 23 21 25 23 24 24 29 30 24 22 30 35 37 36 33 36 33 26 28 31 36 36 34 36 32 32 34 31 29 43 42 41 41 40 42 42 46
29 30 33 35 22 25 26 25 24 22 21 21 23 26 31 30 26 24 32 36 35 33 33 33 29 23 19 30 37 35 36 36 37 36 30 28 28 41 40 40 43 41 44 44 47
32 23 25 30 25 21 22 23 24 24 25 25 24 22 20 28 29 23 27 34 35 35 37 34 30 26 20 23 32 30 32 33 34 32 33 31 32 39 41 40 42 43 46 47 48
33 23 25 15 24 27 25 22 21 20 24 23 23 26 25 28 27 19 29 34 35 37 36 32 26 30 30 30 30 30 29 29 29 31 30 28 35 37 42 43 44 45 45 44 45
27 27 29 25 29 28 27 28 28 24 31 26 25 27 30 30 26 26 27 28 30 34 34 34 27 29 27 27 28 28 25 28 30 32 32 32 34 41 46 46 46 44 43 42 43
36 34 34 25 25 25 25 27 27 31 33 31 31 31 30 30 33 33 32 32 32 33 33 32 30 27 20 25 25 24 30 32 33 34 31 30 34 44 44 46 45 46 43 40 40

GFSSW_sfc_dewp_084.txt.gz
Dewpoint
48 48 47 47 48 48 48 48 49 49 49 49 49 49 49 51 51 45 37 34 45 52 55 45 43 42 38 35 32 28 21 21 20 21 17 25 24 24 23 21 24 28 40 48 55
48 47 48 47 47 47 47 47 47 48 48 48 48 48 49 51 47 42 42 47 52 53 38 33 31 38 36 35 35 29 25 20 23 22 20 22 28 24 24 24 23 25 38 55 59
48 48 47 47 47 47 47 48 47 47 48 48 48 48 50 49 39 10 56 53 53 56 41 33 28 32 32 35 34 32 25 24 25 25 24 24 25 23 22 21 25 25 28 53 57
48 48 47 47 47 47 48 49 47 46 47 48 47 48 48 46 -16 33 52 52 56 52 43 42 30 21 23 27 34 31 32 28 26 26 27 25 26 25 23 25 27 25 26 47 55
48 48 47 47 47 46 48 48 47 47 47 47 47 47 44 38 34 32 45 39 45 50 44 42 29 21 16 18 22 28 32 31 30 29 28 28 26 27 26 25 25 25 24 38 53
48 48 47 47 47 46 47 48 48 48 47 47 47 46 42 30 30 29 33 32 30 46 41 41 35 28 23 21 20 23 24 24 26 27 28 27 27 28 28 26 24 22 20 32 47
48 48 47 47 47 46 46 48 48 48 48 48 48 44 40 32 36 37 39 34 29 38 32 26 25 18 20 17 23 28 28 28 28 27 26 27 24 24 26 25 23 21 20 21 43
48 48 49 48 47 47 47 46 47 48 50 50 49 44 38 39 41 40 39 37 36 33 30 29 26 25 18 19 22 26 27 25 25 27 27 25 21 23 25 24 23 21 20 21 32
46 47 48 48 48 47 47 47 47 48 48 48 44 43 36 42 40 42 39 34 32 33 31 28 26 23 20 20 17 24 20 23 24 26 25 23 23 24 24 22 20 20 20 19 22
45 46 46 48 48 47 47 44 45 47 46 46 44 40 37 30 38 36 37 36 30 33 28 27 23 19 21 18 14 18 22 24 25 25 27 26 25 27 28 27 27 26 25 23 21
45 45 45 46 46 47 40 36 34 34 35 33 34 39 39 38 36 30 31 28 27 34 28 25 21 19 19 24 21 23 24 22 22 25 26 23 23 25 27 27 26 26 27 27 27
45 45 45 45 45 45 36 34 32 33 31 34 35 34 34 34 31 30 32 24 31 31 31 31 24 23 21 20 20 20 19 19 23 25 24 25 25 26 27 27 27 26 26 28 27
44 45 45 46 45 37 35 34 36 35 31 32 32 32 34 35 32 29 28 23 25 30 31 29 30 32 27 26 23 23 25 27 27 30 26 27 24 23 24 26 26 28 28 29 27
45 44 45 46 36 38 29 35 37 37 28 25 29 31 30 32 31 30 27 24 23 27 31 31 31 32 29 27 26 29 32 32 30 28 23 30 24 22 26 29 30 30 30 30 28
44 44 44 45 37 35 33 37 37 38 13 9 22 31 31 28 24 25 26 23 21 29 32 28 34 34 33 32 34 31 36 34 32 30 28 27 26 24 26 25 28 29 29 29 28
43 44 44 39 37 36 38 38 37 24 10 15 21 20 23 28 28 24 24 30 30 34 33 27 33 32 29 33 34 34 33 31 30 29 25 24 25 24 25 26 28 28 30 29 27
43 44 43 41 34 37 37 35 21 16 14 7 20 21 22 20 26 22 25 30 28 26 27 28 30 32 35 30 34 33 31 23 22 25 22 25 25 25 27 27 27 29 30 30 28
43 42 41 40 38 38 35 28 14 7 14 19 19 22 25 30 26 24 24 24 28 25 26 24 19 29 34 30 29 33 31 24 20 21 25 29 22 24 40 40 40 40 37 32 31
42 36 35 36 37 37 28 18 12 18 21 20 19 26 25 29 31 24 21 21 24 27 21 23 23 32 34 34 33 33 31 34 31 30 29 28 29 35 41 41 41 41 40 41 36
35 33 32 36 38 34 25 17 19 22 20 21 18 27 25 26 29 27 26 31 29 29 28 28 23 30 35 34 34 33 39 33 33 22 22 25 28 32 38 38 41 42 42 45 43
32 28 29 37 37 33 19 20 20 20 21 21 22 21 24 25 29 28 28 35 33 32 32 31 27 28 34 33 32 35 33 36 35 34 26 23 27 40 39 39 39 41 45 47 43
30 21 32 38 27 27 18 22 23 23 24 22 25 24 23 26 25 29 31 35 37 36 33 36 31 26 27 30 35 35 32 32 31 28 31 28 27 43 43 40 40 40 44 47 47
28 27 32 33 11 17 27 24 24 24 22 21 21 21 32 24 24 29 33 38 39 35 35 34 29 21 16 27 36 35 35 37 35 35 31 29 27 40 38 39 40 41 45 46 49
26 22 24 32 24 22 23 21 21 27 25 24 23 25 23 22 25 26 30 36 37 36 37 33 30 22 16 20 29 27 29 31 32 28 26 29 30 30 38 40 40 44 44 45 47
29 20 24 19 21 23 27 25 22 21 23 23 22 23 21 24 27 28 32 35 36 36 36 29 26 29 28 28 29 28 28 28 29 28 27 25 27 30 35 41 44 45 43 44 44
25 26 30 23 26 25 25 23 23 26 29 25 24 23 24 28 27 29 30 28 30 33 33 34 27 29 27 26 25 27 24 22 23 25 28 28 30 33 37 46 45 41 40 41 41
36 34 32 25 24 21 22 24 27 30 29 29 29 31 30 31 30 33 35 34 32 32 31 31 28 25 19 23 25 19 25 29 29 31 30 30 31 39 42 45 45 41 38 38 38

GFSSW_sfc_dewp_087.txt.gz
Dewpoint
48 48 48 48 48 48 48 48 48 48 48 48 48 48 49 49 50 44 36 32 44 49 53 46 41 41 37 34 31 27 19 18 17 18 15 22 22 24 23 22 23 25 34 38 55
48 48 48 48 48 47 47 47 47 47 47 48 48 48 48 49 44 39 42 46 50 53 40 40 37 39 35 34 33 27 23 20 21 19 16 18 21 21 23 23 23 25 30 43 57
48 48 48 48 47 47 47 47 46 47 47 47 47 48 48 48 32 8 56 55 51 54 39 32 33 35 31 35 34 30 24 23 22 22 23 19 21 21 20 21 25 24 29 42 47
48 48 48 48 47 47 47 48 46 46 47 47 48 47 48 44 -17 32 48 50 55 51 42 38 25 25 25 29 34 28 32 27 23 24 26 24 21 22 24 25 28 28 29 29 38
49 48 48 48 47 46 47 48 46 46 46 48 48 48 44 31 21 30 42 40 41 47 39 40 26 22 19 20 23 31 31 31 30 30 28 28 27 28 28 28 28 28 28 29 30
48 48 48 47 47 46 46 47 47 46 47 48 48 47 42 24 23 30 36 35 25 47 41 42 35 27 22 19 19 22 23 24 26 26 26 26 26 27 26 29 29 28 28 28 28
45 46 47 47 47 46 46 47 47 48 48 50 50 44 40 33 30 33 36 35 31 29 39 39 37 23 25 19 23 24 21 26 28 28 27 28 22 24 27 28 28 28 28 28 27
45 45 46 47 46 46 46 47 47 47 50 50 50 43 38 39 39 40 40 38 38 36 30 30 27 24 22 22 21 21 24 19 24 28 28 26 19 22 24 26 25 26 26 27 27
45 45 45 46 46 47 47 47 46 47 48 49 44 42 35 41 39 40 41 37 33 35 32 28 28 26 20 20 16 21 12 22 22 26 26 25 22 25 28 28 28 27 27 26 26
44 44 44 45 46 46 47 45 44 47 42 45 43 38 35 35 37 36 39 38 33 32 28 28 26 23 21 17 7 11 17 23 21 25 24 21 21 22 26 26 28 29 29 30 30
44 44 45 45 46 47 41 36 32 30 31 28 27 30 28 24 32 31 33 30 27 33 22 25 23 20 20 21 16 21 22 21 21 21 20 19 20 22 25 25 26 27 28 29 30
44 45 45 45 45 44 37 33 32 33 31 32 32 31 32 30 28 26 29 26 28 28 30 28 23 24 23 22 22 19 17 17 22 23 26 26 26 26 26 25 25 27 28 29 30
44 44 45 45 44 39 35 34 36 37 32 31 32 30 31 34 31 28 27 24 24 28 30 27 28 30 22 21 19 20 20 23 23 28 29 27 23 22 24 25 26 26 28 28 29
43 44 45 46 35 38 30 37 38 38 26 19 24 28 30 32 31 33 27 25 24 23 31 30 30 31 28 26 26 24 27 27 30 28 20 29 18 19 24 26 27 29 30 30 30
42 43 44 43 39 35 34 39 38 38 -3 9 17 30 29 26 24 26 29 25 22 27 31 27 33 32 29 29 29 29 34 31 30 29 28 26 25 23 24 22 26 29 30 33 34
42 43 43 40 38 37 39 38 38 19 1 10 16 18 14 21 27 24 25 26 25 31 32 25 34 34 32 33 34 34 30 30 31 28 24 24 24 20 22 26 34 38 37 34 34
42 42 41 41 34 38 39 34 19 7 11 10 18 19 15 30 30 28 22 21 25 22 24 30 30 32 34 30 34 31 29 24 24 23 18 25 24 24 28 39 41 42 42 42 40
42 42 39 40 39 39 36 26 4 5 9 20 19 18 13 30 29 31 31 18 28 24 21 21 21 30 34 29 29 31 30 23 16 21 22 29 24 23 40 41 41 42 44 46 47
41 36 35 37 39 37 30 17 5 20 21 19 18 16 23 24 25 29 28 26 24 27 23 22 24 32 33 33 33 33 30 32 29 29 25 23 28 31 39 39 39 41 43 45 47
36 34 32 37 39 35 26 15 15 18 18 18 15 21 19 19 15 23 27 30 24 28 29 27 26 31 33 34 34 33 36 31 31 22 21 22 24 24 37 38 39 40 43 46 48
34 29 29 38 39 32 19 19 19 19 21 19 17 17 16 17 20 22 26 33 36 31 30 30 27 29 35 32 31 33 32 33 34 33 25 23 23 39 38 37 39 41 43 46 48
31 22 32 38 26 28 23 24 25 21 22 20 21 20 19 19 26 25 27 29 35 37 31 34 29 25 25 30 35 34 32 31 29 27 32 29 26 39 33 37 40 43 44 46 47
28 27 32 34 17 21 23 22 21 21 21 21 19 18 19 21 21 20 28 33 35 35 34 33 28 17 28 31 35 32 36 34 32 31 28 27 25 37 28 32 38 43 44 44 45
27 20 24 32 26 24 23 21 20 23 24 24 22 24 21 21 21 23 25 33 35 37 38 35 29 19 11 21 28 27 27 26 30 26 21 23 23 26 26 29 37 42 42 42 42
28 23 25 19 23 26 25 24 21 21 24 24 23 22 19 19 24 24 30 33 36 37 35 31 25 28 26 27 27 26 25 26 25 24 22 19 20 24 30 32 40 41 40 39 39
28 25 30 25 26 22 24 22 21 25 28 23 26 23 23 23 24 27 32 32 31 34 33 34 27 29 23 25 24 22 22 21 21 23 23 24 27 32 35 38 41 39 37 36 36
36 35 30 23 24 22 21 23 26 29 27 25 28 29 26 27 32 33 34 36 34 32 32 31 30 27 21 23 22 16 22 22 23 28 31 27 30 32 38 40 40 37 35 34 34

GFSSW_sfc_dewp_090.txt.gz
Dewpoint
48 47 48 47 48 48 48 48 47 47 47 48 48 48 49 49 49 35 28 32 38 53 48 44 35 31 29 29 31 26 18 14 12 13 11 14 15 14 17 16 18 23 25 30 42
47 47 47 48 48 47 48 47 46 46 47 47 48 48 48 49 40 27 41 51 49 51 29 34 31 34 26 25 27 24 21 19 19 17 14 12 12 12 17 16 18 21 23 25 33
48 48 47 47 47 47 47 47 46 46 46 47 48 48 49 47 30 2 51 55 51 49 39 29 28 33 28 28 28 25 21 22 21 21 19 17 16 16 15 15 17 20 22 23 34
48 48 48 48 47 47 47 47 46 45 46 47 48 49 49 38 -9 30 44 48 50 46 37 31 27 30 25 25 26 26 24 24 22 21 19 19 18 17 18 21 21 19 21 25 27
48 48 48 47 47 47 46 47 46 45 47 48 49 48 42 21 7 17 39 41 36 41 35 29 24 23 20 17 20 25 21 21 23 23 22 22 21 21 22 23 24 24 26 29 29
45 46 46 46 46 46 45 47 47 46 47 49 50 46 39 18 12 25 28 25 21 35 34 33 28 23 20 19 18 19 21 21 22 22 24 23 23 24 25 25 25 26 26 28 29
45 45 45 45 45 45 45 46 47 48 48 50 50 44 39 24 28 27 26 25 24 22 30 33 35 33 26 26 26 26 24 24 23 24 24 25 24 23 22 23 24 24 26 26 27
44 44 45 45 46 45 46 47 48 47 49 50 50 43 32 35 34 36 37 36 33 26 24 24 31 32 29 22 21 20 20 17 14 20 23 24 17 14 20 22 23 24 25 26 27
44 44 44 45 46 47 48 48 46 47 49 49 44 42 27 37 35 37 38 35 34 34 30 21 27 27 21 19 15 15 10 10 12 23 23 24 16 18 24 25 24 25 26 26 28
44 44 45 45 46 47 46 45 44 47 40 41 41 36 32 23 20 34 26 36 33 32 30 21 22 22 21 15 7 5 5 10 12 13 22 19 17 18 20 18 19 19 22 25 27
43 44 45 45 45 46 38 31 23 27 25 21 18 22 19 17 21 19 20 28 30 28 20 19 18 18 16 19 15 10 12 10 14 17 16 14 11 10 16 18 21 20 20 21 24
43 44 45 45 45 43 34 30 31 33 29 28 27 27 28 28 28 26 23 25 24 24 23 22 18 14 18 18 19 17 11 8 9 15 20 18 19 22 21 21 21 21 21 22 23
43 44 45 45 42 38 33 34 36 36 31 23 25 27 28 31 28 25 26 18 20 21 26 20 19 19 19 23 23 20 17 16 15 18 23 24 19 13 21 22 22 23 24 25 26
42 43 44 44 36 35 29 33 36 40 23 7 17 28 21 30 28 20 28 25 14 13 22 27 25 26 24 22 20 17 18 19 19 23 18 24 8 10 14 17 23 28 32 32 32
42 42 43 42 35 29 31 37 37 41 -2 6 13 29 18 14 15 16 28 27 23 14 22 23 26 24 24 22 22 19 28 27 27 26 23 20 19 10 17 19 26 33 39 40 38
41 42 41 37 37 33 37 38 40 21 -8 2 8 15 11 2 15 21 24 26 23 20 20 20 30 28 25 25 28 29 31 29 26 24 20 18 18 7 18 26 34 38 40 42 42
42 42 37 36 29 38 39 33 17 2 -3 1 14 14 8 4 17 26 25 23 21 18 20 19 24 30 31 31 31 28 24 22 22 22 14 21 19 16 25 37 39 39 40 42 44
41 40 38 35 38 40 36 22 3 -8 1 16 15 11 5 19 18 26 25 21 22 20 13 20 19 26 31 26 26 26 25 19 11 14 14 22 21 22 36 39 38 39 40 41 43
40 36 36 39 42 40 27 16 -2 11 18 17 13 6 9 20 15 15 18 22 22 21 14 13 14 24 30 27 27 29 29 28 27 24 23 15 20 32 34 35 36 37 39 41 44
34 32 34 41 43 36 28 12 9 12 14 14 9 10 15 14 14 15 16 33 33 31 28 24 18 28 31 31 33 31 30 29 29 21 18 15 17 21 34 32 34 36 40 42 46
36 28 37 41 41 30 25 13 16 17 18 16 12 12 13 14 11 13 17 23 33 32 31 32 26 30 32 30 28 32 30 32 31 30 25 19 22 37 33 31 31 37 40 43 48
35 30 37 39 29 29 21 17 22 16 19 19 20 17 17 18 21 22 24 23 32 34 29 32 28 26 27 33 30 30 28 30 27 28 28 28 23 34 33 25 25 33 40 44 45
31 26 34 38 26 23 20 17 19 19 18 18 17 17 17 16 18 20 22 28 31 34 34 32 26 23 26 28 31 28 34 32 30 30 27 25 23 34 26 21 28 33 41 42 42
36 30 26 32 32 25 22 17 17 18 20 21 21 22 20 18 18 19 20 29 33 34 37 38 27 19 15 23 28 30 27 26 28 27 21 22 19 19 21 29 32 37 41 41 40
36 29 28 27 24 25 26 24 20 19 22 21 22 22 23 21 17 19 26 33 35 37 35 32 25 24 22 22 20 19 19 21 23 22 19 15 16 22 28 33 33 40 39 39 37
33 26 29 27 25 28 23 23 22 23 27 22 26 23 23 25 20 21 28 30 33 34 33 30 26 24 18 20 20 18 17 17 17 18 21 21 23 24 32 34 40 38 36 36 35
35 33 31 23 19 23 21 23 24 30 24 26 32 30 25 24 26 28 30 33 33 33 32 29 26 19 18 15 16 14 18 18 19 21 25 24 28 32 35 39 38 37 35 34 33

GFSSW_sfc_dewp_093.txt.gz
Dewpoint
47 46 47 47 48 48 48 48 48 47 47 47 48 49 49 50 50 36 26 29 34 51 47 24 37 36 29 24 31 28 23 19 17 15 15 12 12 11 12 11 10 17 18 30 34
47 47 47 47 48 48 48 47 47 46 46 47 48 49 50 51 42 30 42 54 55 48 32 19 26 25 26 27 28 27 24 21 18 17 15 14 13 13 14 14 14 15 22 23 24
48 48 48 48 48 47 47 47 47 46 46 47 48 49 50 49 32 17 49 51 54 49 34 20 22 22 24 22 23 25 24 23 20 19 20 18 16 16 14 14 17 18 22 22 21
48 48 48 48 47 47 47 47 46 46 46 47 49 50 50 43 8 29 42 43 52 42 37 32 23 20 23 21 21 22 23 24 23 21 21 21 20 18 19 21 20 19 19 21 22
45 45 46 46 46 46 46 46 46 46 47 48 49 50 46 27 13 29 38 39 33 39 34 28 27 23 20 20 18 21 22 22 24 22 23 22 20 20 20 21 21 21 22 24 23
45 45 45 45 46 46 46 46 46 47 47 48 50 49 42 23 9 16 20 17 14 26 28 29 26 24 22 19 17 15 14 16 18 19 20 21 22 23 24 23 23 23 24 26 27
44 45 45 45 46 46 46 46 47 48 48 50 51 46 35 25 21 23 24 21 15 15 16 23 27 28 28 25 23 23 21 23 21 21 21 23 22 23 23 23 23 23 24 25 26
44 45 45 45 46 46 47 48 47 48 49 50 51 41 32 25 28 26 30 30 28 19 15 18 24 29 29 29 24 17 18 12 11 13 15 19 21 19 17 19 22 22 22 24 25
44 44 44 46 46 47 48 48 47 47 49 50 46 40 28 35 31 28 29 30 30 31 28 15 18 20 19 19 17 17 10 10 8 9 15 16 17 15 18 20 22 23 23 23 25
43 44 45 45 46 47 47 46 45 48 44 37 36 35 31 17 15 13 16 26 29 29 29 21 14 14 14 14 9 5 5 5 6 6 11 18 18 16 15 19 20 18 18 19 22
43 44 45 45 45 47 42 28 23 30 21 14 14 15 12 17 26 24 18 11 16 28 25 23 11 11 12 15 11 10 8 7 4 3 14 15 13 9 10 10 11 13 15 16 17
42 44 44 44 44 45 36 26 29 31 26 22 20 19 21 25 26 23 23 13 16 19 22 20 16 13 14 13 13 14 12 15 9 5 5 6 12 12 12 14 16 17 17 17 17
42 42 44 44 44 40 30 30 32 34 28 19 19 23 25 28 25 23 25 22 17 11 12 18 16 15 14 12 14 16 16 14 9 9 12 15 13 14 15 16 16 17 18 20 23
42 42 43 43 40 31 28 30 33 39 25 15 12 23 23 22 21 24 12 23 23 17 9 15 17 16 20 14 16 17 15 13 15 14 11 20 10 12 12 12 16 21 28 35 37
41 42 42 42 32 26 28 33 35 40 6 1 10 28 18 10 6 7 19 21 19 21 19 11 5 17 22 18 18 19 18 16 17 18 19 18 14 12 12 8 19 28 34 37 39
41 42 42 36 35 31 33 37 37 27 -2 2 3 12 13 9 3 -1 10 21 22 20 21 18 7 18 20 23 22 19 21 24 25 23 19 17 13 9 10 22 30 35 36 39 40
41 41 37 33 31 35 38 33 18 7 -3 -1 10 13 11 5 -2 5 15 17 14 16 20 15 10 29 23 20 23 23 26 22 19 17 14 12 11 12 23 33 34 35 37 39 42
41 39 37 34 38 40 35 24 8 -4 -6 8 12 10 7 2 3 12 13 11 15 14 17 17 9 22 25 23 22 23 23 18 12 14 12 14 15 11 29 34 33 36 38 39 42
40 36 37 39 42 38 29 21 7 7 9 10 9 7 6 13 28 14 12 11 15 30 24 17 14 16 23 22 23 23 24 22 23 24 23 21 17 30 30 34 33 33 37 39 42
32 31 33 41 42 36 30 16 8 9 11 11 8 8 8 8 10 11 10 21 28 35 33 33 23 24 21 22 22 24 23 25 26 18 14 8 8 26 33 31 29 29 36 39 43
34 27 35 39 39 26 29 13 12 12 12 12 11 10 10 10 11 12 10 12 35 33 33 31 31 27 24 23 19 24 29 27 26 22 19 16 22 35 29 26 25 28 35 40 44
34 33 36 38 29 25 20 15 20 13 14 14 16 14 14 16 15 14 17 21 32 30 30 29 35 28 21 23 20 24 25 28 25 24 23 27 28 32 30 23 27 31 37 40 43
30 25 35 37 29 25 16 13 14 15 14 14 14 15 17 17 17 15 18 23 26 33 32 35 34 29 29 31 31 26 25 25 30 29 27 24 22 28 21 23 30 32 38 40 41
37 33 25 26 30 25 21 15 14 17 17 18 18 18 19 20 19 16 17 20 31 35 38 37 32 30 24 24 30 30 29 29 28 27 21 21 18 20 21 27 30 37 39 40 40
37 30 26 29 23 25 23 24 19 18 22 21 21 20 24 23 19 17 24 33 33 36 37 35 29 27 27 24 23 25 24 24 24 24 18 16 14 19 28 32 35 38 38 38 37
36 26 26 27 23 25 26 22 20 21 24 21 23 23 24 23 19 21 23 26 32 36 35 36 28 22 18 16 15 16 16 16 16 16 15 17 19 30 31 34 37 38 36 35 34
32 31 28 21 20 23 23 21 24 32 25 24 29 30 26 27 30 29 29 30 31 34 35 32 23 19 17 13 11 13 13 14 15 21 28 25 29 30 31 34 34 34 34 33 33

GFSSW_sfc_dewp_096.txt.gz
Dewpoint
48 48 47 48 48 49 49 49 48 48 48 48 48 49 50 51 51 39 31 37 36 49 45 16 15 34 30 28 32 31 26 23 22 21 20 20 17 15 11 10 9 15 17 29 42
47 48 48 48 49 49 48 48 48 48 47 47 48 49 50 52 45 37 46 54 55 48 28 16 10 27 27 27 25 25 28 25 23 21 19 17 15 14 13 12 12 15 22 23 31
48 49 48 49 48 48 48 48 47 47 47 47 47 49 51 50 38 28 52 53 53 52 33 29 15 16 20 20 21 22 25 27 24 22 21 19 18 17 14 13 18 20 25 26 27
48 47 46 46 46 46 46 47 47 47 47 48 48 50 51 46 15 29 50 49 52 41 32 30 28 16 16 16 20 18 20 22 23 23 21 21 21 20 20 24 25 22 23 25 27
45 45 45 45 45 46 46 47 47 47 47 48 49 50 47 36 27 35 49 44 30 39 36 31 26 23 15 13 13 18 17 17 20 21 22 23 21 23 22 21 20 21 23 25 25
45 45 45 45 45 46 47 47 47 47 47 48 49 51 43 30 12 15 17 14 13 13 27 27 24 23 21 18 17 16 16 13 14 18 17 19 20 20 23 23 22 23 22 24 26
45 45 45 45 46 46 47 47 48 48 48 49 50 48 37 29 20 22 20 19 16 10 9 16 22 23 23 23 22 18 15 14 15 13 13 17 17 19 21 22 22 23 23 25 25
45 45 45 45 46 46 47 48 49 48 48 50 51 44 36 28 25 22 21 24 27 25 15 12 14 18 22 24 22 20 20 17 18 19 18 20 20 19 22 22 22 24 24 25 26
45 44 45 46 47 48 48 48 48 48 49 50 48 45 31 34 18 28 27 25 27 28 29 22 12 15 20 23 22 21 17 17 15 12 10 9 11 12 16 18 18 18 23 24 25
44 44 45 46 47 47 47 48 46 45 47 40 39 33 32 20 14 17 16 12 20 20 25 27 17 12 12 14 14 15 12 13 11 10 9 11 11 12 16 17 20 22 24 23 24
43 43 45 45 45 46 44 32 24 32 36 17 15 29 18 10 15 20 22 20 15 11 16 24 18 12 11 13 11 11 11 10 10 6 8 11 12 9 17 17 13 14 18 18 21
42 43 43 44 44 46 42 26 27 29 25 22 17 15 13 13 18 19 23 17 11 8 7 17 19 19 13 7 10 12 12 12 11 11 10 7 6 5 7 8 12 11 12 15 17
42 42 43 43 43 41 31 26 27 33 27 19 18 16 18 21 21 19 19 20 18 15 11 10 13 16 15 13 8 12 13 12 12 10 9 9 6 10 12 15 15 15 17 19 20
41 42 43 44 40 30 30 28 31 38 25 18 14 17 23 23 17 17 19 17 12 13 17 16 13 6 8 13 11 11 12 13 15 14 9 9 8 10 13 14 15 16 19 24 35
41 42 43 43 40 27 27 31 33 39 18 10 14 26 19 15 11 6 6 2 2 11 15 14 13 14 8 11 14 15 14 15 17 15 14 13 12 12 15 12 14 28 34 41 42
42 42 42 38 40 32 32 36 36 31 17 3 3 9 11 11 9 5 0 -1 3 9 15 14 13 13 14 7 15 23 15 18 19 17 16 15 15 13 14 14 23 34 36 39 42
41 41 39 34 33 36 38 34 25 18 -2 -0 6 9 9 7 5 2 0 -2 -2 15 17 20 17 19 15 4 23 23 23 23 22 20 19 17 13 16 18 32 33 33 36 41 44
41 41 40 34 38 41 37 28 14 4 1 8 8 7 6 5 10 16 13 9 11 22 26 24 17 16 20 20 27 27 24 24 17 18 18 16 13 19 22 32 33 37 38 41 43
40 39 39 40 42 40 33 24 13 9 7 8 8 6 4 5 7 13 12 8 9 29 27 23 19 20 19 27 30 28 26 30 27 23 25 30 15 29 32 34 32 33 37 41 42
36 34 32 39 41 39 32 22 10 9 9 9 7 8 8 6 7 8 8 9 10 31 29 26 25 25 23 26 32 29 28 24 26 26 23 29 25 32 35 31 27 27 37 41 42
36 29 37 37 40 34 29 15 11 9 9 9 9 9 9 11 16 15 15 15 32 26 26 23 28 24 32 28 25 21 28 26 28 25 24 20 27 38 35 28 27 33 37 41 42
36 33 35 36 32 24 22 14 20 10 12 10 11 11 14 15 15 16 14 13 23 26 23 27 34 26 31 29 30 17 25 30 26 22 22 29 32 41 34 27 34 36 38 40 40
32 27 31 37 30 23 16 12 11 11 11 12 14 15 14 14 17 14 16 17 29 28 27 33 27 26 27 30 25 18 18 26 32 29 30 27 32 39 35 33 37 38 38 39 38
36 33 27 29 26 24 19 14 13 15 16 18 18 17 22 23 22 21 20 21 30 34 34 36 29 25 23 26 25 22 22 29 31 28 26 26 30 31 30 32 36 36 36 37 37
38 33 26 29 23 23 23 22 19 18 21 19 20 18 19 20 18 16 24 29 30 33 37 35 28 32 32 32 31 32 31 34 31 28 22 19 25 28 30 34 35 35 35 35 34
36 29 19 26 26 26 27 22 19 21 23 21 24 22 23 24 22 21 23 26 31 33 36 36 31 32 30 31 28 31 32 31 21 22 19 20 23 29 31 33 32 32 31 31 31
30 28 27 22 21 23 25 19 22 29 25 23 26 26 24 30 30 31 31 30 31 31 35 34 33 25 16 11 14 18 16 16 28 29 27 26 27 28 31 30 29 29 28 28 28

GFSSW_sfc_dewp_102.txt.gz
Dewpoint
49 48 49 50 50 50 50 50 49 49 49 49 49 49 49 50 52 46 37 36 46 53 48 25 20 14 28 29 32 33 30 27 28 28 27 29 27 27 23 21 23 19 21 33 53
48 48 49 50 50 49 48 49 48 48 48 49 49 49 49 51 49 43 45 52 55 49 29 26 20 13 20 29 27 26 28 31 32 30 28 28 27 26 24 23 23 23 29 48 52
48 49 50 49 47 47 47 47 48 48 48 48 48 48 50 51 44 37 55 54 54 52 38 35 31 28 11 29 29 25 25 29 27 26 26 26 27 28 25 22 27 27 29 27 38
49 49 47 47 46 46 47 49 48 48 48 48 48 48 50 49 -5 33 56 56 56 47 40 33 29 28 17 11 20 26 27 25 24 23 23 22 22 23 25 26 27 26 25 26 27
49 47 46 46 47 47 47 48 47 48 48 48 49 49 48 40 38 40 53 54 43 38 35 34 32 31 28 23 15 14 15 16 19 22 23 22 22 23 22 23 24 23 23 26 28
48 46 46 47 47 47 46 47 48 47 48 48 49 50 46 29 21 37 38 33 27 38 35 36 35 29 26 24 23 21 19 18 16 14 14 16 17 19 19 22 20 20 19 23 25
47 46 46 47 46 46 47 47 47 47 48 48 49 48 44 33 32 31 31 19 19 14 16 16 15 14 13 12 19 20 18 20 21 21 18 17 15 14 15 18 18 19 19 20 22
47 46 46 46 46 47 47 47 48 47 48 48 49 47 39 38 39 37 27 20 21 20 20 20 20 18 13 14 13 15 20 19 21 22 21 17 17 17 16 17 18 18 18 18 21
47 46 46 45 46 47 47 47 48 47 48 48 46 45 40 46 38 36 24 20 20 22 25 16 24 19 18 10 9 18 11 14 16 22 21 20 18 19 18 19 18 18 19 20 20
47 45 45 45 46 47 47 47 46 46 46 44 42 41 41 29 15 18 19 21 20 20 15 13 19 23 14 11 6 11 18 18 18 16 20 19 19 19 20 16 13 13 14 17 20
46 44 44 44 44 46 45 38 25 29 36 37 37 37 29 26 14 13 17 21 22 18 13 13 7 11 21 14 15 11 7 7 7 10 13 11 9 13 16 11 11 12 14 17 18
44 43 43 43 43 45 43 29 28 27 26 27 26 31 32 27 20 17 18 17 20 16 17 11 9 10 16 22 17 14 11 10 11 12 11 9 8 11 12 11 11 11 11 14 14
43 41 42 43 44 42 34 29 35 33 27 23 23 21 21 21 17 14 20 22 19 19 19 18 17 17 16 14 13 15 16 16 15 14 13 10 9 11 13 13 13 12 11 11 9
42 41 42 44 41 39 32 32 32 36 27 21 21 21 24 24 20 17 12 18 10 9 11 14 15 14 10 9 12 11 14 14 13 10 13 16 9 10 14 14 14 13 12 11 11
41 41 42 41 38 32 34 35 35 38 4 22 23 24 24 15 13 14 11 11 8 6 7 4 3 1 3 2 3 6 19 17 14 13 25 17 15 13 15 13 14 14 35 37 41
41 42 41 40 40 38 37 38 37 29 9 10 15 10 11 11 10 10 11 16 12 9 7 5 4 2 6 17 21 21 20 18 20 27 20 20 21 15 15 16 16 42 45 45 45
41 40 39 39 34 38 39 35 27 21 13 7 9 10 11 9 9 9 10 10 12 10 11 16 18 18 20 20 23 23 20 18 18 20 16 19 17 16 25 25 23 41 44 44 45
40 40 39 38 38 40 38 29 19 14 8 9 9 10 9 10 10 10 13 14 11 18 22 20 14 19 21 19 18 17 27 19 14 17 18 19 17 23 40 42 44 44 44 41 40
39 37 37 40 40 40 34 22 16 8 8 7 7 9 9 10 12 13 16 15 18 27 22 22 18 21 20 20 30 27 26 26 23 22 21 27 25 34 38 40 40 40 39 38 36
36 38 37 38 40 39 31 25 10 8 7 8 7 10 10 9 11 14 16 17 18 23 29 25 19 19 18 22 26 31 29 24 27 17 17 24 28 33 35 39 39 37 36 34 33
36 34 37 37 39 35 25 25 11 9 11 8 9 12 11 14 13 15 14 15 21 23 27 24 24 19 22 25 26 31 31 29 29 29 20 23 28 34 34 36 36 36 33 32 31
36 31 36 38 31 32 26 17 21 13 17 16 18 18 19 19 19 19 17 18 25 27 21 31 27 21 21 22 22 31 32 30 24 21 28 28 28 36 35 34 33 31 31 30 29
34 29 34 37 23 25 22 15 15 19 20 21 21 22 21 20 20 24 24 28 30 28 25 30 23 18 16 27 31 32 34 34 33 33 29 27 28 36 33 30 28 28 28 27 27
36 26 28 32 29 25 23 21 19 23 22 23 21 23 25 24 24 22 22 25 30 29 30 34 27 22 17 18 23 25 30 32 32 28 28 26 28 28 27 26 26 25 25 26 26
32 28 29 25 25 24 25 24 21 20 24 23 22 25 24 22 22 22 26 27 29 31 32 34 28 28 27 25 24 23 32 33 32 32 27 27 26 26 25 25 24 24 24 25 24
30 25 27 29 24 21 25 24 21 22 24 23 24 25 26 24 23 22 27 26 26 32 34 31 27 30 27 29 28 29 33 28 27 30 30 27 25 26 24 22 22 23 23 23 23
34 31 29 28 25 25 26 25 23 25 26 26 26 29 28 28 29 31 31 31 29 28 27 29 29 30 27 31 32 24 28 25 25 25 24 22 27 23 21 22 23 22 22 22 23

GFSSW_sfc_dewp_108.txt.gz
Dewpoint
51 51 49 49 50 50 48 48 48 48 48 49 49 49 50 50 50 46 34 30 44 50 50 32 22 20 28 28 32 33 27 25 22 22 22 28 30 31 29 25 27 28 27 28 44
52 51 50 50 50 49 48 47 48 48 48 48 49 49 50 51 48 43 42 46 50 53 31 23 21 13 14 30 29 30 31 27 28 26 28 31 30 29 28 28 28 30 32 31 44
52 52 50 50 50 48 48 48 48 48 48 48 48 50 51 51 30 4 54 52 53 53 34 32 29 26 11 28 28 28 26 29 30 30 30 28 27 28 27 25 29 29 30 30 30
54 52 50 50 48 47 48 48 47 47 48 48 49 50 51 47 -21 23 53 53 55 43 36 32 29 27 23 13 16 26 25 27 26 26 25 23 24 23 24 25 27 26 28 29 28
54 52 50 49 47 47 48 48 47 47 47 48 49 50 46 27 19 28 56 55 50 40 27 27 27 28 26 26 23 20 21 19 19 19 17 17 17 19 19 20 22 25 26 28 29
53 52 50 48 47 47 47 47 47 47 47 47 49 50 42 13 16 32 39 41 33 34 33 34 34 31 17 14 13 19 15 16 17 18 20 18 19 18 21 21 19 19 22 25 27
53 52 50 48 47 47 47 46 46 46 46 47 48 48 43 20 31 32 36 28 23 29 21 23 21 13 16 15 15 13 10 10 13 19 20 20 18 18 20 20 18 18 18 19 21
53 52 50 48 47 47 46 46 46 45 46 47 48 46 36 36 40 40 36 33 28 22 17 19 16 17 16 16 18 12 11 8 16 12 12 19 11 15 19 13 12 16 19 19 20
53 52 50 49 47 46 46 45 45 47 48 47 45 41 30 40 40 40 36 28 21 21 21 19 20 19 17 18 17 14 5 10 10 16 13 13 12 17 15 12 12 13 11 15 17
52 51 50 47 47 46 46 45 46 45 46 46 44 36 29 25 26 17 37 21 19 20 22 14 21 20 17 18 11 5 7 13 15 16 15 13 13 14 16 14 14 14 13 12 13
52 50 49 46 45 45 43 36 21 24 40 28 29 28 31 34 29 17 21 17 19 18 16 16 9 13 16 18 19 14 17 19 18 19 18 16 14 15 16 15 15 15 15 14 14
51 50 49 46 43 43 42 29 26 25 18 25 35 36 37 33 31 28 21 13 20 14 17 15 11 12 10 13 17 16 16 16 16 17 15 14 11 11 12 14 16 15 15 14 15
51 50 48 43 42 41 36 29 34 26 14 12 25 23 18 27 23 17 16 16 19 17 16 16 18 17 13 13 14 15 15 15 13 10 11 10 8 5 10 14 15 18 18 33 43
49 49 47 43 36 38 33 34 33 34 15 13 21 23 22 21 18 17 11 12 11 10 7 7 11 7 5 3 5 -0 7 9 5 5 0 16 5 7 10 14 15 14 18 43 43
50 48 45 42 37 34 33 35 37 33 -5 20 19 16 14 17 13 11 15 11 8 10 8 9 8 8 7 7 4 3 7 5 7 16 17 9 8 4 9 10 23 38 41 39 38
48 45 43 42 39 36 37 37 37 19 -1 14 12 11 13 13 11 11 14 14 16 13 10 9 13 8 8 9 12 15 18 18 17 17 11 7 5 6 14 35 36 38 37 38 36
46 44 41 40 35 38 38 35 21 16 13 9 10 13 11 11 12 12 12 11 5 7 13 18 17 18 20 18 19 18 16 13 10 16 8 8 10 15 34 35 35 35 35 35 34
44 43 42 41 39 40 38 31 19 15 10 10 9 12 10 9 12 15 13 10 21 18 18 18 12 18 20 19 17 16 17 14 7 10 11 12 13 30 34 33 35 35 35 33 31
43 37 37 37 39 39 32 22 6 11 10 9 9 10 10 11 11 13 14 13 15 17 14 15 17 18 15 15 18 21 17 16 14 13 13 16 20 31 28 29 32 33 33 31 30
37 37 37 40 40 36 28 21 11 12 11 11 9 11 9 8 11 14 13 16 16 20 23 23 17 16 16 20 21 21 25 19 23 12 14 16 21 22 26 27 29 30 30 30 30
38 33 36 39 39 31 21 24 12 13 14 12 11 12 11 15 14 15 16 16 21 21 26 24 22 16 21 19 15 24 24 23 23 24 17 13 18 30 27 28 27 29 29 29 29
36 26 37 39 30 29 26 24 20 14 19 20 21 18 18 19 17 18 18 17 23 24 21 23 24 19 17 19 23 19 21 25 20 23 24 23 21 31 29 29 27 25 25 25 29
33 32 35 37 26 27 27 19 21 20 21 21 22 21 21 19 18 21 23 26 28 25 24 28 22 15 14 26 30 27 31 33 31 29 27 17 18 29 28 23 22 23 24 24 25
32 26 31 34 29 27 22 22 20 24 23 22 21 23 24 23 24 21 24 25 28 27 29 27 23 18 12 10 18 22 26 30 29 24 23 20 23 23 23 19 20 21 23 24 23
33 26 30 27 22 26 25 24 21 20 24 22 22 24 23 21 22 21 22 23 25 27 28 28 23 24 24 23 24 28 26 26 30 30 25 23 20 21 22 20 21 23 21 21 22
31 28 30 28 28 26 26 23 21 22 23 21 21 24 25 23 22 20 24 23 23 26 31 35 23 26 22 25 29 23 25 23 23 26 24 22 19 23 23 23 21 20 20 20 21
33 31 28 22 23 23 24 24 23 25 26 24 24 25 26 27 28 26 26 29 30 29 30 29 26 25 22 26 24 18 23 23 21 22 23 20 21 23 20 19 19 19 20 20 21

GFSSW_sfc_dewp_111.txt.gz
Dewpoint
53 52 51 50 50 51 49 48 48 48 49 49 49 49 50 51 50 45 28 29 41 50 50 31 21 25 27 27 34 32 24 21 18 19 19 27 30 32 31 29 29 29 30 32 33
53 52 52 50 50 50 49 48 48 48 48 49 49 50 51 52 47 39 40 45 50 54 33 25 17 16 18 25 28 32 30 24 25 23 25 30 30 30 29 30 30 30 32 32 29
54 53 52 50 50 49 48 48 48 47 48 48 48 50 52 51 18 -1 55 51 52 53 32 30 27 15 13 29 28 28 17 29 31 30 31 29 27 27 25 23 26 27 27 29 29
55 54 53 51 50 48 48 49 48 47 47 48 49 50 52 46 -12 20 54 53 54 45 34 30 28 27 21 14 21 25 27 27 27 26 23 23 23 21 22 23 24 23 27 28 29
54 54 53 51 50 48 48 48 47 47 47 47 48 50 44 16 8 25 55 55 49 38 26 26 26 27 24 25 24 22 21 19 18 16 17 18 18 20 20 21 22 23 24 26 27
54 54 53 51 49 48 48 47 47 46 46 46 48 50 39 8 19 31 37 43 34 32 30 33 32 30 19 16 16 20 14 12 14 13 14 16 18 20 22 20 18 18 18 20 21
54 54 53 51 49 48 48 47 47 46 46 46 47 48 41 13 33 36 38 28 23 31 23 28 24 14 14 16 15 12 11 12 10 17 18 20 12 19 19 16 14 15 17 18 19
55 54 52 51 49 48 47 47 46 45 46 47 47 46 28 35 38 38 37 34 32 25 19 19 18 19 19 19 21 17 13 8 13 16 14 17 3 19 17 15 14 16 17 18 18
55 54 53 50 48 47 47 46 45 47 48 47 46 41 22 37 34 38 38 27 24 23 21 19 21 21 17 19 18 16 5 8 9 17 16 15 11 14 17 16 17 17 17 18 18
55 54 52 50 48 47 46 45 45 46 46 46 44 34 25 21 29 20 40 26 19 21 20 18 22 20 19 18 1 4 7 10 11 16 16 16 15 15 16 16 15 16 18 19 19
55 54 51 49 47 45 43 35 26 27 41 27 24 20 25 34 32 19 21 16 20 20 18 15 13 14 15 20 19 17 14 14 18 17 19 18 12 9 11 11 14 15 14 16 18
54 52 51 48 46 43 42 32 25 28 22 27 35 36 36 35 28 28 20 14 19 13 18 15 14 15 11 12 14 14 13 12 15 16 12 5 3 4 6 11 10 10 15 17 20
53 52 50 47 44 41 37 30 34 27 16 12 23 23 20 30 26 22 16 14 17 14 17 13 14 16 14 12 12 13 12 10 6 7 4 4 2 2 2 6 12 26 39 41 41
52 51 48 44 36 38 35 34 36 36 12 7 16 22 21 21 15 17 13 17 11 17 18 14 10 9 7 3 5 3 7 6 5 3 -2 8 -1 3 3 12 35 38 37 36 37
51 49 46 42 39 39 37 37 39 36 5 18 21 18 20 17 14 11 15 11 9 8 10 9 8 10 10 8 5 8 8 10 11 10 13 8 7 1 3 21 32 33 33 33 33
50 48 44 42 40 38 37 39 39 21 1 14 11 11 12 12 11 11 13 15 14 12 10 10 17 13 12 11 12 18 17 17 18 15 6 4 4 3 26 32 32 31 32 32 31
49 47 43 40 36 40 40 39 20 11 12 9 8 12 10 11 10 11 10 9 5 4 9 15 12 18 20 17 19 16 13 11 10 12 4 12 9 12 32 33 32 32 30 31 30
48 44 42 42 40 41 42 32 8 13 12 14 12 11 8 8 10 13 9 9 19 15 14 10 5 19 19 17 13 13 12 9 4 5 6 7 3 21 30 30 30 30 29 29 29
45 41 42 41 42 41 35 19 9 12 11 9 10 9 9 9 10 11 12 10 17 15 11 10 13 19 18 15 14 17 16 15 12 10 9 7 19 28 27 27 27 29 27 28 29
39 38 36 41 43 38 31 15 15 11 10 10 8 10 9 7 10 12 10 15 15 19 18 19 15 17 15 20 19 16 19 20 18 14 11 13 14 25 26 26 27 27 27 27 28
39 33 40 42 41 32 24 19 12 12 13 11 10 9 10 11 12 13 10 13 21 24 25 22 17 12 19 17 14 20 19 19 19 17 17 16 22 30 26 27 26 26 26 27 28
38 30 39 41 32 30 25 25 20 14 19 18 19 14 15 18 16 16 15 16 22 24 19 23 25 18 17 19 25 20 19 25 21 18 23 23 22 28 28 27 27 22 24 24 28
34 34 37 37 26 26 27 20 19 18 20 20 20 21 20 18 15 19 20 26 27 25 23 28 23 15 15 28 28 23 25 28 32 27 21 20 22 27 27 23 21 22 22 22 24
34 28 33 35 32 25 24 21 20 24 22 21 21 23 23 20 22 20 22 25 28 27 29 30 25 19 7 4 13 20 24 27 29 24 20 24 21 21 23 19 19 21 21 23 23
35 29 30 27 27 27 27 24 20 21 23 21 21 23 21 19 21 20 22 24 24 27 27 30 22 24 24 21 22 27 25 25 22 25 24 22 19 21 22 21 21 21 21 20 21
31 29 30 28 29 29 27 24 21 22 23 20 21 24 23 21 19 21 23 24 24 27 30 32 24 26 21 22 27 22 25 25 23 26 23 21 18 21 21 20 19 20 20 19 20
35 33 30 28 25 24 25 24 24 27 24 25 26 25 25 25 27 25 26 28 28 28 31 30 27 24 21 25 24 21 23 23 23 24 25 21 20 21 19 18 19 19 20 20 20

GFSSW_sfc_dewp_114.txt.gz
Dewpoint
55 53 52 51 49 50 49 49 49 49 49 50 50 50 51 52 51 34 23 28 35 50 50 30 24 26 24 22 30 25 15 14 16 17 17 18 23 23 29 27 26 30 30 32 32
55 54 53 52 50 50 49 48 49 49 48 49 49 50 52 53 39 22 38 43 49 53 28 21 16 18 13 16 20 18 14 14 16 17 15 17 21 21 25 24 24 26 28 27 25
56 54 53 52 51 50 48 48 49 48 48 49 48 50 52 49 24 17 56 51 50 49 27 23 18 12 10 18 18 16 15 13 21 20 21 21 22 21 19 19 21 23 23 24 27
57 56 54 53 51 49 47 48 49 48 47 48 48 50 52 38 5 22 54 52 50 43 27 20 18 14 6 8 17 17 17 16 16 21 21 18 15 15 16 19 21 21 24 26 26
56 55 55 53 52 49 47 48 48 48 46 47 48 50 41 12 0 25 52 53 42 32 19 16 14 12 8 9 14 18 12 15 20 18 16 16 16 16 16 17 18 21 22 23 22
56 55 55 54 52 49 47 48 48 48 46 46 47 50 32 12 14 24 35 41 32 26 20 19 16 16 15 15 16 17 20 17 14 14 12 11 12 13 17 19 18 16 16 17 19
56 55 55 54 52 49 48 48 48 47 45 46 47 43 32 16 22 29 32 28 26 25 22 24 23 20 15 13 15 14 12 9 9 7 11 16 13 15 15 18 16 14 13 14 15
57 55 54 53 52 49 48 48 47 46 46 48 46 42 21 23 28 29 22 28 29 26 23 20 20 20 19 20 18 16 14 5 10 14 12 12 4 3 17 16 14 12 12 13 14
57 55 54 53 51 49 47 46 45 47 48 48 44 40 17 32 27 30 25 19 24 25 26 19 21 22 21 18 12 14 -2 0 2 10 11 9 5 7 11 12 14 14 12 11 14
56 55 54 52 50 48 45 44 43 47 45 43 41 33 23 8 29 23 37 27 21 21 20 21 20 18 17 14 1 1 3 3 4 5 11 10 8 8 12 11 14 13 12 13 11
56 55 53 51 48 46 40 34 31 33 38 26 20 18 17 31 31 17 22 20 20 20 17 19 15 13 12 14 13 11 10 7 6 10 12 12 8 5 3 3 5 6 9 11 25
56 55 53 50 47 46 36 30 24 29 27 25 24 24 25 33 23 18 21 16 18 14 16 18 14 14 15 14 13 12 9 8 9 12 10 3 0 -1 0 4 8 8 23 36 37
55 53 51 48 46 39 32 31 34 31 22 19 14 16 20 28 13 13 18 14 14 10 12 12 7 14 14 11 12 12 11 10 7 3 2 2 -1 -4 4 5 20 34 35 35 35
54 52 49 46 42 34 26 34 37 39 23 26 8 12 19 19 14 14 13 12 10 7 8 12 10 13 13 11 10 8 7 5 4 4 -2 2 -2 4 2 10 27 31 33 33 33
53 50 47 48 40 36 34 40 42 40 25 18 16 21 19 12 12 11 13 13 11 12 14 10 10 11 12 10 8 7 10 9 9 8 8 5 2 5 1 6 27 32 33 33 32
52 49 46 42 40 40 41 41 38 26 21 15 14 15 15 11 11 10 11 14 14 12 12 11 13 11 10 10 11 11 12 10 11 11 7 4 0 1 12 29 31 32 31 31 30
50 48 46 42 40 41 41 38 24 20 11 12 13 13 16 11 10 10 10 11 9 10 12 10 11 12 15 10 14 14 12 8 7 12 6 5 6 3 30 30 29 29 29 30 30
49 46 42 42 44 44 43 33 25 21 12 11 11 12 15 12 11 11 9 10 15 10 11 8 6 12 17 13 10 14 14 7 -4 -3 -2 9 6 13 29 28 28 28 29 29 28
46 43 43 42 44 41 34 26 25 21 12 10 11 12 12 9 10 10 10 9 10 13 10 9 5 15 18 16 14 12 13 11 11 10 10 6 5 25 27 28 27 27 28 28 28
41 40 41 44 45 40 32 27 21 11 10 8 7 11 11 10 10 10 10 10 13 15 13 13 10 10 13 17 15 13 15 17 16 14 10 8 10 26 28 27 27 28 27 27 28
40 35 39 44 44 37 28 26 17 10 11 10 9 10 10 11 10 10 6 12 16 17 17 17 15 9 15 13 10 17 17 18 18 18 16 16 26 30 28 28 26 27 26 30 28
40 30 39 44 34 34 28 23 22 11 14 13 13 12 12 13 13 12 12 12 16 21 16 19 23 15 13 16 20 16 17 20 20 18 19 21 25 27 27 27 26 22 23 24 28
35 34 42 41 30 29 25 21 16 12 13 14 15 15 18 15 16 16 17 23 25 22 18 25 20 16 16 28 26 28 23 20 26 29 23 22 25 28 29 24 23 23 23 23 25
37 31 34 37 37 29 25 21 17 18 17 19 20 20 20 18 18 17 18 24 27 26 27 29 23 22 12 9 13 18 25 27 27 25 22 26 26 24 24 23 22 22 23 25 26
39 32 32 30 31 28 26 22 16 17 19 20 21 19 17 16 17 16 19 25 25 28 26 29 21 26 25 20 20 25 26 25 26 25 24 27 23 23 24 23 22 25 23 23 24
36 29 29 30 29 29 26 21 17 20 21 18 18 19 19 16 16 18 22 23 27 25 25 27 23 28 25 24 26 28 26 27 27 23 26 25 20 25 21 23 22 23 23 22 23
36 32 31 28 28 27 26 21 22 29 24 20 21 22 21 20 23 22 24 26 27 28 30 32 29 28 23 22 26 24 24 25 25 25 26 25 23 24 21 20 22 22 23 22 22

GFSSW_sfc_dewp_117.txt.gz
Dewpoint
55 54 53 52 50 50 50 49 50 49 49 49 50 50 50 53 52 31 23 29 34 50 47 25 23 23 19 21 26 23 16 16 16 16 17 19 18 22 22 26 24 26 29 30 32
56 55 54 53 51 50 50 49 49 49 49 48 50 50 51 53 41 25 42 44 45 51 25 19 14 16 15 15 18 20 17 16 16 15 17 17 15 18 20 21 23 24 27 27 26
57 56 55 53 52 51 50 48 49 49 48 48 49 50 52 49 30 24 56 48 50 47 28 19 17 13 12 13 16 17 16 17 16 15 19 17 17 18 19 18 20 21 23 24 25
58 57 56 54 53 52 49 49 49 48 48 47 48 49 52 41 21 28 54 51 50 43 25 19 16 13 9 7 12 12 14 14 13 12 17 17 17 15 14 18 18 18 20 23 25
57 57 56 55 54 52 50 49 49 48 48 47 47 49 43 28 22 36 53 49 39 31 18 13 13 13 11 8 8 6 10 7 6 11 15 14 11 11 11 11 12 14 20 22 21
57 57 56 55 55 53 50 49 49 48 48 46 47 49 33 30 14 14 24 30 28 22 14 11 8 9 10 8 10 11 9 12 10 10 9 9 8 6 7 10 16 16 15 16 16
57 56 56 55 55 53 50 49 49 48 47 46 47 39 32 32 21 20 22 16 20 17 16 19 20 21 13 11 11 11 8 5 4 4 5 9 8 7 9 14 17 14 14 13 13
58 56 56 55 54 52 50 49 48 47 46 49 48 37 33 24 20 18 16 19 19 17 20 19 20 18 16 14 14 9 12 8 6 8 6 10 7 2 10 12 12 11 11 11 11
58 57 56 54 53 51 49 48 47 45 49 48 45 39 32 30 19 22 19 12 18 21 23 20 19 16 16 17 12 10 8 11 6 8 7 8 6 3 6 12 9 11 13 11 11
57 57 55 54 52 50 48 45 44 47 46 41 38 35 30 14 23 20 27 18 16 21 20 20 15 14 15 11 8 11 7 5 6 5 5 6 7 7 7 7 11 11 10 12 11
57 57 55 53 51 48 44 35 37 40 39 37 33 30 21 25 26 18 29 27 17 16 16 16 13 12 13 14 11 12 11 8 5 4 5 8 8 5 5 3 4 3 5 6 21
57 56 54 52 49 47 42 33 31 33 37 35 31 28 26 23 21 20 19 17 19 15 16 15 16 16 11 11 14 14 9 7 6 5 8 9 7 2 2 3 3 6 8 29 33
56 55 53 50 48 43 37 29 33 30 34 35 33 29 27 23 21 15 19 16 13 14 14 13 15 12 10 11 12 10 8 8 7 7 5 4 2 4 5 4 5 26 30 29 32
55 53 51 48 45 38 31 33 33 37 34 30 22 17 17 20 18 17 12 18 14 11 11 10 10 9 9 10 9 8 6 7 7 6 4 8 4 8 9 7 16 27 31 33 33
54 52 48 49 42 34 37 36 39 40 25 21 14 15 17 13 13 12 11 9 9 10 11 11 8 11 10 7 10 10 11 10 9 8 9 6 3 7 8 6 21 30 31 32 32
53 50 49 43 40 37 37 38 39 30 25 20 17 17 16 12 12 11 12 13 13 11 11 12 11 10 10 10 10 10 10 12 11 9 8 9 7 5 17 28 27 28 30 30 30
52 49 48 43 41 41 42 36 33 27 19 17 16 16 16 13 12 11 13 14 11 13 14 12 11 11 13 12 13 13 14 12 11 9 8 9 6 6 26 28 28 28 29 30 30
51 49 47 44 43 45 41 35 29 22 22 13 13 14 16 15 13 13 12 11 12 12 11 13 14 11 13 15 9 9 13 12 7 6 5 2 4 16 26 27 28 28 29 29 28
49 45 44 46 46 42 38 32 27 26 22 14 13 14 16 15 14 14 15 13 13 16 15 9 7 10 14 13 13 9 10 11 12 11 10 6 4 22 27 28 27 28 28 28 28
44 42 42 46 45 42 37 33 30 26 18 14 15 17 16 15 14 14 14 13 12 14 14 13 12 7 7 13 15 14 10 14 15 12 9 6 6 24 28 27 28 28 28 28 28
44 37 42 46 44 38 34 32 29 21 16 17 17 16 16 16 14 14 10 11 15 15 14 10 16 11 10 11 10 11 15 13 14 18 16 16 27 31 27 28 28 27 27 30 29
41 32 43 44 34 35 34 32 32 20 15 15 17 16 16 15 13 12 13 10 15 15 16 15 20 15 9 8 12 13 14 16 19 15 21 17 25 27 28 29 26 25 26 25 28
35 34 42 42 32 33 32 30 26 20 14 16 16 17 15 15 15 14 16 20 20 19 16 19 17 14 13 17 23 25 22 16 22 26 23 23 26 28 28 25 25 25 25 25 25
36 30 34 35 37 35 32 28 24 21 17 17 16 16 18 14 17 18 18 23 24 21 27 26 23 23 15 19 20 21 21 23 23 23 20 24 29 26 27 24 24 26 27 27 26
38 33 33 29 31 34 32 29 24 19 17 17 18 18 16 16 17 19 18 22 26 28 25 25 21 26 22 18 17 21 24 23 28 26 26 29 25 25 26 25 26 27 26 25 25
36 35 32 33 32 33 33 29 26 21 21 19 18 16 18 19 18 16 18 23 25 22 24 25 23 28 24 23 24 28 28 26 30 29 26 27 24 27 26 26 25 25 25 24 24
42 39 34 33 31 32 33 29 27 27 22 18 19 20 21 21 17 18 20 23 25 26 25 29 30 28 25 21 23 26 29 28 29 25 28 25 25 26 25 23 24 24 24 23 23

GFSSW_sfc_dewp_120.txt.gz
Dewpoint
57 55 54 53 52 51 51 50 50 50 50 49 50 51 51 52 51 34 30 29 33 53 47 27 23 23 21 19 25 23 21 17 17 17 17 17 18 19 20 21 24 26 26 31 32
57 56 55 54 53 52 51 50 50 50 49 49 49 50 52 52 42 33 43 51 45 51 16 20 17 16 17 17 17 19 20 19 18 16 15 16 18 16 16 18 21 24 28 30 28
58 57 56 55 54 52 52 50 50 49 49 49 48 50 51 49 38 33 54 49 48 44 29 23 18 15 12 12 13 16 16 17 16 16 13 14 16 17 17 17 22 23 25 26 27
59 58 57 56 55 53 52 50 49 49 49 49 48 49 51 44 26 35 55 53 51 43 34 21 17 14 12 10 9 11 13 14 14 9 12 12 15 14 15 19 18 17 20 26 28
58 58 58 57 56 55 53 50 49 49 49 48 47 48 44 36 31 39 56 50 37 32 20 14 13 13 12 12 11 9 8 8 9 9 6 9 10 10 9 10 11 10 13 30 24
58 57 57 57 56 55 53 51 49 49 49 48 47 48 35 33 21 26 28 31 28 24 17 12 8 7 9 10 9 9 8 9 8 9 5 7 7 5 8 7 6 14 16 18 20
58 58 57 57 56 55 53 51 50 49 48 47 47 41 34 35 33 24 22 15 17 19 14 14 16 18 19 16 12 12 10 9 7 5 4 5 4 8 10 9 10 16 16 16 18
59 58 57 57 55 54 52 51 50 48 48 47 50 40 34 36 25 21 20 18 17 14 15 17 19 19 16 14 11 10 12 11 11 12 6 6 7 10 9 10 11 14 15 15 15
58 57 57 55 55 53 52 50 49 48 46 49 45 41 37 32 21 20 14 12 12 18 18 15 18 17 15 11 13 17 12 12 11 9 7 7 8 8 8 6 10 14 12 13 16
58 57 56 55 54 52 50 47 47 44 45 44 40 37 37 22 19 24 20 22 11 19 19 20 18 13 12 11 9 12 12 12 12 9 7 6 5 6 8 9 12 9 12 14 14
57 57 56 55 53 51 47 41 36 42 41 39 38 35 34 32 26 22 22 23 13 15 17 19 16 13 14 16 15 14 12 11 12 13 10 10 7 5 9 11 10 8 8 13 16
57 57 56 54 52 49 44 40 38 35 37 40 38 37 35 32 28 27 21 24 24 16 15 15 16 15 17 17 15 12 12 14 13 9 9 7 7 8 9 9 8 8 15 29 31
56 56 55 53 50 47 41 38 37 36 34 36 35 33 33 31 29 26 25 19 19 19 19 19 18 18 15 12 11 12 13 13 9 8 7 8 7 8 8 11 10 21 28 31 32
56 55 52 50 47 45 41 42 39 37 34 21 26 27 31 25 23 24 24 20 19 17 16 15 15 13 13 11 11 11 11 9 8 8 6 8 4 7 9 9 13 29 32 31 31
55 52 50 51 46 42 43 40 40 42 20 15 20 18 18 21 14 14 24 15 17 19 16 14 12 10 9 10 11 9 11 11 10 10 10 8 6 10 13 12 29 30 30 30 30
53 51 50 45 44 44 40 40 41 33 22 19 17 15 17 17 13 12 12 13 12 11 10 9 9 11 10 11 10 10 10 10 11 11 10 9 8 8 19 26 27 27 28 29 29
52 51 50 44 42 42 41 40 35 29 19 17 18 18 17 15 12 12 13 12 11 13 14 13 12 11 12 11 12 11 12 12 11 13 12 12 9 24 26 27 27 28 28 28 28
52 50 52 47 43 44 40 37 30 21 22 15 16 16 17 16 14 14 13 12 14 13 12 11 12 14 14 13 12 12 11 13 7 11 12 10 7 21 26 27 28 28 28 28 27
52 48 46 47 44 42 40 33 28 23 22 19 15 14 15 16 16 15 15 14 14 14 14 15 13 10 12 13 12 13 12 10 13 11 12 9 8 26 29 27 27 27 27 27 27
46 43 43 47 47 43 38 33 29 26 27 25 18 17 16 16 16 15 15 16 16 15 16 16 15 13 13 11 12 13 13 15 14 10 9 8 12 25 28 26 27 28 28 27 28
44 39 44 47 47 40 33 34 33 31 31 21 21 17 17 16 16 16 15 13 15 15 15 12 12 11 14 12 9 12 15 14 13 12 12 14 23 31 28 28 28 26 26 29 28
42 34 44 45 34 34 34 34 34 34 32 22 20 19 18 17 17 18 16 16 14 14 14 15 18 16 15 13 10 9 10 13 19 15 13 16 24 28 28 28 26 24 25 25 28
36 35 44 42 31 32 35 34 34 30 25 18 18 19 21 18 18 18 17 22 19 17 18 17 16 14 10 14 11 9 17 18 21 25 20 20 24 28 27 25 25 25 26 25 27
36 30 33 36 37 34 35 34 31 31 27 20 17 19 20 18 18 18 16 23 24 21 26 27 21 22 14 17 20 24 30 23 22 21 19 23 26 26 24 24 25 25 26 26 28
39 33 32 28 31 33 35 31 29 31 23 20 18 19 18 19 17 17 17 25 24 28 23 23 19 24 21 16 13 18 20 18 26 23 24 28 28 25 25 26 27 26 26 25 26
35 32 32 31 31 33 34 37 30 27 23 19 19 19 20 19 17 19 20 22 25 24 24 23 20 27 23 19 20 22 24 21 27 29 29 28 25 26 27 28 26 26 25 24 25
42 37 34 32 31 32 32 33 31 32 26 21 21 21 21 18 20 22 19 20 23 23 25 27 30 23 19 22 23 23 29 30 30 27 25 24 25 27 26 24 25 25 25 23 21

GFSSW_sfc_dewp_126.txt.gz
Dewpoint
58 58 57 56 55 55 54 54 54 53 52 52 52 53 53 52 51 42 35 39 42 50 49 19 21 25 27 24 20 23 20 20 20 20 18 17 15 18 20 18 22 27 26 33 36
59 59 58 57 56 55 55 54 54 53 53 52 52 53 52 52 46 40 48 51 48 51 19 15 22 21 18 20 19 19 21 21 22 22 17 16 13 15 16 17 20 19 25 27 31
59 59 59 58 57 56 55 54 54 53 53 52 52 53 52 50 40 34 55 54 51 48 30 35 33 23 16 13 12 15 14 18 19 19 19 11 10 14 13 15 22 18 18 19 27
59 59 59 58 58 57 55 54 54 52 52 51 51 52 52 47 34 36 55 54 53 43 34 31 19 16 16 13 13 11 12 14 15 12 10 10 9 8 12 15 19 13 15 19 21
58 58 59 59 58 57 55 54 54 53 51 51 51 50 45 36 36 40 54 52 39 35 31 27 15 11 10 9 8 9 11 11 11 10 9 11 9 10 11 11 11 11 13 15 20
58 58 58 58 58 57 56 55 54 52 52 50 50 51 35 36 35 38 42 37 34 30 28 25 16 15 13 14 17 16 14 11 11 11 12 10 10 10 11 12 8 9 10 12 21
58 58 58 58 58 57 57 56 54 52 51 50 50 46 36 38 37 33 35 22 21 19 15 17 18 19 20 18 20 15 10 11 11 11 11 13 9 8 8 11 10 10 8 18 38
59 58 57 57 57 57 56 55 53 52 51 50 48 45 35 39 38 36 25 21 22 22 21 17 17 20 21 19 17 13 15 12 12 15 13 11 12 9 9 8 12 13 15 31 37
58 58 57 56 56 56 56 55 53 52 52 51 44 42 39 45 29 32 27 20 22 21 20 17 22 20 17 15 12 14 10 14 15 18 13 10 8 9 10 11 9 13 15 34 34
58 58 57 56 56 55 54 52 50 48 45 41 42 40 40 37 30 23 23 16 17 20 22 23 20 16 16 12 10 10 12 13 14 14 15 13 11 11 11 9 11 11 28 33 32
57 57 57 56 56 53 51 49 42 40 38 42 41 39 36 36 25 24 25 20 24 20 17 22 17 16 16 15 13 13 12 12 14 14 15 14 12 10 10 16 26 31 31 31 30
56 56 56 56 54 52 49 46 43 37 38 40 40 40 40 40 38 34 26 23 24 18 13 15 17 19 19 19 18 17 16 16 13 14 12 11 9 8 17 30 30 29 29 29 29
56 56 56 55 52 50 47 46 39 37 35 36 38 40 41 41 38 37 32 26 25 24 22 13 15 19 18 18 17 16 15 13 13 13 10 9 8 10 23 29 29 28 28 28 28
55 55 54 52 49 47 46 47 46 41 30 30 35 36 40 40 38 40 36 28 22 20 20 19 20 19 19 19 15 11 14 15 12 10 8 9 7 9 22 27 27 27 27 27 27
54 54 52 52 47 47 48 47 43 39 10 17 27 31 35 35 22 21 27 27 27 20 20 20 19 18 15 13 14 14 17 14 14 11 10 9 7 8 24 26 27 27 27 27 27
54 53 52 49 47 46 46 44 40 30 21 26 19 19 25 23 17 15 21 16 18 20 17 18 18 13 11 13 13 15 14 15 14 12 9 9 8 9 25 26 27 27 27 27 26
53 52 52 47 46 44 45 43 34 26 26 22 18 19 21 21 20 13 13 12 11 10 13 14 13 13 13 11 14 13 13 13 12 13 11 13 11 24 27 28 27 27 27 27 27
52 52 52 49 50 45 47 39 28 28 27 25 20 19 18 18 18 19 13 11 13 13 13 13 12 14 17 14 12 13 15 14 11 13 12 13 10 24 27 28 29 28 28 27 27
51 50 48 50 50 49 40 31 27 27 26 24 21 19 19 20 18 16 15 14 14 14 14 15 13 16 13 14 16 17 13 16 15 15 13 12 26 26 27 28 29 28 27 27 27
44 45 44 48 49 45 38 32 34 31 28 28 26 24 19 19 19 16 16 19 16 20 20 20 16 18 15 16 15 14 15 14 20 12 9 11 14 21 26 28 27 27 27 27 26
41 41 44 49 47 40 32 34 33 32 31 31 30 29 24 20 18 18 19 19 22 19 18 14 17 16 16 15 12 15 14 17 18 17 11 10 10 22 24 27 26 25 26 27 25
42 34 45 46 35 33 32 35 36 34 34 32 34 31 24 25 22 21 21 24 21 19 14 19 19 15 14 18 17 17 16 19 16 13 15 14 14 29 28 28 26 24 25 25 26
38 36 44 44 31 31 34 33 34 34 32 33 34 33 29 23 20 24 23 27 25 21 20 20 18 15 14 18 24 23 27 27 27 22 16 11 13 29 30 25 25 24 25 25 24
36 30 35 38 35 31 30 31 31 35 34 34 35 35 27 21 25 23 24 27 29 27 33 28 21 18 12 14 21 19 19 19 25 20 20 18 13 27 28 24 24 25 25 24 25
37 31 32 29 31 33 31 30 30 31 34 34 34 34 27 22 25 23 27 25 27 30 24 23 17 19 21 21 21 20 19 19 18 19 22 17 21 23 26 25 25 25 25 24 23
33 32 32 29 31 33 33 31 29 30 32 32 33 35 32 24 22 23 25 24 23 26 24 24 18 17 11 21 22 20 20 20 22 22 21 21 25 26 26 26 25 25 24 23 20
40 39 31 30 30 31 30 28 32 34 35 32 33 31 25 23 24 23 26 27 27 25 24 22 20 15 13 21 23 21 22 21 21 22 21 20 24 26 25 24 24 23 23 21 18

GFSSW_sfc_dewp_129.txt.gz
Dewpoint
59 58 57 57 56 55 55 54 54 53 53 53 53 54 54 53 52 42 31 38 43 51 51 19 22 23 24 23 20 23 21 19 20 20 19 18 15 15 20 17 22 27 27 27 32
59 59 58 58 57 56 55 55 54 54 53 53 53 54 53 53 46 40 47 52 50 51 19 31 29 31 18 19 19 19 20 20 22 23 19 19 12 13 16 17 20 21 26 21 31
59 59 59 59 57 57 56 55 54 54 53 53 53 53 52 52 40 34 55 53 52 48 35 38 35 30 16 12 12 15 13 16 16 19 20 16 10 13 11 16 18 16 17 23 28
59 59 59 59 58 57 56 55 54 54 52 52 52 53 53 46 34 35 53 53 53 41 31 27 19 14 14 12 13 8 11 12 13 11 10 9 10 9 11 13 17 15 15 17 17
58 58 59 59 59 58 56 55 55 54 52 52 51 52 42 40 39 39 55 51 35 32 30 26 15 14 9 9 11 9 11 13 12 12 11 11 9 10 10 10 12 12 13 18 35
58 58 58 58 58 58 57 56 55 53 52 51 50 52 34 41 38 35 40 36 33 30 22 19 20 17 16 17 16 17 15 12 12 11 11 10 11 10 12 12 8 8 19 39 38
58 58 58 58 58 58 57 56 55 53 52 51 49 46 37 44 37 37 34 30 26 21 18 19 19 16 20 18 21 16 10 12 11 12 11 12 11 10 11 9 7 15 36 35 35
58 58 57 57 57 57 57 56 55 53 52 52 49 43 39 42 40 39 32 26 23 23 22 20 19 20 20 19 16 13 14 10 12 14 16 13 12 12 10 8 9 34 34 33 32
57 57 57 56 57 56 56 56 54 52 52 52 44 41 41 46 39 32 34 30 21 21 23 17 21 19 17 14 12 13 9 13 14 17 15 12 10 12 12 10 11 33 32 31 30
57 57 57 56 56 55 55 53 51 49 46 42 41 42 42 41 37 24 31 21 20 21 17 19 20 16 15 12 11 11 11 17 12 14 14 14 12 12 23 28 31 31 30 29 29
56 57 57 56 56 54 52 51 48 42 39 43 41 41 38 38 32 24 22 17 22 18 15 21 16 16 15 14 13 13 12 11 12 14 15 13 13 10 30 30 29 29 28 28 28
56 56 56 56 55 53 51 47 45 38 39 41 41 41 42 41 39 36 24 20 22 19 15 13 16 18 19 19 18 17 15 15 17 16 13 11 9 28 29 28 28 28 27 27 27
56 55 56 55 53 52 49 48 41 37 38 38 40 40 41 41 40 39 27 24 23 21 18 12 12 17 18 18 18 18 17 16 14 12 11 10 9 21 28 28 27 27 27 27 27
55 55 54 52 50 48 48 49 46 41 32 30 34 37 41 41 38 41 38 30 25 23 24 22 23 20 19 19 19 18 16 15 12 10 7 9 7 11 27 27 26 26 27 26 26
53 54 52 53 48 48 48 48 44 35 16 21 32 37 41 36 26 30 35 31 26 21 21 21 18 19 17 18 17 12 15 12 12 10 10 9 7 16 26 26 26 26 26 26 26
53 53 52 50 48 46 47 44 41 30 19 22 22 29 37 36 17 17 20 25 30 26 22 19 20 15 16 15 13 16 14 15 15 12 8 9 8 8 25 26 27 27 27 26 26
53 53 52 49 46 46 46 44 34 25 26 23 18 23 29 23 19 14 16 12 13 15 15 14 14 13 15 12 14 12 11 12 11 12 9 13 11 12 26 27 27 27 27 26 27
52 52 52 50 48 47 47 39 29 27 26 27 20 20 23 20 20 14 13 16 13 13 13 12 11 14 16 13 12 13 13 13 8 13 10 13 11 18 27 28 29 28 28 27 26
52 50 48 50 49 48 41 32 28 28 29 25 20 17 18 19 19 17 13 13 13 13 12 14 13 16 14 15 15 15 13 16 13 16 13 12 22 26 27 28 29 28 27 26 25
46 46 45 50 50 46 39 31 33 33 29 28 22 21 18 19 18 16 16 17 16 17 19 18 15 18 16 16 15 15 16 14 20 13 10 11 11 18 26 28 28 27 26 26 24
44 40 43 48 47 41 32 34 34 35 33 31 28 29 26 20 20 19 18 18 21 20 18 17 17 16 16 14 13 14 14 17 18 16 11 9 12 20 24 28 26 25 26 25 23
42 33 44 46 36 34 32 33 36 33 34 32 33 32 29 25 23 20 21 21 22 20 15 17 20 14 13 18 18 16 17 18 17 12 15 14 14 29 25 26 25 24 25 25 24
38 36 44 44 31 31 33 33 35 34 33 32 32 32 32 26 21 25 24 27 26 21 18 20 17 14 15 17 21 17 25 22 25 23 17 11 14 28 27 25 25 24 24 24 24
36 31 36 39 33 30 29 31 31 34 34 34 35 35 31 21 25 22 21 28 28 28 32 27 19 19 15 15 20 19 21 24 20 18 19 17 16 26 26 24 24 25 25 23 23
37 32 31 29 32 33 30 30 29 30 33 34 32 33 29 27 25 23 26 25 26 28 24 22 16 18 20 19 20 20 20 19 19 19 17 16 19 21 26 25 24 25 25 23 22
33 32 31 28 31 31 33 28 28 30 32 30 32 34 32 26 23 24 26 25 24 26 23 23 19 16 10 19 20 20 21 19 20 19 19 19 19 25 27 25 24 25 24 22 19
40 38 31 30 28 31 28 29 28 30 32 31 32 31 33 34 34 28 32 33 29 26 24 21 17 14 12 21 21 17 22 22 22 23 21 19 20 26 25 25 25 24 23 21 17

GFSSW_sfc_dewp_132.txt.gz
Dewpoint
59 58 58 57 57 56 56 55 55 55 54 54 55 55 55 54 53 41 26 37 39 52 50 26 27 31 21 21 20 23 20 18 19 19 20 18 16 15 18 16 22 26 24 22 25
59 59 59 58 57 57 56 55 55 55 55 55 55 55 53 54 45 39 47 52 50 52 25 33 30 29 16 16 17 19 20 20 22 23 20 18 15 13 16 14 19 20 22 22 26
59 59 59 59 58 57 56 56 55 55 55 54 54 54 53 52 38 34 54 53 51 47 34 37 30 23 14 12 11 20 14 18 15 17 15 16 9 12 12 12 15 14 19 22 36
59 59 59 59 59 58 57 56 55 55 53 53 54 53 53 44 34 36 53 53 52 39 30 25 13 10 12 11 12 6 10 12 12 11 11 10 10 8 12 12 15 16 21 41 42
58 58 59 59 59 58 57 56 55 55 53 53 53 52 41 44 43 41 53 48 33 30 25 21 15 16 14 12 14 9 13 14 13 12 11 11 10 10 10 10 12 39 39 39 38
58 58 58 58 58 58 57 57 55 55 53 53 52 52 37 44 39 36 37 34 31 28 17 16 17 18 17 18 16 18 16 14 12 12 12 11 11 9 14 13 35 35 35 34 33
57 58 58 58 58 58 57 57 56 55 52 53 52 46 38 47 37 38 37 32 27 21 20 20 18 14 20 17 20 17 12 12 12 12 12 12 12 11 12 33 34 33 32 31 30
55 57 57 57 57 57 57 57 56 54 53 53 52 43 44 46 41 42 37 35 25 23 22 23 20 19 19 20 15 13 13 10 12 16 14 12 10 12 15 33 33 32 30 29 29
56 56 57 56 56 56 56 56 55 53 53 53 43 42 44 48 41 39 36 36 22 21 23 17 20 18 16 13 12 13 9 12 13 15 15 13 12 18 26 32 32 31 29 28 28
56 56 56 56 56 55 56 54 53 51 49 42 41 43 44 43 39 26 35 22 18 21 16 18 19 15 14 12 8 10 11 16 12 12 14 14 12 24 31 30 30 29 28 28 27
56 56 56 56 56 54 53 52 49 45 41 45 43 44 41 40 37 23 24 18 22 19 16 20 16 14 13 14 14 13 12 12 12 13 15 15 13 27 30 29 28 28 27 27 27
55 55 56 56 55 54 53 50 47 37 38 42 44 43 43 42 41 40 22 23 21 18 15 12 15 17 18 18 17 17 16 16 17 17 16 13 11 28 28 28 27 27 26 26 26
55 55 54 55 54 52 51 49 41 38 37 39 41 41 41 43 42 41 24 23 21 19 16 15 14 18 18 17 18 18 17 17 16 13 11 10 10 26 28 27 27 27 27 27 26
53 55 54 53 51 50 49 50 47 41 31 31 34 38 41 41 37 42 31 29 25 26 22 19 20 19 19 17 18 17 19 19 16 10 7 10 7 10 27 26 26 26 26 26 26
51 54 53 53 47 47 48 50 46 33 18 22 32 38 41 36 27 34 38 33 27 23 23 23 19 20 19 19 20 19 17 13 12 9 9 9 7 13 26 25 26 26 26 26 26
50 54 53 50 47 45 48 45 40 27 19 20 32 35 38 38 20 24 28 33 31 26 23 21 20 17 17 17 15 16 13 14 16 11 9 9 8 9 24 25 26 26 26 26 26
51 53 53 50 46 47 46 45 33 25 25 21 19 34 35 32 18 17 19 16 19 23 23 20 19 17 17 16 16 12 11 12 11 10 8 13 10 10 25 28 28 27 26 26 26
51 53 52 50 47 48 47 39 26 26 26 27 19 24 28 22 18 14 17 15 14 15 14 16 12 15 16 14 13 12 13 12 7 10 10 14 11 12 28 28 29 28 27 26 25
51 50 49 50 48 49 43 31 25 28 29 25 18 17 20 19 21 14 16 17 17 14 16 13 12 16 14 15 15 15 12 15 13 15 13 10 13 25 28 28 28 27 27 25 24
46 46 45 50 50 46 39 31 32 32 30 27 19 19 17 18 17 18 16 17 15 17 18 17 14 17 15 15 15 15 16 14 18 12 10 13 12 16 25 27 29 27 26 25 23
44 40 44 49 48 41 33 33 33 35 34 30 27 27 23 19 19 18 18 19 21 19 17 19 17 16 16 14 13 13 14 17 17 16 13 10 14 19 20 26 29 26 26 23 21
42 33 44 47 36 35 33 35 37 33 34 33 32 32 29 24 22 21 20 21 25 22 16 19 21 15 13 18 20 16 14 18 15 12 15 16 15 28 25 25 26 25 25 24 23
38 36 44 44 31 32 34 34 34 34 33 32 31 32 31 25 25 24 24 28 28 21 18 21 17 15 15 17 20 16 18 19 24 23 13 12 15 27 27 25 24 24 24 23 22
36 31 36 38 35 32 30 31 32 35 34 34 34 34 28 25 26 23 21 26 29 30 32 28 20 19 14 16 19 19 21 24 22 17 14 16 17 22 26 25 24 25 24 22 21
37 32 31 29 33 32 30 29 30 30 34 34 32 34 31 28 22 21 24 23 24 27 24 24 17 19 20 19 19 19 19 21 20 18 17 16 18 20 25 26 25 24 23 23 21
33 33 30 29 31 31 32 28 28 28 32 31 31 33 30 28 26 24 25 22 19 24 22 23 21 17 13 18 19 19 21 20 20 20 20 19 18 21 25 26 24 24 23 22 20
38 36 32 29 29 30 28 28 28 30 31 32 32 32 32 33 35 32 28 28 28 26 25 26 24 21 17 19 20 16 18 19 20 21 19 16 19 25 25 25 24 23 23 22 18